     2              OBSERVATION DATA    GPS                 RINEX VERSION / TYPE
ASRINEXO V2.9.7 UX USGS/MENLO_PARK 30-JAN-02 12:55          PGM / RUN BY / DATE
                                                            COMMENT
BIT 2 OF LLI (+4) FLAGS DATA COLLECTED UNDER "AS" CONDITION COMMENT
BIT 2 OF LLI (+4) FLAGS DATA COLLECTED UNDER "AS" CONDITION COMMENT
BIT 2 OF LLI (+4) FLAGS DATA COLLECTED UNDER "AS" CONDITION COMMENT
BIT 2 OF LLI (+4) FLAGS DATA COLLECTED UNDER "AS" CONDITION COMMENT
BIT 2 OF LLI (+4) FLAGS DATA COLLECTED UNDER "AS" CONDITION COMMENT
BIT 2 OF LLI (+4) FLAGS DATA COLLECTED UNDER "AS" CONDITION COMMENT
BIT 2 OF LLI (+4) FLAGS DATA COLLECTED UNDER "AS" CONDITION COMMENT
BIT 2 OF LLI (+4) FLAGS DATA COLLECTED UNDER "AS" CONDITION COMMENT
Original Marker Name: sanh Sand_Hill_1939_1981_USC&GS       COMMENT
Campaign Name: USGS Mojave 2002                             COMMENT
4-Character Station Name: SANH                              COMMENT
6-Character Antenna Code: DMRCHT                            COMMENT
Vertical Measurement Point: BCR                             COMMENT
Vertical Offset to Rinex Ref. Point: 0.0348                 COMMENT
Radial Measurement Point: ECF                               COMMENT
Radial Offset to Rinex Ref. Point: 0.1897                   COMMENT
Antenna Height from Field Measurement: 0.6030 m             COMMENT
Additional Antenna Identification Info.:                    COMMENT
Turborogue and Ashtech Choke Ring                           COMMENT
Original XYZ: -2336832.5589 -4732611.9827 3570350.7706      COMMENT
New XYZ position is based on association with SCEC monument COMMENT
E1F2G8K4+0012. Position of that monument is believed to be  COMMENT
valid to within 1 m horizontally; vertical accuracy         COMMENT
should be no worse than 3-times this value.                 COMMENT
                                                            COMMENT
Revised Rinex header created by UCSD GPS archive for        COMMENT
GSAC on 27-Jun-2003 (2003:178) 15:57:48 GMT                 COMMENT
For assistance contact dagnew@ucsd.edu                      COMMENT
or anderson@python.ucsd.edu                                 COMMENT
                                                            COMMENT
SANDHILL 1939 1981                                          MARKER NAME
GDH NATIONAL GEODETIC SURVEY                                OBSERVER / AGENCY
LP019992803 ASHTECH Z-XII3 CD00                             REC # / TYPE / VERS
CR14329 DORNE-MARGOL. TYPE T                                ANT # / TYPE
 -2336820.0038 -4732586.6672  3570330.0290                  APPROX POSITION XYZ
        0.5376        0.0000        0.0000                  ANTENNA: DELTA H/E/N
     1     1     0                                          WAVELENGTH FACT L1/2
     5    C1    L1    L2    P1    P2                        # / TYPES OF OBSERV
    30                                                      INTERVAL
  2002     1    27     0     1   30.000000                  TIME OF FIRST OBS
  2002     1    27    22    10    0.000000                  TIME OF LAST OBS
                                                            END OF HEADER
 02  1 27  0  1 30.0000000  0  7 04 09 24 06 05 10 30
  24468056.964    -5681988.137 7  -4395922.43545  24468056.996    24468075.4154
  24781558.907    -2915016.378 7  -2251625.84245  24781558.844    24781577.9194
  21635981.371   -20788669.944 9 -16186136.23347  21635981.172    21635992.5044
  22889357.540   -14412641.570 8 -11217331.95046  22889357.438    22889371.0414
  20319131.633   -23380433.856 9 -18034528.08748  20319131.148    20319140.5184
  21303565.243   -23218402.816 8 -17288563.72547  21303564.509    21303576.2614
  20732049.949   -24613072.056 9 -19162639.93347  20732050.280    20732059.7624
 02  1 27  0  2  0.0000000  0  7 04 09 24 06 05 10 30
  24486787.948    -5583556.764 7  -4319222.76545  24486787.979    24486806.3074
  24798588.888    -2825523.873 7  -2181891.72045  24798588.764    24798607.9814
  21648698.897   -20721839.275 9 -16134060.44547  21648698.708    21648710.0244
  22876608.931   -14479635.141 8 -11269534.57546  22876608.784    22876622.4514
  20324357.204   -23352973.264 9 -18013130.23548  20324356.731    20324366.0984
  21292486.818   -23276619.876 8 -17333927.53947  21292486.099    21292497.7934
  20723767.521   -24656596.095 9 -19196554.69947  20723767.844    20723777.2944
 02  1 27  0  2 30.0000000  0  7 04 09 24 06 05 10 30
  24505513.126    -5485155.382 7  -4242546.48345  24505513.116    24505531.6114
  24815600.917    -2736126.258 7  -2112231.51645  24815600.797    24815620.0084
  21661455.060   -20654805.286 9 -16081826.22847  21661454.877    21661466.2124
  22863867.762   -14546589.652 8 -11321706.76246  22863867.634    22863881.3104
  20329684.615   -23324977.577 9 -17991315.42848  20329684.133    20329693.5134
  21281505.666   -23334325.873 8 -17378893.12647  21281504.931    21281516.6064
  20715581.307   -24699614.701 9 -19230075.62647  20715581.631    20715591.0564
 02  1 27  0  3  0.0000000  0  7 04 09 24 06 05 10 30
  24524232.313    -5386785.349 7  -4165894.60045  24524232.347    24524250.8754
  24832594.447    -2646825.750 7  -2042646.95845  24832594.362    24832613.5224
  21674249.433   -20587570.481 9 -16029435.52647  21674249.259    21674260.6224
  22851134.143   -14613504.632 8 -11373848.15246  22851134.009    22851147.6464
  20335113.789   -23296447.212 9 -17969083.98648  20335113.304    20335122.6784
  21270622.228   -23391518.240 8 -17423458.48847  21270621.495    21270633.1474
  20707491.715   -24742125.671 9 -19263200.99047  20707492.032    20707501.4324
 02  1 27  0  3 30.0000000  0  7 04 09 24 06 05 10 30
  24542945.277    -5288447.947 7  -4089268.15245  24542945.382    24542964.0304
  24849568.926    -2557624.919 7  -1973140.09745  24849568.891    24849588.2304
  21687081.709   -20520136.588 9 -15976889.68647  21687081.546    21687092.9384
  22838408.158   -14680379.498 8 -11425958.27946  22838408.049    22838421.6174
  20340644.622   -23267382.456 9 -17946436.13748  20340644.145    20340653.5054
  21259837.032   -23448194.309 8 -17467621.53847  21259836.302    21259847.9314
  20699499.041   -24784127.209 9 -19295929.39147  20699499.355    20699508.7344
 02  1 27  0  4  0.0000000  0  7 04 09 24 06 05 10 30
  24561651.835    -5190144.738 7  -4012668.35145  24561652.032    24561670.5964
  24866524.067    -2468526.147 7  -1903712.75245  24866523.933    24866543.4474
  21699951.498   -20452505.644 9 -15924190.30447  21699951.316    21699962.7554
  22825690.009   -14747213.478 8 -11478036.55446  22825689.874    22825703.4054
  20346277.043   -23237783.901 9 -17923372.34448  20346276.556    20346285.9284
  21249150.506   -23504351.836 8 -17511380.53847  21249149.780    21249161.3924
  20691603.676   -24825617.374 9 -19328259.32447  20691604.001    20691613.3404
 02  1 27  0  4 30.0000000  0  7 04 09 24 06 05 10 30
  24580351.447    -5091878.268 7  -3936097.16145  24580351.686    24580370.3024
  24883459.235    -2379532.819 7  -1834367.56845  24883459.009    24883478.6894
  21712858.153   -20384680.954 9 -15871339.93847  21712857.981    21712869.4214
  22812979.393   -14814007.482 8 -11530083.67046  22812979.273    22812992.7714
  20352010.678   -23207653.350 9 -17899894.00648  20352010.187    20352019.5834
  21238562.865   -23559989.856 8 -17554734.72447  21238562.140    21238573.7434
  20683805.742   -24866595.525 9 -19360190.29047  20683806.069    20683815.3984
 02  1 27  0  5  0.0000000  0  7 04 09 24 06 05 10 30
  24599044.022    -4993648.830 7  -3859554.82345  24599044.076    24599062.7734
  24900373.995    -2290646.440 7  -1765105.74145  24900373.849    24900393.4724
  21725801.556   -20316663.349 9 -15818339.25947  21725801.371    21725812.8034
  22800276.721   -14880759.796 8 -11582098.29646  22800276.597    22800290.0944
  20357845.754   -23176989.839 9 -17876000.37048  20357845.267    20357854.6674
  21228074.736   -23615104.846 9 -17597681.35047  21228074.000    21228085.5904
  20676105.810   -24907058.592 9 -19391719.88547  20676106.150    20676115.4614
 02  1 27  0  5 30.0000000  0  7 04 09 24 06 05 10 30
  24617729.058    -4895458.564 7  -3783042.99945  24617729.200    24617747.6964
  24917267.725    -2201870.312 7  -1695929.84345  24917267.634    24917287.2274
  21738781.159   -20248455.470 9 -15765190.31647  21738780.975    21738792.3894
  22787581.951   -14947470.575 8 -11634080.55746  22787581.825    22787595.2964
  20363782.030   -23145794.655 9 -17851692.44848  20363781.547    20363790.9324
  21217686.508   -23669694.883 9 -17640218.93047  21217685.772    21217697.3414
  20668504.128   -24947005.420 9 -19422847.22047  20668504.472    20668513.7844
 02  1 27  0  6  0.0000000  0  7 04 09 24 06 05 10 30
  24636406.573    -4797308.151 8  -3706562.21945  24636406.680    24636425.2044
  24934140.197    -2113206.211 7  -1626841.24645  24934140.133    24934159.7974
  21751796.691   -20180058.598 9 -15711894.10147  21751796.514    21751807.9294
  22774895.284   -15014138.765 8 -11686029.63846  22774895.168    22774908.6114
  20369819.497   -23114067.580 9 -17826970.06348  20369819.008    20369828.3894
  21207398.731   -23723757.122 9 -17682345.24047  21207397.984    21207409.5234
  20661001.129   -24986433.644 9 -19453570.45147  20661001.466    20661010.7704
 02  1 27  0  6 30.0000000  0  7 04 09 24 06 05 10 30
  24655076.127    -4699199.330 7  -3630113.83145  24655076.236    24655094.7804
  24950990.774    -2024657.129 8  -1557842.23145  24950990.678    24951010.3614
  21764847.715   -20111475.181 9 -15658452.52347  21764847.530    21764858.9894
  22762216.769   -15080764.137 8 -11737945.35246  22762216.636    22762230.0344
  20375957.977   -23081809.787 9 -17801834.13448  20375957.488    20375966.8744
  21197211.690   -23777289.901 9 -17724058.97847  21197210.946    21197222.4704
  20653597.104   -25025341.924 9 -19483888.52747  20653597.432    20653606.7254
 02  1 27  0  7  0.0000000  0  7 04 09 24 06 05 10 30
  24673737.470    -4601133.510 7  -3553698.95645  24673737.607    24673756.1314
  24967819.049    -1936225.499 8  -1488934.70845  24967818.938    24967838.5654
  21777933.824   -20042707.201 8 -15604867.13247  21777933.640    21777945.1394
  22749546.549   -15147346.022 8 -11789827.18746  22749546.417    22749559.7114
  20382197.341   -23049021.924 9 -17776285.16348  20382196.859    20382206.2404
  21187125.915   -23830290.536 9 -17765358.06247  21187125.169    21187136.6904
  20646292.372   -25063728.277 9 -19513799.90847  20646292.699    20646301.9724
 02  1 27  0  7 30.0000000  0  7 04 09 24 06 05 10 30
  24692390.406    -4503112.109 7  -3477318.67745  24692390.704    24692409.0874
  24984624.421    -1847913.893 7  -1420120.74545  24984624.254    24984643.8974
  21791054.658   -19973756.751 8 -15551139.55547  21791054.467    21791066.0224
  22736884.660   -15213883.993 8 -11841674.80046  22736884.543    22736897.8054
  20388537.415   -23015704.724 9 -17750323.72648  20388536.940    20388546.3124
  21177141.778   -23882757.159 9 -17806241.03247  21177141.021    21177152.4944
  20639087.189   -25101591.356 9 -19543303.54547  20639087.517    20639096.7724
 02  1 27  0  8  0.0000000  0  7 04 09 24 06 05 10 30
  24711034.619    -4405136.060 7  -3400973.73945  24711034.876    24711053.2814
  25001406.590    -1759724.032 7  -1351401.67745  25001406.306    25001426.2664
  21804209.869   -19904625.473 8 -15497271.07147  21804209.700    21804221.3014
  22724231.338   -15280377.001 8 -11893487.37746  22724231.223    22724244.4334
  20394978.210   -22981858.290 9 -17723949.89848  20394977.731    20394987.1034
  21167259.791   -23934686.813 9 -17846705.58547  21167259.042    21167270.4774
  20631982.083   -25138928.668 9 -19572397.50147  20631982.406    20631991.6384
 02  1 27  0  8 30.0000000  0  7 04 09 24 06 05 10 30
  24729669.866    -4307207.400 7  -3324665.72645  24729670.136    24729688.3924
  25018164.937    -1671659.211 7  -1282780.06645  25018164.705    25018184.8104
  21817399.083   -19835315.846 8 -15443263.62147  21817398.909    21817410.5144
  22711586.556   -15346825.265 8 -11945265.09046  22711586.427    22711599.6004
  20401519.408   -22947484.113 9 -17697164.84348  20401518.922    20401528.2974
  21157480.270   -23986078.148 9 -17886750.67447  21157479.512    21157490.9024
  20624977.227   -25175739.225 9 -19601080.99447  20624977.555    20624986.7534
 02  1 27  0  9  0.0000000  0  6 09 24 06 05 10 30
  25034899.219    -1583720.992 8  -1214257.09045  25034899.010    25034919.2044
  21830621.994   -19765829.220 8 -15389118.25347  21830621.815    21830633.4354
  22698950.483   -15413227.537 8 -11997006.95946  22698950.354    22698963.5464
  20408161.082   -22912581.924 9 -17669968.35148  20408160.594    20408169.9754
  21147803.703   -24036928.415 9 -17926374.15347  21147802.961    21147814.2944
  20618073.104   -25212020.569 9 -19629352.11347  20618073.435    20618082.5964
 02  1 27  0  9 30.0000000  0  6 09 24 06 05 10 30
  25051610.644    -1495903.128 8  -1145827.88545  25051610.400    25051630.6784
  21843879.943   -19696158.689 8 -15334829.58347  21843879.767    21843891.3584
  22686325.026   -15479574.368 8 -12048705.63246  22686324.914    22686338.0324
  20414904.739   -22877143.779 9 -17642354.23248  20414904.256    20414913.6384
  21138232.245   -24087226.385 9 -17965567.27747  21138231.507    21138242.7934
  20611271.635   -25247762.256 9 -19657202.72147  20611271.973    20611281.1064
 02  1 27  0 10  0.0000000  0  5 24 06 05 10 30
  21857174.185   -19626297.249 8 -15280392.14547  21857174.003    21857185.5834
  22673711.896   -15545856.274 8 -12100353.71446  22673711.796    22673724.8214
  20421751.895   -22841161.624 9 -17614316.20348  20421751.416    20421760.8274
  21128767.983   -24136960.852 9 -18004321.30147  21128767.239    21128778.4884
  20604574.882   -25282953.738 9 -19684624.59347  20604575.219    20604584.3404
 02  1 27  0 10 30.0000000  0  5 24 06 05 10 30
  21870498.696   -19556276.624 8 -15225830.67547  21870498.519    21870510.1064
  22661105.618   -15612102.375 8 -12151973.89946  22661105.494    22661118.4764
  20428696.773   -22804666.049 9 -17585878.11248  20428696.288    20428705.7314
  21119405.625   -24186159.905 9 -18042658.12047  21119404.880    21119416.0864
  20597977.475   -25317623.071 9 -19711639.60447  20597977.807    20597986.9034
 02  1 27  0 11  0.0000000  0  5 24 06 05 10 30
  21883853.857   -19486094.782 8 -15171143.58547  21883853.673    21883865.3034
  22648507.016   -15678308.045 8 -12203562.58746  22648506.845    22648519.8124
  20435740.026   -22767653.545 9 -17557037.21648  20435739.542    20435749.0024
  21110146.353   -24234817.338 9 -18080572.90347  21110145.600    21110156.7774
  20591480.508   -25351764.573 9 -19738243.31348  20591480.844    20591489.9274
 02  1 27  0 11 30.0000000  0  6 24 06 05 10 30 17
  21897238.276   -19415759.250 8 -15116336.73547  21897238.078    21897249.7734
  22635915.115   -15744478.272 8 -12255123.64846  22635914.952    22635927.8704
  20442880.402   -22730130.641 9 -17527798.60648  20442879.909    20442889.3864
  21100989.464   -24282936.633 9 -18118068.36147  21100988.700    21100999.8594
  20585083.251   -25385382.274 9 -19764438.86748  20585083.573    20585092.6434
  25058686.107    -1420189.423 7  -1087132.02345  25058685.793    25058706.1694
 02  1 27  0 12  0.0000000  0  6 24 06 05 10 30 17
  21910651.352   -19345273.154 8 -15061412.55947  21910651.172    21910662.9234
  22623329.859   -15810613.488 8 -12306657.43546  22623329.695    22623342.5894
  20450117.567   -22692099.194 9 -17498163.72948  20450117.079    20450126.5724
  21091935.243   -24330516.530 9 -18155143.51047  21091934.488    21091945.6284
  20578785.737   -25418475.631 9 -19790225.83948  20578786.063    20578795.1194
  25041833.016    -1508752.254 7  -1156141.69145  25041832.650    25041853.2144
 02  1 27  0 12 30.0000000  0  6 24 06 05 10 30 17
  21924097.084   -19274615.611 8 -15006354.79547  21924096.904    21924108.6454
  22610755.632   -15876690.720 8 -12358146.04346  22610755.490    22610768.3564
  20457455.598   -22653537.644 9 -17468115.79048  20457455.118    20457464.6164
  21082988.292   -24377532.598 9 -18191779.31947  21082987.542    21082998.6504
  20572592.606   -25451020.705 9 -19815585.58148  20572592.930    20572601.9734
  25025006.911    -1597172.907 7  -1225040.58945  25025006.429    25025027.2404
 02  1 27  0 13  0.0000000  0  6 24 06 05 10 30 17
  21937574.273   -19203792.930 8 -14951168.35647  21937574.093    21937585.8554
  22598191.815   -15942713.464 8 -12409592.19746  22598191.668    22598204.4784
  20464893.573   -22614450.913 9 -17437658.62048  20464893.079    20464902.5984
  21074148.152   -24423987.305 9 -18227977.69847  21074147.412    21074158.4874
  20566503.319   -25483019.896 9 -19840519.96048  20566503.646    20566512.6694
  25008207.264    -1685454.379 7  -1293831.05045  25008206.739    25008227.6454
 02  1 27  0 13 30.0000000  0  6 24 06 05 10 30 17
  21951082.174   -19132808.790 8 -14895856.10247  21951081.992    21951093.7424
  22585638.128   -16008682.894 8 -12460996.81546  22585637.998    22585650.7344
  20472430.954   -22574841.795 9 -17406794.39648  20472430.461    20472439.9804
  21065414.946   -24469880.247 9 -18263738.33447  21065414.197    21065425.2604
  20560517.832   -25514473.639 9 -19865029.31348  20560518.150    20560527.1764
  24991433.901    -1773597.847 7  -1362513.97445  24991433.481    24991454.4284
 02  1 27  0 14  0.0000000  0  7 23 24 06 05 10 30 17
  24130057.741     -837794.39544                  24130056.430    24130078.1454
  21964620.243   -19061666.297 8 -14840420.46247  21964620.060    21964631.7814
  22573094.527   -16074599.496 8 -12512360.27346  22573094.412    22573107.0614
  20480067.346   -22534712.373 9 -17375524.74248  20480066.855    20480076.3864
  21056788.780   -24515210.616 9 -18299060.60247  21056788.019    21056799.0844
  20554636.231   -25545381.543 9 -19889113.33748  20554636.561    20554645.5774
  24974686.685    -1861603.563 7  -1431089.55045  24974686.396    24974707.2864
 02  1 27  0 14 30.0000000  0  7 23 24 06 05 10 30 17
  24110061.984    -1202953.62117   -919670.07445  24110061.562    24110080.1374
  21978187.882   -18990368.168 8 -14784863.54647  21978187.687    21978199.4044
  22560560.942   -16140463.402 8 -12563682.66746  22560560.819    22560573.4634
  20487802.403   -22494064.432 9 -17343851.04848  20487801.920    20487811.4584
  21048269.856   -24559977.472 9 -18333943.76847  21048269.107    21048280.1374
  20548858.592   -25575742.865 9 -19912771.44948  20548858.931    20548867.9564
  24957965.847    -1949471.197 7  -1499557.49245  24957965.360    24957986.4184
 02  1 27  0 15  0.0000000  0  7 23 24 06 05 10 30 17
  24090074.583    -1307986.826 7  -1001513.78445  24090074.179    24090093.6064
  21991784.623   -18918916.887 8 -14729187.28547  21991784.405    21991796.1344
  22548037.351   -16206274.591 8 -12614963.97846  22548037.219    22548049.8544
  20495635.893   -22452899.305 9 -17311774.35148  20495635.397    20495644.9514
  21039858.474   -24604179.190 9 -18368386.56947  21039857.730    21039868.7284
  20543185.167   -25605556.742 9 -19936002.97948  20543185.509    20543194.5224
  24941271.328    -2037200.383 7  -1567917.56645  24941270.878    24941291.8214
 02  1 27  0 15 30.0000000  0  7 23 24 06 05 10 30 17
  24070095.511    -1412977.840 7  -1083324.60345  24070095.181    24070114.3264
  22005409.902   -18847315.757 8 -14673394.26747  22005409.682    22005421.4134
  22535523.701   -16272033.644 8 -12666204.67246  22535523.572    22535536.1954
  20503567.313   -22411219.332 9 -17279296.48048  20503566.836    20503576.3814
  21031554.678   -24647815.519 9 -18402388.81947  21031553.928    21031564.9194
  20537615.941   -25634822.961 9 -19958807.76348  20537616.284    20537625.2984
  24924602.925    -2124791.720 7  -1636170.19745  24924602.547    24924623.4464
 02  1 27  0 16  0.0000000  0  7 23 24 06 05 10 30 17
  24050125.030    -1517922.833 7  -1165099.53545  24050124.505    24050143.8084
  22019063.537   -18775565.731 8 -14617485.21847  22019063.320    22019075.0254
  22523020.293   -16337738.935 8 -12717403.47746  22523020.128    22523032.7414
  20511596.740   -22369024.581 9 -17246417.47748  20511596.247    20511605.8104
  21023359.057   -24690883.552 9 -18435948.24247  21023358.312    21023369.2734
  20532151.361   -25663539.181 9 -19981183.97348  20532151.697    20532160.7124
  24907961.037    -2212243.397 7  -1704313.99145  24907960.868    24907981.6554
 02  1 27  0 16 30.0000000  0  7 23 24 06 05 10 30 17
  24030163.830    -1622819.011 7  -1246836.46045  24030163.404    24030182.6204
  22032745.233   -18703668.295 8 -14561461.30747  22032745.028    22032756.7064
  22510527.318   -16403389.628 8 -12768559.73946  22510527.187    22510539.7494
  20519723.947   -22326315.855 9 -17213137.98148  20519723.461    20519733.0224
  21015271.976   -24733381.094 9 -18469063.12847  21015271.231    21015282.1914
  20526791.768   -25691703.799 9 -20003130.36848  20526792.108    20526801.1034
  24891346.062    -2299554.337 7  -1772348.13145  24891345.721    24891366.6044
 02  1 27  0 17  0.0000000  0  7 23 24 06 05 10 30 17
  24010212.574    -1727662.800 7  -1328532.53645  24010212.166    24010231.3314
  22046454.785   -18631624.489 8 -14505323.34247  22046454.587    22046466.2874
  22498045.006   -16468984.102 8 -12819672.18846  22498044.868    22498057.4174
  20527948.925   -22283093.370 9 -17179458.15148  20527948.437    20527958.0054
  21007294.014   -24775305.376 9 -18501731.31447  21007293.254    21007304.2004
  20521537.629   -25719314.389 9 -20024645.04948  20521537.965    20521546.9494
  24874758.039    -2386722.558 7  -1840271.05245  24874757.814    24874778.8154
 02  1 27  0 17 30.0000000  0  7 23 24 06 05 10 30 17
  23990271.630    -1832451.914 7  -1410186.01545  23990271.212    23990290.2084
  22060191.706   -18559436.775 8 -14449073.24647  22060191.517    22060203.2164
  22485573.408   -16534522.216 8 -12870740.72446  22485573.272    22485585.7574
  20536271.395   -22239358.655 9 -17145379.18348  20536270.905    20536280.4764
  20999425.352   -24816655.220 9 -18533951.89247  20999424.591    20999435.5224
  20516389.025   -25746370.225 9 -20045727.45948  20516389.359    20516398.3254
  24858197.444    -2473747.877 7  -1908082.62145  24858197.169    24858218.0714
 02  1 27  0 18  0.0000000  0  7 23 24 06 05 10 30 17
  23970341.730    -1937183.053 7  -1491794.32545  23970341.249    23970360.3064
  22073955.794   -18487106.391 8 -14392711.96247  22073955.599    22073967.3224
  22473112.758   -16600002.808 8 -12921764.43146  22473112.628    22473125.1034
  20544691.213   -22195112.372 9 -17110901.58548  20544690.726    20544700.2804
  20991666.374   -24857428.560 9 -18565723.24047  20991665.612    20991676.5234
  20511346.347   -25772869.499 9 -20066376.17748  20511346.670    20511355.6104
  24841664.284    -2560629.104 7  -1975781.91545  24841663.925    24841684.7254
 02  1 27  0 18 30.0000000  0  7 23 24 06 05 10 30 17
  23950423.129    -2041854.602 7  -1573356.21345  23950422.588    23950441.6644
  22087746.464   -18414636.124 8 -14336241.68147  22087746.271    22087758.0104
  22460663.014   -16665426.318 8 -12972743.65946  22460662.867    22460675.3154
  20553207.958   -22150356.803 9 -17076027.14648  20553207.470    20553217.0214
  20984017.259   -24897624.692 9 -18597044.81547  20984016.508    20984027.4084
  20506409.623   -25798811.870 9 -20086590.95448  20506409.948    20506418.8554
  24825158.519    -2647366.258 7  -2043368.87245  24825158.181    24825179.0494
 02  1 27  0 19  0.0000000  0  7 23 24 06 05 10 30 17
  23930516.451    -2146463.390 7  -1654869.19245  23930516.059    23930534.9214
  22101563.416   -18342027.595 8 -14279663.66647  22101563.226    22101575.0024
  22448224.372   -16730791.412 8 -13023677.36446  22448224.248    22448236.6354
  20561821.500   -22105092.604 9 -17040756.37248  20561821.007    20561830.5574
  20976478.374   -24937241.497 9 -18627914.96647  20976477.617    20976488.5104
  20501579.247   -25824195.490 9 -20106370.33748  20501579.582    20501588.4424
  24808680.371    -2733958.095 7  -2110842.62145  24808680.039    24808700.7404
 02  1 27  0 19 30.0000000  0  7 23 24 06 05 10 30 17
  23910622.168    -2251007.168 8  -1736331.50845  23910621.761    23910640.6524
  22115406.319   -18269282.915 8 -14222979.55447  22115406.123    22115417.8954
  22435796.859   -16796097.885 8 -13074565.39046  22435796.741    22435809.0754
  20570531.561   -22059321.082 9 -17005090.28048  20570531.078    20570540.6204
  20969049.980   -24976277.510 9 -18658332.54947  20969049.229    20969060.1124
  20496855.330   -25849019.639 9 -20125713.76748  20496855.652    20496864.4854
  24792230.065    -2820404.158 7  -2178202.77145  24792229.667    24792250.3644
 02  1 27  0 20  0.0000000  0  7 23 24 06 05 10 30 17
  23890740.824    -2355483.203 8  -1817741.06245  23890740.435    23890759.1164
  22129274.749   -18196404.223 8 -14166191.02147  22129274.542    22129286.2924
  22423380.663   -16861345.078 8 -13125407.22146  22423380.547    22423392.8324
  20579337.935   -22013043.392 9 -16969029.77148  20579337.431    20579346.9754
  20961732.461   -25014731.051 9 -18688296.26047  20961731.705    20961742.5924
  20492238.088   -25873283.098 9 -20144620.30248  20492238.419    20492247.2204
  24775807.593    -2906703.808 7  -2245448.82145  24775807.166    24775827.7484
 02  1 27  0 20 30.0000000  0  7 23 24 06 05 10 30 17
  23870872.898    -2459888.641 8  -1899095.58345  23870872.490    23870891.0704
  22143168.379   -18123392.946 8 -14109299.16347  22143168.164    22143179.8974
  22410975.911   -16926531.889 8 -13176201.99546  22410975.805    22410988.0534
  20588240.425   -21966260.652 9 -16932575.71148  20588239.938    20588249.4594
  20954526.055   -25052600.503 9 -18717804.82947  20954525.314    20954536.1834
  20487727.837   -25896984.418 9 -20163088.80148  20487728.171    20487736.9524
  24759413.155    -2992856.128 7  -2312580.09845  24759412.736    24759433.0034
 02  1 27  0 21  0.0000000  0  7 23 24 06 05 10 30 17
  23851018.893    -2564220.600 8  -1980392.86445  23851018.464    23851036.9654
  22157086.878   -18050250.962 8 -14052305.46447  22157086.648    22157098.3974
  22398582.820   -16991657.507 8 -13226949.08646  22398582.714    22398594.9394
  20597238.788   -21918973.959 9 -16895728.96448  20597238.309    20597247.8254
  20947431.135   -25089884.161 9 -18746856.93747  20947430.396    20947441.2474
  20483324.817   -25920122.168 9 -20181118.15648  20483325.149    20483333.9104
  24743046.901    -3078860.096 7  -2379595.77245  24743046.456    24743066.4704
 02  1 27  0 21 30.0000000  0  7 23 24 06 05 10 30 17
  23831179.332    -2668476.839 8  -2061631.13645  23831178.918    23831197.4444
  22171029.893   -17976980.177 8 -13995211.40247  22171029.685    22171041.4484
  22386201.452   -17056721.505 8 -13277648.15946  22386201.325    22386213.5314
  20606332.757   -21871185.036 9 -16858490.87548  20606332.273    20606341.7874
  20940447.871   -25126581.024 9 -18775451.80447  20940447.140    20940457.9644
  20479029.171   -25942695.680 9 -20198707.85048  20479029.503    20479038.2374
  24726708.940    -3164715.430 7  -2446495.64945  24726708.397    24726728.2674
 02  1 27  0 22  0.0000000  0  7 23 24 06 05 10 30 17
  23811354.822    -2772653.737 8  -2142807.59245  23811354.383    23811372.9644
  22184997.135   -17903581.884 8 -13938017.97747  22184996.956    22185008.7254
  22373832.058   -17121722.531 8 -13328298.16046  22373831.929    22373844.0784
  20615522.195   -21822894.237 9 -16820861.71048  20615521.711    20615531.2434
  20933576.812   -25162688.345 9 -18803587.28447  20933576.077    20933586.8744
  20474841.261   -25964703.015 9 -20215856.36548  20474841.592    20474850.3124
  24710399.516    -3250420.439 7  -2513278.37845  24710398.928    24710418.6294
 02  1 27  0 22 30.0000000  0  7 23 24 06 05 10 30 17
  23791545.758    -2876749.298 8  -2223920.66645  23791545.357    23791563.9654
  22198988.121   -17830058.589 8 -13880727.14147  22198987.960    22198999.7854
  22361474.646   -17186660.608 8 -13378899.11646  22361474.483    22361486.6224
  20624806.711   -21774103.780 9 -16782843.19848  20624806.234    20624815.7724
  20926818.020   -25198205.613 9 -18831262.98347  20926817.296    20926828.0584
  20470761.192   -25986143.727 9 -20232563.35248  20470761.527    20470770.2414
  24694118.726    -3335975.284 7  -2579944.11445  24694118.198    24694137.7424
 02  1 27  0 23  0.0000000  0  7 23 24 06 05 10 30 17
  23771752.828    -2980760.390 8  -2304967.91745  23771752.528    23771771.0194
  22213002.704   -17756411.704 8 -13823340.01147  22213002.518    22213014.4084
  22349129.387   -17251534.741 8 -13429450.24546  22349129.220    22349141.3394
  20634186.169   -21724814.338 9 -16744435.87248  20634185.681    20634195.2514
  20920171.844   -25233130.985 9 -18858477.47347  20920171.117    20920181.8664
  20466789.213   -26007016.306 9 -20248827.64148  20466789.547    20466798.2534
  24677866.693    -3421378.758 7  -2646491.90145  24677866.229    24677885.5974
 02  1 27  0 23 30.0000000  0  7 23 24 06 05 10 30 17
  23751976.418    -3084684.815 8  -2385947.63545  23751976.080    23751994.4734
  22227040.285   -17682643.874 8 -13765858.62347  22227040.100    22227052.0474
  22336796.378   -17316344.426 8 -13479951.14846  22336796.228    22336808.2974
  20643660.270   -21675027.692 9 -16705641.11048  20643659.782    20643669.3564
  20913638.512   -25267463.545 9 -18885230.03047  20913637.780    20913648.5174
  20462925.495   -26027320.069 9 -20264648.69848  20462925.831    20462934.5274
  24661643.534    -3506630.549 7  -2712921.49045  24661643.110    24661662.2794
 02  1 27  0 24  0.0000000  0  7 23 24 06 05 10 30 17
  23732217.179    -3188518.960 8  -2466856.97945  23732216.899    23732235.2034
  22241100.815   -17608755.537 8 -13708283.34547  22241100.636    22241112.5994
  22324475.981   -17381088.021 8 -13530400.57546  22324475.837    22324487.8584
  20653228.853   -21624744.532 9 -16666459.45748  20653228.347    20653237.9494
  20907218.459   -25301200.893 9 -18911518.79447  20907217.725    20907228.4254
  20459170.394   -26047053.049 9 -20280024.99248  20459170.721    20459179.4024
  24645449.577    -3591728.954 7  -2779231.60145  24645449.191    24645468.1534
 02  1 27  0 24 30.0000000  0  7 23 24 06 05 10 30 17
  23712475.455    -3292261.018 8  -2547694.57045  23712475.116    23712493.3764
  22255183.706   -17534749.630 8 -13650616.44747  22255183.517    22255195.5014
  22312168.128   -17445765.690 8 -13580798.62446  22312167.978    22312179.9824
  20662891.514   -21573967.116 9 -16626892.66948  20662891.018    20662900.6244
  20900911.790   -25334342.334 9 -18937343.20747  20900911.050    20900921.7284
  20455523.928   -26066215.215 9 -20294956.49148  20455524.255    20455532.9374
  24629284.719    -3676674.235 7  -2845422.40045  24629284.332    24629303.2054
 02  1 27  0 25  0.0000000  0  7 23 24 06 05 10 30 17
  23692751.894    -3395907.774 8  -2628457.86845  23692751.500    23692769.6914
  22269288.746   -17460627.126 8 -13592858.70146  22269288.572    22269300.5744
  22299873.059   -17510376.126 8 -13631144.27947  22299872.909    22299884.8924
  20672648.047   -21522696.290 9 -16586941.40448  20672647.534    20672657.1704
  20894718.818   -25366886.282 9 -18962702.04347  20894718.088    20894728.7264
  20451986.355   -26084805.014 9 -20309441.99248  20451986.674    20451995.3574
  24613149.240    -3761465.180 7  -2911492.94245  24613148.932    24613167.5424
 02  1 27  0 25 30.0000000  0  7 23 24 06 05 10 30 17
  23673046.896    -3499456.440 8  -2709144.72645  23673046.492    23673064.6614
  22283415.606   -17386390.018 8 -13535011.65246  22283415.442    22283427.4794
  22287590.934   -17574918.536 8 -13681436.93347  22287590.812    22287602.7394
  20682498.191   -21470933.462 9 -16546606.76148  20682497.695    20682507.3324
  20888639.875   -25398830.910 9 -18987593.87447  20888639.156    20888649.7474
  20448557.900   -26102821.477 9 -20323480.73848  20448558.208    20448566.8874
  24597043.339    -3846101.085 7  -2977442.67545  24597042.982    24597061.6394
 02  1 27  0 26  0.0000000  0  7 23 24 06 05 10 30 17
  23653361.029    -3602905.016 8  -2789753.58945  23653360.590    23653378.6344
  22297563.843   -17312040.751 8 -13477077.20846  22297563.658    22297575.7534
  22275321.791   -17639392.676 8 -13731676.39247  22275321.676    22275333.5714
  20692441.603   -21418680.709 9 -16505890.35648  20692441.101    20692450.7614
  20882675.095   -25430175.874 9 -19012018.43147  20882674.356    20882684.9084
  20445238.623   -26120264.150 9 -20337072.37248  20445238.936    20445247.6134
  24580966.982    -3930581.760 7  -3043271.45445  24580966.412    24580985.1564
 02  1 27  0 26 30.0000000  0  7 23 24 06 05 10 30 17
  23633694.827    -3706249.993 8  -2870281.71245  23633694.355    23633712.3394
  22311733.275   -17237580.045 8 -13419055.93246  22311733.079    22311745.2014
  22263065.912   -17703797.250 8 -13781861.65547  22263065.790    22263077.6584
  20702478.057   -21365938.779 9 -16464792.78048  20702477.553    20702487.2384
  20876824.802   -25460919.098 9 -19035974.10947  20876824.066    20876834.5594
  20442028.855   -26137131.451 9 -20350215.67248  20442029.158    20442037.8354
  24564920.397    -4014905.775 7  -3108978.16145  24564919.860    24564938.5544
 02  1 27  0 27  0.0000000  0  7 23 24 06 05 10 30 17
  23614048.860    -3809488.837 8  -2950727.12945  23614048.355    23614066.2354
  22325923.502   -17163009.968 8 -13360949.43046  22325923.315    22325935.4424
  22250823.426   -17768131.567 8 -13831992.17147  22250823.276    22250835.1004
  20712607.338   -21312709.183 9 -16423315.20148  20712606.831    20712616.5334
  20871089.240   -25491059.523 9 -19059460.06547  20871088.506    20871098.9244
  20438928.733   -26153422.472 9 -20362909.92148  20438929.044    20438937.7224
  24548903.703    -4099072.865 7  -3174562.59845  24548903.159    24548921.7944
 02  1 27  0 27 30.0000000  0  7 23 24 06 05 10 30 17
  23594423.505    -3912619.244 8  -3031088.05345  23594422.951    23594440.7964
  22340134.150   -17088332.641 8 -13302759.35546  22340133.967    22340146.1444
  22238594.407   -17832395.218 8 -13882067.62747  22238594.252    22238606.0294
  20722829.036   -21258993.885 9 -16381459.15448  20722828.534    20722838.2574
  20865468.487   -25520596.470 9 -19082475.77847  20865467.747    20865478.1234
  20435938.357   -26169136.736 9 -20375154.74548  20435938.664    20435947.3534
  24532917.038    -4183082.412 7  -3240024.26745  24532916.456    24532934.9084
 02  1 27  0 28  0.0000000  0  7 23 24 06 05 10 30 17
  23574819.389    -4015637.914 8  -3111361.90245  23574818.824    23574836.5954
  22354364.961   -17013549.263 8 -13244486.64746  22354364.765    22354376.9874
  22226379.072   -17896586.696 8 -13932086.85247  22226378.908    22226390.6704
  20733143.013   -21204793.580 9 -16339225.18248  20733142.514    20733152.2584
  20859962.922   -25549528.093 9 -19105019.81447  20859962.179    20859972.5194
  20433057.963   -26184272.991 9 -20386949.17748  20433058.278    20433066.9514
  24516960.517    -4266933.448 7  -3305362.42545  24516959.943    24516978.3184
 02  1 27  0 28 30.0000000  0  7 23 24 06 05 10 30 17
  23555237.040    -4118542.433 8  -3191546.82345  23555236.490    23555254.1154
  22368615.583   -16938661.876 8 -13186132.90246  22368615.390    22368627.6684
  22214177.590   -17960705.414 8 -13982049.37447  22214177.435    22214189.1774
  20743549.013   -21150109.948 9 -16296614.59148  20743548.510    20743558.2684
  20854572.797   -25577853.205 9 -19127091.24447  20854572.050    20854582.3564
  20430287.750   -26198830.402 9 -20398292.56548  20430288.066    20430296.7254
  24501034.193    -4350625.422 7  -3370576.65545  24501033.678    24501051.8944
 02  1 27  0 29  0.0000000  0  7 23 24 06 05 10 30 17
  23535676.872    -4221330.048 8  -3271640.64245  23535676.381    23535693.8764
  22382885.690   -16863672.187 8 -13127699.44546  22382885.501    22382897.8174
  22201990.120   -18024750.526 8 -14031954.53647  22201989.962    22202001.6894
  20754046.588   -21094944.972 9 -16253628.93648  20754046.083    20754055.8424
  20849298.280   -25605570.631 9 -19148689.15847  20849297.532    20849307.8214
  20427627.804   -26212808.192 9 -20409184.29948  20427628.117    20427636.7594
  24485138.286    -4434157.635 7  -3435666.37145  24485137.722    24485155.8954
 02  1 27  0 29 30.0000000  0  7 23 24 06 05 10 30 17
  23516139.598    -4323997.132 8  -3351640.54745  23516139.166    23516156.5544
  22397175.140   -16788581.087 8 -13069186.96546  22397174.938    22397187.2484
  22189816.968   -18088720.321 8 -14081801.00947  22189816.810    22189828.5274
  20764635.670   -21039299.128 9 -16210268.57648  20764635.172    20764644.9354
  20844139.744   -25632678.536 9 -19169812.12347  20844139.003    20844149.2734
  20425078.530   -26226204.534 9 -20419622.96348  20425078.832    20425087.4714
  24469273.108    -4517528.518 7  -3500630.39345  24469272.506    24469290.4974
 02  1 27  0 30  0.0000000  0  7 23 24 06 05 10 30 17
  23496625.517    -4426542.462 8  -3431545.57445  23496625.106    23496642.4084
  22411483.327   -16713391.614 8 -13010597.82846  22411483.103    22411495.4164
  22177658.059   -18152615.352 8 -14131589.22947  22177657.907    22177669.6094
  20775315.647   -20983175.663 9 -16166536.04548  20775315.139    20775324.8994
  20839097.125   -25659177.330 9 -19190460.45847  20839096.384    20839106.6444
  20422639.740   -26239020.332 9 -20429609.25248  20422640.051    20422648.6604
  24453438.450    -4600739.052 8  -3565469.47045  24453437.887    24453455.8674
 02  1 27  0 30 30.0000000  0  7 23 24 06 05 10 30 17
  23477135.313    -4528962.242 8  -3511352.76445  23477134.938    23477152.1584
  22425810.106   -16638104.354 8 -12951932.49746  22425809.875    22425822.1824
  22165513.713   -18216433.784 8 -14181317.76247  22165513.574    22165525.2464
  20786086.440   -20926574.828 9 -16122431.54348  20786085.932    20786095.6944
  20834170.816   -25685065.006 9 -19210632.60047  20834170.074    20834180.3244
  20420311.738   -26251253.761 9 -20439141.75348  20420312.052    20420320.6494
  24437634.601    -4683787.541 8  -3630182.29545  24437634.099    24437651.8794
 02  1 27  0 31  0.0000000  0  7 23 24 06 05 10 30 17
  23457669.531    -4631253.929 8  -3591060.15545  23457669.085    23457686.2534
  22440155.075   -16562721.488 8 -12893192.67646  22440154.844    22440167.1274
  22153384.079   -18280174.951 8 -14230986.09347  22153383.951    22153395.5754
  20796947.776   -20869498.387 9 -16077956.42948  20796947.273    20796957.0324
  20829360.958   -25710340.775 9 -19230327.92947  20829360.204    20829370.4514
  20418094.723   -26262904.157 9 -20448219.93648  20418095.027    20418103.6154
  24421861.715    -4766673.549 8  -3694768.50845  24421861.217    24421878.9174
 02  1 27  0 31 30.0000000  0  7 23 24 06 05 10 30 17
  23438228.565    -4733415.037 8  -3670665.80045  23438228.103    23438245.2134
  22454517.865   -16487244.670 8 -12834379.64446  22454517.631    22454529.9474
  22141269.308   -18343838.111 8 -14280593.62947  22141269.159    22141280.8164
  20807899.213   -20811948.290 9 -16033112.24247  20807898.711    20807908.4554
  20824667.728   -25735003.497 9 -19249545.56547  20824666.973    20824677.2124
  20415988.752   -26273970.944 9 -20456843.36148  20415989.055    20415997.6224
  24406119.875    -4849396.490 8  -3759227.66445  24406119.386    24406137.0384
 02  1 27  0 32  0.0000000  0  7 23 24 06 05 10 30 17
  23418813.024    -4835442.661 8  -3750167.43045  23418812.564    23418829.4924
  22468898.177   -16411675.717 8 -12775494.81746  22468897.936    22468910.2834
  22129169.562   -18407422.106 8 -14330139.47847  22129169.415    22129181.0414
  20818940.542   -20753925.938 9 -15987900.05947  20818940.038    20818949.8024
  20820091.360   -25759052.141 9 -19268284.70347  20820090.601    20820100.8464
  20413993.972   -26284453.398 9 -20465011.46048  20413994.266    20414002.8274
  24390409.183    -4931955.717 8  -3823559.24945  24390408.632    24390426.2774
 02  1 27  0 32 30.0000000  0  7 23 24 06 05 10 30 17
  23399423.522    -4937333.673 8  -3829562.62445  23399423.107    23399439.8364
  22483295.822   -16336015.879 8 -12716539.16646  22483295.578    22483307.9684
  22117085.139   -18470925.661 8 -14379622.64847  22117084.991    22117096.6204
  20830071.490   -20695432.527 9 -15942320.82347  20830070.982    20830080.7544
  20815632.101   -25782485.271 9 -19286544.21947  20815631.358    20815641.6024
  20412110.604   -26294350.391 9 -20472723.36548  20412110.900    20412119.4424
  24374729.832    -5014350.134 8  -3887762.41645  24374729.316    24374746.9084
 02  1 27  0 33  0.0000000  0  7 23 24 06 05 10 30 17
  23380060.432    -5039085.744 8  -3908849.55045  23380060.032    23380076.6254
  22497710.465   -16260266.598 8 -12657513.81446  22497710.249    22497722.6314
  22105016.087   -18534348.516 8 -14429042.93947  22105015.946    22105027.5134
  20841291.654   -20636470.332 9 -15896376.30847  20841291.154    20841300.9254
  20811290.006   -25805302.765 9 -19304324.02347  20811289.254    20811299.4874
  20410338.707   -26303661.677 9 -20479978.87648  20410339.016    20410347.5374
  24359081.864    -5096579.700 8  -3951837.13545  24359081.280    24359098.8884
 02  1 27  0 33 30.0000000  0  7 23 24 06 05 10 30 17
  23360724.291    -5140696.428 8  -3988026.32245  23360723.858    23360740.3284
  22512141.803   -16184430.071 8 -12598420.48646  22512141.588    22512153.9574
  22092962.501   -18597689.999 9 -14478399.82147  22092962.361    22092973.8874
  20852600.656   -20577041.210 9 -15850067.95747  20852600.155    20852609.9454
  20807065.293   -25827503.472 9 -19321623.20647  20807064.549    20807074.7784
  20408678.313   -26312386.983 9 -20486777.78248  20408678.626    20408687.1274
  24343465.345    -5178643.957 8  -4015783.04445  24343464.820    24343482.3484
 02  1 27  0 34  0.0000000  0  7 23 24 06 05 10 30 17
  23341415.571    -5242162.876 8  -4067090.69745  23341415.095    23341431.4714
  22526589.389   -16108507.991 8 -12539260.50246  22526589.147    22526601.4814
  22080924.669   -18660948.950 8 -14527692.39347  22080924.514    22080936.0114
  20863998.254   -20517146.681 9 -15803396.94947  20863997.755    20864007.5554
  20802958.124   -25849086.365 9 -19338440.97747  20802957.382    20802967.6094
  20407129.594   -26320525.407 9 -20493119.38148  20407129.908    20407138.3874
  24327880.383    -5260542.262 8  -4079599.62345  24327879.880    24327897.3204
 02  1 27  0 34 30.0000000  0  7 23 24 06 05 10 30 17
  23322134.908    -5343482.083 8  -4146040.35945  23322134.453    23322150.6454
  22541053.092   -16032501.230 8 -12480034.52446  22541052.863    22541065.1744
  22068902.737   -18724124.108 8 -14576919.67347  22068902.577    22068914.0254
  20875484.139   -20456788.080 9 -15756364.33047  20875483.643    20875493.4574
  20798968.714   -25870050.619 9 -19354776.69447  20798967.964    20798978.1954
  20405692.726   -26328076.168 9 -20499003.06748  20405693.043    20405701.5104
  24312327.245    -5342273.532 8  -4143286.03145  24312326.707    24312344.1874
 02  1 27  0 35  0.0000000  0  7 23 24 06 05 10 30 17
  23302882.769    -5444651.229 8  -4224873.08645  23302882.341    23302898.3604
  22555532.456   -15956411.794 8 -12420744.12346  22555532.220    22555544.5364
  22056896.999   -18787214.232 8 -14626080.69047  22056896.848    22056908.2694
  20887058.025   -20395966.986 9 -15708971.32647  20887057.531    20887067.3804
  20795097.212   -25890395.109 9 -19370629.48147  20795096.464    20795106.6814
  20404367.796   -26335038.488 9 -20504428.22648  20404368.100    20404376.5614
  24296805.917    -5423837.262 7  -4206841.92545  24296805.442    24296822.7974
 02  1 27  0 35 30.0000000  0  7 23 24 06 05 10 30 17
  23283659.716    -5545667.798 8  -4303586.92746  23283659.259    23283675.1634
  22570027.257   -15880241.251 8 -12361390.51946  22570027.065    22570039.3374
  22044907.539   -18850218.781 8 -14675175.03147  22044907.408    22044918.7944
  20898719.563   -20334685.456 9 -15661219.53547  20898719.068    20898728.9474
  20791343.836   -25910119.069 9 -19385998.74247  20791343.093    20791353.2924
  20403154.950   -26341412.038 9 -20509394.60648  20403155.260    20403163.7054
  24281316.613    -5505232.909 8  -4270266.83945  24281316.185    24281333.4964
 02  1 27  0 36  0.0000000  0  7 23 24 06 05 10 30 17
  23264466.201    -5646528.932 8  -4382179.65746  23264465.756    23264481.5184
  22584537.250   -15803991.011 8 -12301974.80946  22584537.030    22584549.3094
  22032934.593   -18913136.616 8 -14724201.79647  22032934.467    22032945.7914
  20910468.398   -20272945.141 9 -15613110.24947  20910467.904    20910477.8114
  20787708.649   -25929221.832 9 -19400883.95547  20787707.899    20787718.0894
  20402054.241   -26347196.214 9 -20513901.73448  20402054.562    20402062.9834
  24265859.402    -5586459.825 7  -4333560.27945  24265858.906    24265876.1644
 02  1 27  0 36 30.0000000  0  7 23 24 06 05 10 30 17
  23245302.786    -5747232.051 8  -4460649.27146  23245302.333    23245317.9954
  22599062.080   -15727663.079 8 -12242498.56746  22599061.865    22599074.0684
  22020978.304   -18975966.905 8 -14773160.35247  22020978.164    22020989.4724
  20922304.121   -20210748.192 9 -15564645.14547  20922303.621    20922313.5534
  20784191.773   -25947703.010 9 -19415284.81547  20784191.014    20784201.1974
  20401065.736   -26352390.639 9 -20517949.31048  20401066.046    20401074.4764
  24250434.329    -5667517.798 8  -4396722.06445  24250433.814    24250451.0734
 02  1 27  0 37  0.0000000  0  7 23 24 06 05 10 30 17
  23226169.991    -5847774.145 8  -4538993.41746  23226169.548    23226185.0474
  22613601.513   -15651258.429 8 -12182962.54846  22613601.289    22613613.4424
  22009038.888   -19038708.431 9 -14822049.74047  22009038.750    22009050.0214
  20934226.487   -20148095.943 9 -15515825.26447  20934225.987    20934235.9374
  20780793.387   -25965561.350 9 -19429200.35447  20780792.617    20780802.7964
  20400189.607   -26356994.602 9 -20521536.79648  20400189.922    20400198.3514
  24235041.637    -5748405.804 7  -4459751.40745  24235041.180    24235058.2444
 02  1 27  0 37 30.0000000  0  7 23 24 06 05 10 30 17
  23207068.255    -5948153.043 8  -4617210.39546  23207067.852    23207083.2124
  22628155.071   -15574779.449 8 -12123368.59746  22628154.824    22628166.9684
  21997116.467   -19101360.762 9 -14870869.62947  21997116.313    21997127.5714
  20946235.064   -20084990.651 9 -15466652.35647  20946234.573    20946244.5184
  20777513.590   -25982796.680 9 -19442630.42547  20777512.817    20777522.9844
  20399425.813   -26361008.259 9 -20524664.29748  20399426.121    20399434.5514
  24219681.316    -5829123.957 8  -4522648.41245  24219680.824    24219697.7144
 02  1 27  0 38  0.0000000  0  7 23 24 06 05 10 30 17
  23187998.238    -6048365.414 8  -4695297.63446  23187997.774    23188013.1174
  22642722.601   -15498226.764 8 -12063717.22246  22642722.340    22642734.5194
  21985211.350   -19163922.076 9 -14919618.59447  21985211.205    21985222.4314
  20958329.644   -20021433.521 9 -15417127.36547  20958329.151    20958339.1094
  20774352.560   -25999407.688 9 -19455574.01547  20774351.806    20774361.9574
  20398774.584   -26364430.443 9 -20527330.92048  20398774.892    20398783.3074
  24204353.555    -5909670.928 8  -4585412.02645  24204353.106    24204369.8774
 02  1 27  0 38 30.0000000  0  7 23 24 06 05 10 30 17
  23168960.362    -6148408.875 8  -4773253.24846  23168959.884    23168975.1084
  22657303.711   -15421602.301 8 -12004009.89746  22657303.465    22657315.7944
  21973323.654   -19226391.966 9 -14968296.31447  21973323.505    21973334.7174
  20970509.799   -19957426.593 9 -15367251.87547  20970509.298    20970519.2604
  20771310.468   -26015393.832 9 -19468030.69047  20771309.702    20771319.8434
  20398235.896   -26367261.180 9 -20529536.66648  20398236.205    20398244.5974
  24189058.375    -5990046.686 7  -4648042.23645  24189057.934    24189074.6424
 02  1 27  0 39  0.0000000  0  7 23 24 06 05 10 30 17
  23149955.246    -6248280.345 8  -4851074.87346  23149954.731    23149969.8874
  22671898.250   -15344907.148 8 -11944247.49846  22671898.051    22671910.4624
  21961453.680   -19288768.694 9 -15016901.45147  21961453.532    21961464.6944
  20982775.293   -19892971.357 9 -15317027.06147  20982774.787    20982784.7534
  20768387.409   -26030754.332 9 -19479999.85547  20768386.655    20768396.7724
  20397809.918   -26369499.679 9 -20531280.93148  20397810.220    20397818.6124
  24173795.998    -6070250.007 8  -4710538.08845  24173795.540    24173812.1634
 02  1 27  0 39 30.0000000  0  7 23 24 06 05 10 30 17
  23130983.204    -6347977.707 8  -4928760.81946  23130982.675    23130997.7804
  22686505.936   -15268143.359 8 -11884431.60846  22686505.738    22686518.1834
  21949601.490   -19351052.047 9 -15065433.82547  21949601.327    21949612.4494
  20995125.552   -19828070.404 9 -15266454.92847  20995125.047    20995135.0024
  20765583.354   -26045489.501 9 -19491481.74447  20765582.596    20765592.7024
  20397496.572   -26371146.225 9 -20532563.93248  20397496.867    20397505.2614
  24158566.383    -6150281.247 8  -4772899.86645  24158565.913    24158582.5054
 02  1 27  0 40  0.0000000  0  7 23 24 06 05 10 30 17
  23112044.925    -6447497.770 8  -5006308.64146  23112044.416    23112059.4324
  22701126.553   -15191312.083 8 -11824563.12946  22701126.357    22701138.6824
  21937767.353   -19413240.437 9 -15113892.19747  21937767.190    21937778.2744
  21007560.373   -19762725.154 9 -15215536.59347  21007559.849    21007569.8304
  20762898.566   -26059598.013 9 -19502475.32847  20762897.805    20762907.8814
  20397296.038   -26372199.996 9 -20533385.02748  20397296.346    20397304.7234
  24143369.709    -6230139.446 8  -4835126.81945  24143369.164    24143385.7624
 02  1 27  0 40 30.0000000  0  7 23 24 06 05 10 30 17
  23093140.809    -6546838.154 8  -5083716.44546  23093140.252    23093155.3044
  22715759.651   -15114415.443 8 -11764643.71846  22715759.447    22715771.6564
  21925951.404   -19475333.172 9 -15162276.03047  21925951.250    21925962.3214
  21020079.310   -19696937.903 9 -15164273.83947  21020078.802    21020088.7824
  20760333.038   -26073079.687 9 -19512980.46647  20760332.281    20760342.3394
  20397208.294   -26372660.927 9 -20533744.16848  20397208.596    20397216.9764
  24128205.982    -6309824.296 8  -4897218.69845  24128205.451    24128222.0464
 02  1 27  0 41  0.0000000  0  7 23 24 06 05 10 30 17
  23074271.381    -6645996.367 8  -5160982.32146  23074270.845    23074285.7864
  22730404.858   -15037454.880 8 -11704674.51046  22730404.648    22730416.8004
  21914153.825   -19537329.341 8 -15210584.62347  21914153.677    21914164.7394
  21032681.956   -19630710.585 9 -15112668.18147  21032681.458    21032691.4534
  20757886.860   -26085934.264 9 -19522996.95347  20757886.095    20757896.1234
  20397233.382   -26372529.102 9 -20533641.42248  20397233.679    20397242.0594
  24113075.351    -6389335.391 8  -4959175.17445  24113074.836    24113091.3774
 02  1 27  0 41 30.0000000  0  7 23 24 06 05 10 30 17
  23055437.182    -6744969.382 8  -5238103.87246  23055436.644    23055451.5264
  22745062.021   -14960431.237 8 -11644656.13046  22745061.762    22745073.9844
  21902374.902   -19599227.565 9 -15258816.88247  21902374.742    21902385.8054
  21045368.022   -19564045.078 9 -15060721.07747  21045367.515    21045377.5174
  20755560.139   -26098161.076 9 -19532524.26747  20755559.375    20755569.3584
  20397371.338   -26371803.972 9 -20533076.35348  20397371.634    20397380.0244
  24097977.907    -6468672.152 8  -5020995.80245  24097977.358    24097993.7694
 02  1 27  0 42  0.0000000  0  7 23 24 06 05 10 30 17
  23036638.393    -6843756.382 8  -5315080.49646  23036637.878    23036652.6424
  22759730.404   -14883348.226 8 -11584591.49246  22759730.157    22759742.5244
  21890614.429   -19661028.706 8 -15306973.49047  21890614.263    21890625.3144
  21058136.750   -19496945.282 9 -15008435.57047  21058136.246    21058146.2394
  20753352.562   -26109761.571 9 -19541563.54747  20753351.824    20753361.7654
  20397621.860   -26370487.244 9 -20532050.30248  20397622.160    20397630.5604
  24082913.382    -6547835.963 8  -5082681.65945  24082912.897    24082929.2094
 02  1 27  0 42 30.0000000  0  7 23 24 06 05 10 30 17
  23017876.008    -6942352.080 8  -5391908.06046  23017875.527    23017890.2164
  22774410.146   -14806205.118 8 -11524480.01446  22774409.904    22774422.4694
  21878873.120   -19722729.134 8 -15355051.62447  21878872.962    21878884.0074
  21070988.284   -19429410.291 9 -14955810.95347  21070987.779    21070997.7744
  20751264.788   -26120732.747 9 -19550112.44647  20751264.029    20751273.9464
  20397985.546   -26368575.953 9 -20530560.95548  20397985.848    20397994.2694
  24067882.422    -6626823.605 8  -5144230.24145  24067881.882    24067898.1114
 02  1 27  0 43  0.0000000  0  7 23 24 06 05 10 30 17
  22999150.639    -7040753.401 8  -5468584.16346  22999150.170    22999164.8134
  22789101.298   -14729002.355 8 -11464322.06646  22789101.074    22789113.7644
  21867151.266   -19784327.299 8 -15403050.06847  21867151.107    21867162.1414
  21083922.336   -19361441.567 9 -14902848.36447  21083921.824    21083931.8394
  20749296.918   -26131073.764 9 -19558170.31047  20749296.161    20749306.0734
  20398462.466   -26366069.638 9 -20528607.95148  20398462.758    20398471.1944
  24052885.133    -6705634.231 8  -5205640.87645  24052884.605    24052900.7574
 02  1 27  0 43 30.0000000  0  7 23 24 06 05 10 30 17
  22980462.605    -7138958.439 8  -5545107.32746  22980462.127    22980476.7864
  22803803.435   -14651742.390 8 -11404119.53646  22803803.205    22803815.8864
  21855448.940   -19845822.951 8 -15450968.62947  21855448.788    21855459.7864
  21096938.327   -19293042.252 9 -14849550.25447  21096937.824    21096947.8334
  20747448.848   -26140785.105 9 -19565737.51747  20747448.081    20747457.9804
  20399052.461   -26362969.019 9 -20526191.85448  20399052.760    20399061.2184
  24037921.405    -6784268.469 8  -5266914.07045  24037920.904    24037936.9244
 02  1 27  0 44  0.0000000  0  7 23 24 06 05 10 30 17
  22961812.445    -7236964.702 8  -5621475.60646  22961811.989    22961826.5334
  22818516.197   -14574427.120 8 -11343873.92446  22818515.960    22818528.5354
  21843766.281   -19907215.389 9 -15498806.76447  21843766.146    21843777.1044
  21110035.850   -19224214.438 9 -14795918.24747  21110035.327    21110045.3534
  20745720.598   -26149866.707 9 -19572814.01647  20745719.837    20745729.7304
  20399755.581   -26359274.012 9 -20523312.60248  20399755.873    20399764.3304
  24022991.290    -6862725.874 8  -5328049.46945  24022990.760    24023006.7744
 02  1 27  0 44 30.0000000  0  7 23 24 06 05 10 30 17
  22943200.638    -7334769.517 8  -5697686.93046  22943200.174    22943214.6734
  22833239.243   -14497057.708 8 -11283586.11746  22833239.017    22833251.4474
  21832103.509   -19968503.236 8 -15546563.40847  21832103.369    21832114.2814
  21123214.576   -19154960.087 9 -14741953.87247  21123214.063    21123224.0964
  20744112.279   -26158318.091 9 -19579399.44247  20744111.520    20744121.4094
  20400571.830   -26354984.566 9 -20519970.15248  20400572.118    20400580.5644
  24008094.964    -6941005.760 8  -5389046.55845  24008094.432    24008110.3394
 02  1 27  0 45  0.0000000  0  7 23 24 06 05 10 30 17
  22924627.643    -7432370.382 8  -5773739.32346  22924627.201    22924641.6274
  22847972.240   -14419635.479 8 -11223257.15946  22847972.028    22847984.3904
  21820460.838   -20029685.562 8 -15594237.82047  21820460.700    21820471.5674
  21136474.034   -19085281.306 9 -14687658.77847  21136473.504    21136483.5634
  20742623.891   -26166139.262 9 -19585493.78647  20742623.141    20742633.0214
  20401501.142   -26350100.863 9 -20516164.64248  20401501.444    20401509.8634
  23993232.403    -7019108.009 8  -5449905.22745  23993231.872    23993247.7334
 02  1 27  0 45 30.0000000  0  7 23 24 06 05 10 30 17
  22906094.108    -7529763.822 8  -5849630.09846  22906093.661    22906108.0474
  22862715.010   -14342161.424 8 -11162887.81446  22862714.802    22862727.2584
  21808838.560   -20090760.665 8 -15641828.68447  21808838.415    21808849.2434
  21149814.001   -19015179.501 9 -14633034.05547  21149813.479    21149823.5384
  20741255.584   -26173329.400 9 -19591096.42447  20741254.838    20741264.6854
  20402543.721   -26344622.023 9 -20511895.39448  20402544.013    20402552.4194
  23978403.830    -7097031.564 8  -5510624.67845  23978403.337    23978419.1824
 02  1 27  0 46  0.0000000  0  7 23 24 06 05 10 30 17
  22887600.427    -7626947.900 8  -5925357.73146  22887599.965    22887614.2724
  22877467.214   -14264637.602 8 -11102479.69346  22877467.010    22877479.6434
  21797236.713   -20151728.161 8 -15689335.69147  21797236.577    21797247.3724
  21163233.929   -18944657.508 9 -14578081.90947  21163233.398    21163243.4794
  20740007.364   -26179888.698 9 -19596207.49747  20740006.612    20740016.4434
  20403699.399   -26338548.779 9 -20507162.97548  20403699.683    20403708.0864
  23963609.268    -7174776.569 8  -5571205.01145  23963608.730    23963624.5784
 02  1 27  0 46 30.0000000  0  7 23 24 06 05 10 30 17
  22869147.206    -7723919.213 8  -6000919.57746  22869146.710    22869160.9784
  22892228.771   -14187064.730 8 -11042033.34346  22892228.550    22892241.3794
  21785655.761   -20212585.957 8 -15736757.22647  21785655.615    21785666.3874
  21176733.605   -18873716.542 9 -14522803.29247  21176733.083    21176743.1634
  20738879.286   -26185816.434 9 -19600826.44847  20738878.543    20738888.3404
  20404968.340   -26331880.510 9 -20501966.90048  20404968.624    20404976.9994
  23948848.867    -7252341.840 8  -5631645.30645  23948848.338    23948864.1734
 02  1 27  0 47  0.0000000  0  7 23 24 06 05 10 30 17
  22850734.826    -7820675.907 8  -6076314.18546  22850734.326    22850748.6064
  22906999.418   -14109444.798 8 -10981550.33046  22906999.205    22907012.0794
  21774095.686   -20273333.912 8 -15784093.16147  21774095.538    21774106.2854
  21190312.411   -18802359.578 9 -14467200.51447  21190311.892    21190321.9764
  20737871.276   -26191113.293 9 -19604953.80947  20737870.521    20737880.3024
  20406350.356   -26324617.891 9 -20496307.69448  20406350.627    20406358.9914
  23934122.627    -7329728.026 8  -5691946.04345  23934122.073    23934137.9074
 02  1 27  0 47 30.0000000  0  7 23 24 06 05 10 30 17
  22832363.826    -7917214.914 8  -6151539.18046  22832363.364    22832377.6664
  22921778.774   -14031779.514 8 -10921031.98146  22921778.553    22921791.3824
  21762556.820   -20333970.590 8 -15831342.38747  21762556.666    21762567.4044
  21203970.046   -18730588.409 9 -14411274.98847  21203969.527    21203979.6334
  20736983.412   -26195778.924 9 -19608589.31347  20736982.656    20736992.4244
  20407845.443   -26316760.966 9 -20490185.39548  20407845.732    20407854.0764
  23919430.610    -7406934.325 8  -5752106.61145  23919430.043    23919445.9084
 02  1 27  0 48  0.0000000  0  7 23 24 06 05 10 30 17
  22814034.641    -8013534.315 8  -6226593.04346  22814034.193    22814048.4474
  22936566.465   -13954070.261 8 -10860479.37846  22936566.235    22936578.9884
  21751039.263   -20394495.256 8 -15878504.33547  21751039.109    21751049.8034
  21217706.037   -18658405.614 9 -14355028.70847  21217705.518    21217715.6494
  20736215.574   -26199813.699 9 -19611733.23847  20736214.807    20736224.5634
  20409453.566   -26308310.146 9 -20483600.31748  20409453.859    20409462.1964
  23904772.876    -7483960.684 8  -5812126.94846  23904772.291    23904788.1084
 02  1 27  0 48 30.0000000  0  7 23 24 06 05 10 30 17
  22795747.914    -8109630.582 8  -6301473.04346  22795747.473    22795761.7574
  22951362.401   -13876317.258 8 -10799892.67346  22951362.202    22951374.9064
  21739543.367   -20454905.919 8 -15925577.44547  21739543.228    21739553.8944
  21231520.092   -18585812.445 9 -14298462.66147  21231519.575    21231529.7294
  20735567.953   -26203216.798 9 -19614384.95347  20735567.176    20735576.9154
  20411174.840   -26299264.719 9 -20476551.90848  20411175.128    20411183.4684
  23890149.542    -7560806.017 8  -5872006.22546  23890149.004    23890164.7244
 02  1 27  0 49  0.0000000  0  7 23 24 06 05 10 30 17
  22777504.141    -8205501.331 8  -6376177.30746  22777503.673    22777517.9644
  22966166.160   -13798522.664 8 -10739273.56246  22966165.964    22966178.6984
  21728069.366   -20515201.646 8 -15972561.00347  21728069.231    21728079.8694
  21245411.743   -18512811.536 9 -14241578.89847  21245411.228    21245421.4144
  20735040.475   -26205988.532 9 -19616544.69847  20735039.701    20735049.4294
  20413009.131   -26289625.224 9 -20469040.59148  20413009.408    20413017.7474
  23875560.706    -7637470.293 8  -5931744.41846  23875560.164    23875575.8284
 02  1 27  0 49 30.0000000  0  7 23 24 06 05 10 30 17
  22759303.803    -8301143.947 8  -6450703.80946  22759303.333    22759317.5764
  22980977.635   -13720687.560 8 -10678622.87846  22980977.411    22980990.2424
  21716617.441   -20575381.444 8 -16019454.22547  21716617.299    21716627.9124
  21259380.589   -18439405.098 9 -14184379.13647  21259380.047    21259390.2684
  20734633.120   -26208128.933 9 -19618212.49947  20734632.343    20734642.0644
  20414956.479   -26279391.838 9 -20461066.50148  20414956.750    20414965.0884
  23861006.353    -7713953.212 8  -5991341.29346  23861005.840    23861021.3734
 02  1 27  0 50  0.0000000  0  7 23 24 06 05 10 30 17
  22741147.388    -8396555.673 8  -6525050.38846  22741146.912    22741161.1234
  22995796.547   -13642813.295 8 -10617941.67846  22995796.331    22995809.2344
  21705187.874   -20635443.799 8 -16066255.94247  21705187.731    21705198.3074
  21273426.245   -18365595.010 9 -14126864.84347  21273425.724    21273435.9454
  20734345.990   -26209637.663 9 -19619388.09147  20734345.212    20734354.9334
  20417016.802   -26268564.465 9 -20452629.57048  20417017.083    20417025.4204
  23846486.603    -7790254.066 8  -6050796.30245  23846486.102    23846501.5584
 02  1 27  0 50 30.0000000  0  7 23 24 06 05 10 30 17
  22723035.453    -8491733.961 8  -6599215.06946  22723034.981    22723049.1444
  23010622.775   -13564901.457 8 -10557231.20946  23010622.558    23010635.5174
  21693780.810   -20695387.731 8 -16112965.37847  21693780.668    21693791.2094
  21287548.246   -18291383.597 9 -14069037.83347  21287547.707    21287557.9664
  20734178.976   -26210515.161 9 -19620071.81647  20734178.197    20734187.8914
  20419190.112   -26257143.536 9 -20443730.12348  20419190.389    20419198.7274
  23832001.510    -7866372.754 8  -6110109.36845  23832001.040    23832016.4164
 02  1 27  0 51  0.0000000  0  7 23 24 06 05 10 30 17
  22704968.429    -8586676.051 8  -6673195.68646  22704967.968    22704982.0934
  23025455.996   -13486953.136 8 -10496492.31546  23025455.808    23025468.6974
  21682396.552   -20755212.004 8 -16159581.56947  21682396.400    21682406.9224
  21301746.236   -18216772.854 9 -14010899.65847  21301745.708    21301755.9904
  20734132.132   -26210761.286 9 -19620263.56547  20734131.350    20734141.0174
  20421476.361   -26245129.190 9 -20434368.27348  20421476.646    20421484.9974
  23817551.204    -7942308.758 8  -6169280.08645  23817550.763    23817566.0824
 02  1 27  0 51 30.0000000  0  7 23 24 06 05 10 30 17
  22686946.803    -8681379.596 8  -6746990.43546  22686946.344    22686960.4074
  23040295.788   -13408970.143 8 -10435726.39446  23040295.615    23040308.4764
  21671035.231   -20814915.584 8 -16206103.72347  21671035.065    21671045.5814
  21316019.689   -18141765.405 9 -13952452.36847  21316019.167    21316029.4744
  20734205.342   -26210376.613 9 -19619963.78047  20734204.559    20734214.2034
  20423875.373   -26232522.131 9 -20424544.57148  20423875.655    20423884.0184
  23803135.615    -8018062.082 8  -6228308.46345  23803135.203    23803150.5074
 02  1 27  0 52  0.0000000  0  7 23 24 06 05 10 30 17
  22668971.131    -8775841.620 8  -6820596.98046  22668970.658    22668984.6614
  23055142.088   -13330952.664 8 -10374933.60146  23055141.877    23055154.7774
  21659697.225   -20874496.680 8 -16252530.43747  21659697.064    21659707.5604
  21330368.321   -18066363.065 9 -13893697.36847  21330367.784    21330378.1304
  20734398.632   -26209360.674 9 -19619172.10247  20734397.845    20734407.4754
  20426387.263   -26219322.029 9 -20414258.76048  20426387.546    20426395.9044
  23788755.000    -8093631.872 8  -6287193.82545  23788754.598    23788769.8714
 02  1 27  0 52 30.0000000  0  7 23 24 06 05 10 30 17
  22651041.914    -8870059.590 8  -6894013.35746  22651041.441    22651055.3714
  23069994.506   -13252902.463 8 -10314115.29546  23069994.276    23070007.2344
  21648382.711   -20933954.429 8 -16298861.05047  21648382.547    21648393.0224
  21344791.663   -17990568.071 9 -13834636.40747  21344791.139    21344801.4884
  20734712.023   -26207713.687 9 -19617888.69447  20734711.238    20734720.8644
  20429011.927   -26205529.320 9 -20403511.17948  20429012.219    20429020.5504
  23774409.312    -8169017.990 8  -6345936.06745  23774408.890    23774424.1474
 02  1 27  0 53  0.0000000  0  7 23 24 06 05 10 30 17
  22633159.595    -8964030.971 8  -6967237.58146  22633159.130    22633172.9904
  23084852.858   -13174820.946 8 -10253272.59146  23084852.669    23084865.6094
  21637091.904   -20993287.603 8 -16345094.57547  21637091.753    21637102.1914
  21359289.283   -17914382.873 9 -13775271.39547  21359288.752    21359299.1084
  20735145.443   -26205435.896 9 -19616113.74547  20735144.658    20735154.2884
  20431749.240   -26191144.593 9 -20392302.28348  20431749.524    20431757.8594
  23760098.654    -8244220.251 8  -6404535.03546  23760098.237    23760113.4714
 02  1 27  0 53 30.0000000  0  7 23 24 06 05 10 30 17
  22615324.759    -9057752.664 8  -7040267.24846  22615324.287    22615338.0954
  23099717.018   -13096709.023 8 -10192406.19946  23099716.829    23099729.7664
  21625825.114   -21052494.455 9 -16391229.67947  21625824.973    21625835.3694
  21373860.835   -17837809.111 9 -13715603.60847  21373860.304    21373870.6494
  20735698.884   -26202527.369 9 -19613847.31547  20735698.095    20735707.7374
  20434599.262   -26176167.641 9 -20380631.91348  20434599.551    20434607.8654
  23745823.161    -8319237.675 8  -6462989.98546  23745822.759    23745837.9394
 02  1 27  0 54  0.0000000  0  7 23 24 06 05 10 30 17
  22597537.808    -9151222.898 8  -7113100.97546  22597537.331    22597551.0934
  23114586.789   -13018568.208 8 -10131517.29546  23114586.585    23114599.4284
  21614582.459   -21111574.571 9 -16437266.02547  21614582.316    21614592.6924
  21388505.778   -17760849.764 9 -13655635.37047  21388505.246    21388515.5724
  20736372.143   -26198989.137 9 -19611090.21047  20736371.359    20736381.0054
  20437561.739   -26160599.626 9 -20368500.98148  20437562.030    20437570.3344
  23731582.825    -8394070.805 8  -6521301.33646  23731582.388    23731597.5334
 02  1 27  0 54 30.0000000  0  7 23 24 06 05 10 30 17
  22579799.225    -9244438.927 8  -7185736.62746  22579798.741    22579812.4494
  23129461.870   -12940399.914 8 -10070606.98246  23129461.627    23129474.4584
  21603364.240   -21170526.325 9 -16483202.35947  21603364.092    21603374.4244
  21403223.687   -17683506.947 9 -13595368.32747  21403223.157    21403233.4744
  20737165.222   -26194821.182 9 -19607842.40447  20737164.430    20737174.0974
  20440636.649   -26144440.701 9 -20355909.59848  20440636.942    20440645.2554
  23717377.597    -8468719.190 8  -6579468.73046  23717377.172    23717392.2304
 02  1 27  0 55  0.0000000  0  7 23 24 06 05 10 30 17
  22562109.490    -9337398.263 8  -7258172.25346  22562109.007    22562122.6874
  23144341.857   -12862205.518 8 -10009676.32646  23144341.646    23144354.4574
  21592170.640   -21229348.595 9 -16529037.78947  21592170.492    21592180.7824
  21418014.137   -17605783.001 9 -13534804.29647  21418013.628    21418023.9374
  20738078.073   -26190023.926 9 -19604104.23347  20738077.288    20738086.9574
  20443823.897   -26127691.567 9 -20342858.31548  20443824.185    20443832.5144
  23703207.572    -8543182.602 8  -6637491.99146  23703207.152    23703222.1654
 02  1 27  0 55 30.0000000  0  7 23 24 06 05 10 30 17
  22544469.122    -9430097.998 8  -7330405.58446  22544468.640    22544482.2454
  23159226.511   -12783986.115 8  -9948726.18246  23159226.271    23159239.2334
  21581002.051   -21288039.747 9 -16574771.04547  21581001.893    21581012.1404
  21432876.693   -17527680.060 9 -13473944.94447  21432876.178    21432886.5034
  20739110.668   -26184597.358 9 -19599875.67747  20739109.883    20739119.5754
  20447123.438   -26110352.212 9 -20329347.11748  20447123.731    20447132.0614
  23689072.857    -8617460.398 8  -6695370.61646  23689072.437    23689087.4674
 02  1 27  0 56  0.0000000  0  7 23 24 06 05 10 30 17
  22526878.766    -9522535.180 8  -7402434.34246  22526878.267    22526891.8124
  23174115.774   -12705742.427 8  -9887757.10146  23174115.504    23174128.6914
  21569858.656   -21346598.280 9 -16620400.97347  21569858.498    21569868.7034
  21447811.001   -17449200.023 9 -13412791.75847  21447810.470    21447820.8454
  20740263.020   -26178541.400 9 -19595156.69447  20740262.235    20740271.9424
  20450535.234   -26092422.928 9 -20315376.24048  20450535.519    20450543.8564
  23674973.577    -8691551.928 8  -6753104.10546  23674973.147    23674988.1404
 02  1 27  0 56 30.0000000  0  7 23 24 06 05 10 30 17
  22509338.820    -9614707.205 8  -7474256.47746  22509338.340    22509351.8254
  23189009.418   -12627475.375 8  -9826769.81546  23189009.223    23189022.4784
  21558740.752   -21405022.830 9 -16665926.49347  21558740.595    21558750.7544
  21462816.671   -17370345.081 9 -13351346.43347  21462816.132    21462826.5494
  20741535.062   -26171856.518 9 -19589947.63147  20741534.285    20741543.9724
  20454059.239   -26073904.227 9 -20300946.07348  20454059.519    20454067.8604
  23660909.741    -8765456.852 8  -6810692.16346  23660909.294    23660924.2474
 02  1 27  0 57  0.0000000  0  7 23 24 06 05 10 30 17
  22491849.763    -9706611.853 8  -7545870.26046  22491849.277    22491862.7444
  23203907.264   -12549186.684 8  -9765765.66746  23203907.079    23203920.3674
  21547648.509   -21463312.551 9 -16711346.95547  21547648.344    21547658.4804
  21477893.114   -17291118.084 9 -13289611.19747  21477892.584    21477903.0434
  20742926.621   -26164543.593 9 -19584249.19047  20742925.841    20742935.5314
  20457695.245   -26054796.888 9 -20286057.22948  20457695.542    20457703.8644
  23646881.397    -8839175.365 8  -6868134.97346  23646880.945    23646895.8944
 02  1 27  0 57 30.0000000  0  7 23 24 06 05 10 30 17
  22474412.092    -9798246.719 8  -7617273.82546  22474411.619    22474424.9984
  23218809.110   -12470877.375 8  -9704745.46346  23218808.912    23218822.0944
  21536582.168   -21521466.025 9 -16756661.24047  21536582.015    21536592.1194
  21493039.909   -17211521.291 9 -13227587.81047  21493039.398    21493049.8734
  20744437.581   -26156603.100 9 -19578061.72947  20744436.815    20744446.5054
  20461443.137   -26035101.478 9 -20270710.14248  20461443.418    20461451.7454
  23632888.624    -8912707.039 8  -6925432.16246  23632888.202    23632903.0584
 02  1 27  0 58  0.0000000  0  7 23 24 06 05 10 30 17
  22457026.176    -9889609.511 8  -7688465.38046  22457025.745    22457039.0174
  23233714.691   -12392548.980 8  -9643710.37446  23233714.483    23233727.4154
  21525541.960   -21579482.308 9 -16801868.62647  21525541.798    21525551.8994
  21508256.593   -17131557.459 9 -13165278.41847  21508256.094    21508266.5944
  20746067.827   -26148035.742 9 -19571385.80147  20746067.057    20746076.7324
  20465302.725   -26014819.129 9 -20254905.70448  20465303.016    20465311.3224
  23618931.310    -8986052.228 8  -6982584.03646  23618930.915    23618945.7214
 02  1 27  0 58 30.0000000  0  7 23 24 06 05 10 30 17
  22439692.567    -9980697.310 8  -7759442.65046  22439692.135    22439705.3314
  23248623.675   -12314202.621 8  -9582661.29046  23248623.452    23248636.2554
  21514528.167   -21637359.736 9 -16846967.81447  21514528.002    21514538.0844
  21523542.747   -17051228.535 9 -13102684.53447  21523542.232    21523552.7804
  20747817.333   -26138841.764 9 -19564221.60247  20747816.566    20747826.2324
  20469273.978   -25993950.135 9 -20238644.14248  20469274.276    20469282.5874
  23605009.613    -9059210.259 8  -7039590.06946  23605009.212    23605023.9504
 02  1 27  0 59  0.0000000  0  7 23 24 06 05 10 30 17
  22422411.758   -10071507.753 8  -7830203.80146  22422411.318    22422424.4804
  23263535.758   -12235839.296 8  -9521598.99946  23263535.510    23263548.2954
  21503541.009   -21695097.152 9 -16891957.89847  21503540.849    21503550.8954
  21538897.906   -16970536.863 9 -13039807.98547  21538897.401    21538907.9564
  20749685.939   -26129021.859 9 -19556569.66347  20749685.182    20749694.8304
  20473356.727   -25972495.007 9 -20221925.85048  20473357.020    20473365.3304
  23591123.610    -9132180.897 8  -7096450.07046  23591123.146    23591137.8744
 02  1 27  0 59 30.0000000  0  7 23 24 06 05 10 30 17
  22405184.298   -10162037.750 8  -7900746.42146  22405183.864    22405196.9484
  23278450.800   -12157459.963 8  -9460524.21746  23278450.554    23278463.4874
  21492580.866   -21752692.731 9 -16936837.46847  21492580.716    21492590.7144
  21554321.738   -16889484.394 9 -12976650.30347  21554321.214    21554331.7914
  20751673.699   -26118575.959 9 -19548429.94147  20751672.946    20751682.5694
  20477550.927   -25950454.192 9 -20204751.18148  20477551.216    20477559.5384
  23577273.401    -9204963.404 8  -7153163.48646  23577272.914    23577287.5934
 02  1 27  1  0  0.0000000  0  7 23 24 06 05 10 30 17
  22388010.677   -10252284.934 8  -7971068.66446  22388010.213    22388023.2524
  23293368.617   -12079065.826 8  -9399437.90146  23293368.387    23293381.4954
  21481647.941   -21810145.249 9 -16981605.54947  21481647.765    21481657.7744
  21569813.709   -16808073.804 9 -12913213.56147  21569813.189    21569823.7644
  20753780.387   -26107505.021 9 -19539803.17447  20753779.627    20753789.2214
  20481856.457   -25927828.428 9 -20187120.70748  20481856.746    20481865.0784
  23563458.938    -9277557.995 8  -7209730.46946  23563458.427    23563473.0654
 02  1 27  1  0 30.0000000  0  7 23 24 06 05 10 30 17
  22370891.403   -10342246.527 8  -8041168.36846  22370890.935    22370903.9124
  23308289.230   -12000657.601 8  -9338340.60246  23308289.027    23308302.1624
  21470742.572   -21867453.046 9 -17026260.86447  21470742.394    21470752.3664
  21585373.470   -16726307.160 9 -12849499.37547  21585372.947    21585383.5224
  20756005.955   -26095809.497 9 -19530689.71947  20756005.187    20756014.7374
  20486273.193   -25904618.209 9 -20169034.81248  20486273.488    20486281.8284
  23549680.394    -9349963.911 8  -7266150.45146  23549679.896    23549694.4874
 02  1 27  1  1  0.0000000  0  7 23 24 06 05 10 30 17
  22353826.725   -10431921.002 8  -8111044.34546  22353826.249    22353839.1924
  23323212.288   -11922237.112 8  -9277233.74246  23323212.045    23323225.1764
  21459864.824   -21924615.617 9 -17070803.01347  21459864.635    21459874.5764
  21601000.330   -16644187.775 9 -12785510.32547  21600999.789    21601010.3844
  20758350.122   -26083490.749 9 -19521090.62847  20758349.354    20758358.8464
  20490800.858   -25880825.166 9 -20150494.76248  20490801.134    20490809.4984
  23535937.593    -9422181.895 8  -7322423.98946  23535937.070    23535951.6214
 02  1 27  1  1 30.0000000  0  7 23 24 06 05 10 30 17
  22336817.273   -10521305.419 8  -8180694.31046  22336816.774    22336829.6614
  23338137.518   -11843805.393 8  -9216118.13646  23338137.233    23338150.2774
  21449015.035   -21981631.231 9 -17115230.64447  21449014.866    21449024.7784
  21616693.960   -16561717.580 9 -12721247.91747  21616693.424    21616704.0464
  20760812.825   -26070549.073 9 -19511006.14647  20760812.059    20760821.4844
  20495439.305   -25856449.828 9 -20131500.98148  20495439.592    20495447.9614
  23522230.676    -9494211.332 8  -7378550.61846  23522230.149    23522244.6824
 02  1 27  1  2  0.0000000  0  7 23 24 06 05 10 30 17
  22319863.451   -10610397.429 8  -8250116.42946  22319862.951    22319875.7834
  23353064.556   -11765363.568 8  -9154994.65846  23353064.310    23353077.2684
  21438193.451   -22038498.611 9 -17159542.77047  21438193.288    21438203.1814
  21632453.848   -16478899.247 9 -12656714.23247  21632453.304    21632463.9354
  20763393.893   -26056985.450 9 -19500437.02747  20763393.112    20763402.4964
  20500188.471   -25831492.796 9 -20112053.93348  20500188.745    20500197.1034
  23508559.654    -9566052.154 8  -7434530.28346  23508559.144    23508573.5744
 02  1 27  1  2 30.0000000  0  7 23 24 06 05 10 30 17
  22302965.852   -10699194.029 8  -8319308.36946  22302965.349    22302978.1324
  23367993.319   -11686912.463 8  -9093863.95946  23367993.086    23368006.0034
  21427400.421   -22095216.017 9 -17203738.03447  21427400.260    21427410.1214
  21648279.602   -16395734.751 8 -12591910.81647  21648279.058    21648289.7174
  20766093.307   -26042799.852 9 -19489383.26047  20766092.513    20766101.8554
  20505048.236   -25805954.610 9 -20092154.04348  20505048.510    20505056.8734
  23494924.692    -9637703.600 8  -7490362.38646  23494924.203    23494938.5894
 02  1 27  1  3  0.0000000  0  7 23 24 06 05 10 30 17
  22286124.919   -10787692.727 8  -8388268.17946  22286124.427    22286137.1264
  23382923.657   -11608452.734 8  -9032726.51546  23382923.428    23382936.3584
  21416636.179   -22151781.944 9 -17247815.26247  21416636.021    21416645.8454
  21664170.819   -16312226.303 8 -12526839.38047  21664170.277    21664180.9484
  20768910.913   -26027993.121 9 -19477845.49347  20768910.113    20768919.4434
  20510018.442   -25779836.050 9 -20071801.90848  20510018.729    20510027.0774
  23481325.781    -9709165.500 8  -7546046.79246  23481325.317    23481339.6464
 02  1 27  1  3 30.0000000  0  7 23 24 06 05 10 30 17
  22269341.160   -10875891.070 8  -8456993.94746  22269340.677    22269353.3194
  23397855.346   -11529985.545 8  -8971583.26046  23397855.142    23397868.1844
  21405901.080   -22208194.856 9 -17291773.25647  21405900.923    21405910.7044
  21680126.993   -16228376.487 8 -12461501.94347  21680126.460    21680137.1614
  20771846.539   -26012566.010 9 -19465824.31547  20771845.760    20771855.0594
  20515098.941   -25753137.762 9 -20050998.03648  20515099.212    20515107.5634
  23467763.003    -9780437.625 8  -7601583.33346  23467762.526    23467776.8114
 02  1 27  1  4  0.0000000  0  7 23 24 06 05 10 30 17
  22252614.956   -10963786.961 8  -8525484.04846  22252614.476    22252627.0664
  23412788.297   -11451512.252 8  -8910435.26446  23412788.084    23412801.1694
  21395195.259   -22264453.808 9 -17335611.28447  21395195.095    21395204.8794
  21696147.575   -16144188.118 8 -12395900.69547  21696147.030    21696157.7924
  20774899.983   -25996519.909 9 -19453320.81247  20774899.197    20774908.4994
  20520289.494   -25725861.328 9 -20029743.66648  20520289.769    20520298.0904
  23454236.332    -9851520.226 8  -7656972.19246  23454235.840    23454250.0434
 02  1 27  1  4 30.0000000  0  7 23 24 06 05 10 30 17
  22235946.794   -11051377.919 8  -8593736.54746  22235946.275    22235958.8134
  23427722.286   -11373034.313 8  -8849283.63246  23427722.066    23427735.1174
  21384518.976   -22320557.531 9 -17379328.34247  21384518.816    21384528.5734
  21712232.123   -16059663.630 8 -12330037.53647  21712231.585    21712242.3804
  20778071.003   -25979855.729 9 -19440335.68847  20778070.231    20778079.5184
  20525589.886   -25698007.549 9 -20008039.41748  20525590.170    20525598.4814
  23440745.734    -9922413.299 8  -7712213.36546  23440745.240    23440759.3834
 02  1 27  1  5  0.0000000  0  7 23 24 06 05 10 30 17
  22219337.155   -11138661.310 8  -8661749.38646  22219336.664    22219349.1114
  23442656.980   -11294552.624 8  -8788129.09046  23442656.746    23442669.7014
  21373872.515   -22376504.537 9 -17422923.28747  21373872.346    21373882.0734
  21728380.170   -15974805.497 8 -12263914.39047  21728379.616    21728390.4494
  20781359.604   -25962573.861 9 -19426869.25047  20781358.835    20781368.1184
  20530999.932   -25669577.477 9 -19985886.10948  20531000.214    20531008.5194
  23427291.238    -9993116.412 8  -7767306.52746  23427290.744    23427304.7874
 02  1 27  1  5 30.0000000  0  7 23 24 06 05 10 30 17
  22202786.460   -11225634.973 8  -8729520.89147  22202785.982    22202798.3564
  23457592.147   -11216068.011 8  -8726972.26146  23457591.897    23457604.9074
  21363256.142   -22432293.554 9 -17466395.13347  21363255.966    21363265.6684
  21744591.247   -15889616.125 8 -12197533.13847  21744590.683    21744601.5254
  20784765.480   -25944675.609 9 -19412922.51747  20784764.707    20784774.0044
  20536519.505   -25640572.041 9 -19963284.46848  20536519.783    20536528.0784
  23413872.944   -10063629.457 8  -7822251.59446  23413872.404    23413886.4364
 02  1 27  1  6  0.0000000  0  7 23 24 06 05 10 30 17
  22186295.217   -11312296.306 8  -8797049.01447  22186294.748    22186307.0314
  23472527.552   -11137581.641 8  -8665814.05146  23472527.298    23472540.3824
  21352670.171   -22487922.809 9 -17509742.48947  21352669.994    21352679.6354
  21760864.922   -15804097.838 8 -12130895.58947  21760864.357    21760875.2024
  20788288.509   -25926161.698 9 -19398496.04747  20788287.738    20788297.0374
  20542148.376   -25610992.102 9 -19940235.15748  20542148.656    20542156.9514
  23400490.864   -10133952.149 8  -7877048.32346  23400490.318    23400504.2614
 02  1 27  1  6 30.0000000  0  7 23 24 06 05 10 30 17
  22169864.017   -11398642.228 8  -8864331.37547  22169863.523    22169875.7424
  23487463.165   -11059093.685 8  -8604654.61646  23487462.959    23487476.1364
  21342114.984   -22543390.260 9 -17552963.76447  21342114.802    21342124.4074
  21777200.760   -15718252.737 9 -12064003.38247  21777200.198    21777211.0474
  20791928.580   -25907032.598 9 -19383590.21647  20791927.798    20791937.1114
  20547886.531   -25580837.935 9 -19916738.40248  20547886.824    20547895.0944
  23387145.112   -10204083.790 8  -7931696.20146  23387144.577    23387158.4864
 02  1 27  1  7  0.0000000  0  8 23 24 06 05 10 30 17 15
  22153492.496   -11484674.411 8  -8931369.26447  22153491.997    22153504.1304
  23502398.075   -10980609.570 8  -8543498.17046  23502397.858    23502411.1334
  21331590.060   -22598698.576 9 -17596061.03747  21331589.898    21331599.4684
  21793597.553   -15632087.367 8 -11996861.61447  21793596.987    21793607.8364
  20795684.842   -25887293.049 9 -19368208.71047  20795684.078    20795693.3924
  20553732.946   -25550114.814 9 -19892798.30448  20553733.237    20553741.5224
  23373834.997   -10274028.275 8  -7986198.24146  23373834.452    23373848.3224
  24719327.537    -5112683.808 8  -3572930.30645  24719326.777    24719346.3554
 02  1 27  1  7 30.0000000  0  8 23 24 06 05 10 30 17 15
  22137180.960   -11570391.378 8  -8998161.53447  22137180.469    22137192.5224
  23517332.204   -10902130.535 8  -8482345.67946  23517331.990    23517345.1804
  21321095.565   -22653847.096 9 -17639033.78847  21321095.403    21321104.9354
  21810054.664   -15545605.098 8 -11929472.91647  21810054.104    21810064.9654
  20799556.882   -25866945.054 9 -19352353.09347  20799556.117    20799565.4534
  20559687.252   -25518824.567 9 -19868416.28848  20559687.545    20559695.8144
  23360560.347   -10343786.373 8  -8040555.04346  23360559.781    23360573.6374
  24702791.498    -5199580.127 8  -3640641.41445  24702790.675    24702810.0944
 02  1 27  1  8  0.0000000  0  8 23 24 06 05 10 30 17 15
  22120931.292   -11655783.216 8  -9064700.45147  22120930.799    22120942.8024
  23532266.666   -10823650.168 8  -8421192.16246  23532266.411    23532279.4634
  21310633.169   -22708826.902 9 -17681875.06947  21310632.996    21310642.4944
  21826573.009   -15458800.774 8 -11861833.26247  21826572.448    21826583.3184
  20803545.947   -25845982.114 9 -19336018.29947  20803545.176    20803554.5194
  20565750.741   -25486960.774 9 -19843587.34748  20565751.027    20565759.3174
  23347322.611   -10413350.384 8  -8094760.61646  23347322.075    23347335.8704
  24686282.295    -5286335.259 8  -3708242.50045  24686281.463    24686300.7984
 02  1 27  1  8 30.0000000  0  8 23 24 06 05 10 30 17 15
  22104743.716   -11740848.745 8  -9130985.10147  22104743.225    22104755.1674
  23547200.991   -10745170.825 8  -8360039.43646  23547200.732    23547213.6174
  21300202.957   -22763637.672 9 -17724584.63747  21300202.787    21300212.2464
  21843151.960   -15371678.163 8 -11793945.59447  21843151.391    21843162.2814
  20807651.585   -25824406.529 9 -19319206.11847  20807650.803    20807660.1654
  20571922.923   -25454525.615 9 -19818313.18548  20571923.224    20571931.4894
  23334121.586   -10482721.454 8  -8148815.84546  23334121.065    23334134.8304
  24669799.765    -5372950.011 7  -3775734.21545  24669798.954    24669818.2464
 02  1 27  1  9  0.0000000  0  8 23 24 06 05 10 30 17 15
  22088618.570   -11825586.334 8  -9197014.21047  22088618.068    22088629.9934
  23562134.596   -10666694.490 8  -8298889.05446  23562134.344    23562147.1594
  21289804.975   -22818278.856 9 -17767162.05947  21289804.815    21289814.2594
  21859790.801   -15284240.567 8 -11725812.48147  21859790.242    21859801.1374
  20811873.446   -25802220.184 9 -19301918.02547  20811872.670    20811882.0284
  20578203.423   -25421521.313 9 -19792595.53948  20578203.716    20578211.9934
  23320957.201   -10551900.058 8  -8202721.10546  23320956.698    23320970.4354
  24653343.884    -5459424.681 7  -3843116.75945  24653343.167    24653362.3374
 02  1 27  1  9 30.0000000  0  8 23 24 06 05 10 30 17 15
  22072556.148   -11909994.093 8  -9262786.31247  22072555.658    22072567.5594
  23577067.355   -10588222.139 8  -8237741.76046  23577067.116    23577079.9714
  21279439.467   -22872749.462 9 -17809606.56747  21279439.301    21279448.7294
  21876488.978   -15196491.055 8 -11657436.32147  21876488.432    21876499.3694
  20816211.267   -25779424.609 9 -19284155.21047  20816210.497    20816219.8394
  20584591.942   -25387949.389 9 -19766435.59148  20584592.233    20584600.5144
  23307829.346   -10620886.607 8  -8256476.70846  23307828.847    23307842.5644
  24636914.635    -5545759.152 7  -3910390.06745  24636914.010    24636933.1874
 02  1 27  1 10  0.0000000  0  8 23 24 06 05 10 30 17 15
  22056556.962   -11994069.692 8  -9328299.57747  22056556.454    22056568.3424
  23591998.945   -10509754.959 8  -8176598.49745  23591998.700    23592011.7964
  21269106.681   -22927047.933 9 -17851916.94347  21269106.524    21269115.9274
  21893246.050   -15108432.226 8 -11588819.12947  21893245.501    21893256.4934
  20820664.816   -25756020.915 9 -19265918.52547  20820664.044    20820673.3794
  20591088.238   -25353811.065 9 -19739834.28248  20591088.536    20591096.8104
  23294738.070   -10689681.208 8  -8310082.74546  23294737.539    23294751.2584
  24620512.157    -5631952.987 7  -3977553.79545  24620511.525    24620530.6964
 02  1 27  1 10 30.0000000  0  8 23 24 06 05 10 30 17 15
  22040621.416   -12077810.864 8  -9393552.25147  22040620.926    22040632.7784
  23606929.364   -10431293.927 8  -8115460.03045  23606929.144    23606942.3854
  21258806.973   -22981172.946 9 -17894092.14447  21258806.804    21258816.1944
  21910061.478   -15020066.798 8 -11519963.02847  21910060.930    21910071.9594
  20825233.834   -25732010.365 9 -19247208.97347  20825233.061    20825242.3714
  20597692.072   -25319107.683 9 -19712792.67748  20597692.354    20597700.6374
  23281683.359   -10758283.663 8  -8363539.04246  23281682.817    23281696.5244
  24604136.568    -5718005.994 7  -4044607.79845  24604135.832    24604155.0954
 02  1 27  1 11  0.0000000  0  8 23 24 06 05 10 30 17 15
  22024749.902   -12161215.529 8  -9458542.71947  22024749.394    22024761.2244
  23621858.447   -10352840.599 8  -8054327.55445  23621858.238    23621871.5184
  21248540.456   -23035123.284 9 -17936131.23347  21248540.282    21248549.6474
  21926934.696   -14931397.650 8 -11450870.27347  21926934.159    21926945.2004
  20829918.090   -25707394.354 9 -19228027.63847  20829917.298    20829926.6044
  20604403.141   -25283840.694 9 -19685311.90148  20604403.438    20604411.6894
  23268665.160   -10826694.325 8  -8416845.89546  23268664.639    23268678.2934
  24587787.804    -5803917.845 7  -4111551.77745  24587787.140    24587806.2114
 02  1 27  1 11 30.0000000  0  8 23 24 06 05 10 30 17 15
  22008942.782   -12244281.694 8  -9523269.40447  22008942.267    22008954.0674
  23636786.047   -10274395.685 8  -7993201.66245  23636785.823    23636799.0414
  21238307.454   -23088897.670 9 -17978033.22247  21238307.286    21238316.6214
  21943865.199   -14842427.635 8 -11381543.07047  21943864.639    21943875.7254
  20834717.267   -25682174.560 9 -19208375.81947  20834716.486    20834725.7694
  20611221.195   -25248011.571 9 -19657393.09348  20611221.478    20611229.7594
  23255683.353   -10894913.456 8  -8470003.49846  23255682.836    23255696.4184
  24571466.005    -5889688.476 7  -4178385.71845  24571465.159    24571484.2414
 02  1 27  1 12  0.0000000  0  8 23 24 06 05 10 30 17 15
  21993200.467   -12327007.363 8  -9587730.77347  21993199.955    21993211.7234
  23651711.922   -10195960.496 8  -7932083.33845  23651711.650    23651724.7674
  21228108.141   -23142494.824 9 -18019797.10947  21228107.987    21228117.3024
  21960852.425   -14753159.401 8 -11311983.48747  21960851.868    21960862.9694
  20839631.040   -25656352.471 9 -19188254.67747  20839630.254    20839639.5134
  20618145.918   -25211621.954 9 -19629037.53848  20618146.194    20618154.4724
  23242738.002   -10962941.129 8  -8523011.90546  23242737.478    23242751.0284
  24555171.151    -5975317.692 7  -4245109.46445  24555170.239    24555189.2504
 02  1 27  1 12 30.0000000  0  8 23 24 06 05 10 30 17 15
  21977523.405   -12409390.002 8  -9651924.84147  21977522.888    21977534.6384
  23666635.755   -10117535.880 8  -7870973.25845  23666635.498    23666648.5694
  21217942.858   -23195913.053 9 -18061421.57447  21217942.704    21217952.0204
  21977895.963   -14663595.387 8 -11242193.43147  21977895.410    21977906.5054
  20844659.182   -25629929.293 9 -19167665.15547  20844658.383    20844667.6444
  20625177.052   -25174672.994 9 -19600246.13348  20625177.337    20625185.6334
  23229829.151   -11030776.945 8  -8575870.80846  23229828.635    23229842.1424
  24538903.281    -6060805.014 7  -4311722.64645  24538902.442    24538921.2904
 02  1 27  1 13  0.0000000  0  8 23 24 06 05 10 30 17 15
  21961912.031   -12491427.439 8  -9715849.92547  21961911.515    21961923.2264
  23681557.323   -10039122.509 8  -7809871.93745  23681557.109    23681570.1754
  21207811.915   -23249151.049 9 -18102905.59347  21207811.758    21207821.0634
  21994995.238   -14573738.375 8 -11172175.05847  21994994.682    21995005.7764
  20849801.503   -25602906.073 9 -19146608.06447  20849800.703    20849809.9494
  20632314.350   -25137166.148 9 -19571020.00748  20632314.626    20632322.9544
  23216956.812   -11098421.123 8  -8628580.37946  23216956.256    23216969.7404
  24522662.549    -6146149.854 7  -4378224.79345  24522661.805    24522680.4364
 02  1 27  1 13 30.0000000  0  8 23 24 06 05 10 30 17 15
  21946366.857   -12573117.061 8  -9779503.98447  21946366.337    21946378.0304
  23696476.492    -9960721.203 8  -7748780.01145  23696476.251    23696489.5074
  21197715.661   -23302206.748 9 -18144247.56047  21197715.497    21197724.7874
  22012149.856   -14483590.504 8 -11101930.05347  22012149.316    22012160.3894
  20855057.796   -25575283.931 9 -19125084.28047  20855057.005    20855066.2224
  20639557.661   -25099102.244 9 -19541359.81348  20639557.941    20639566.2684
  23204120.968   -11165873.171 8  -8681140.23546  23204120.432    23204133.8724
  24506449.113    -6231351.029 7  -4444615.00945  24506448.380    24506466.8944
 02  1 27  1 14  0.0000000  0  8 23 24 06 05 10 30 17 15
  21930888.356   -12654456.302 8  -9842885.02047  21930887.842    21930899.4684
  23711393.251    -9882332.418 8  -7687697.83345  23711393.015    23711406.3594
  21187654.398   -23355078.409 9 -18185446.12247  21187654.232    21187663.4954
  22029359.450   -14393153.971 8 -11031460.11447  22029358.892    22029369.9884
  20860427.869   -25547063.865 9 -19103094.57447  20860427.087    20860436.2714
  20646906.734   -25060482.441 9 -19511266.45148  20646907.014    20646915.3344
  23191321.779   -11233132.759 8  -8733550.10746  23191321.243    23191334.6054
  24490263.080    -6316408.280 7  -4510893.08445  24490262.345    24490280.6744
 02  1 27  1 14 30.0000000  0  8 23 24 06 05 10 30 17 15
  21915476.979   -12735442.923 8  -9905991.27947  21915476.482    21915488.0504
  23726307.449    -9803957.225 8  -7626626.25645  23726307.240    23726320.5734
  21177628.459   -23407764.670 9 -18226500.21747  21177628.283    21177637.5274
  22046623.373   -14302431.713 8 -10960767.52247  22046622.831    22046633.9174
  20865911.485   -25518247.220 9 -19080639.99547  20865910.701    20865919.8574
  20654361.340   -25021308.317 9 -19480741.15148  20654361.623    20654369.9274
  23178559.190   -11300199.882 8  -8785810.01246  23178558.638    23178571.9694
  24474104.474    -6401321.292 7  -4577058.76945  24474103.771    24474122.0254
 02  1 27  1 15  0.0000000  0  8 23 24 06 05 10 30 17 15
  21900133.028   -12816075.195 8  -9968821.43447  21900132.524    21900144.0264
  23741218.862    -9725597.026 8  -7565566.36045  23741218.616    23741231.9974
  21167637.980   -23460264.341 9 -18267408.92647  21167637.810    21167647.0084
  22063941.108   -14211426.782 8 -10889854.67747  22063940.542    22063951.6554
  20871508.259   -25488835.909 9 -19057722.04147  20871507.466    20871516.6024
  20661921.095   -24981581.569 9 -19449785.23848  20661921.369    20661929.6884
  23165833.162   -11367074.972 8  -8837920.27446  23165832.598    23165845.8624
  24457973.372    -6486089.758 7  -4643111.83745  24457972.688    24457990.8134
 02  1 27  1 15 30.0000000  0  8 23 24 06 05 10 30 17 15
  21884857.032   -12896350.616 8 -10031373.51947  21884856.519    21884867.9584
  23756127.409    -9647252.302 8  -7504518.53345  23756127.165    23756140.4814
  21157683.378   -23512575.738 9 -18308170.92747  21157683.211    21157692.3764
  22081312.197   -14120141.455 8 -10818723.34147  22081311.636    22081322.7924
  20877217.949   -25458831.168 9 -19034341.67047  20877217.173    20877226.2634
  20669585.741   -24941303.490 9 -19418399.71648  20669586.023    20669594.3074
  23153143.721   -11433757.846 8  -8889880.75846  23153143.162    23153156.4114
  24441869.833    -6570713.432 7  -4709052.07045  24441869.147    24441887.1884
 02  1 27  1 16  0.0000000  0  8 23 24 06 05 10 30 17 15
  21869649.312   -12976267.003 8 -10093645.83947  21869648.817    21869660.1724
  23771032.894    -9568923.976 8  -7443483.45945  23771032.616    23771045.8964
  21147764.854   -23564697.461 9 -18348785.12847  21147764.677    21147773.7924
  22098736.135   -14028578.391 8 -10747375.58047  22098735.564    22098746.7744
  20883040.298   -25428234.453 9 -19010500.01947  20883039.503    20883048.5844
  20677354.998   -24900475.772 9 -19386585.90248  20677355.275    20677363.5414
  23140490.790   -11500248.529 8  -8941691.46646  23140490.272    23140503.3904
  24425793.851    -6655191.992 7  -4774879.23545  24425793.126    24425811.2994
 02  1 27  1 16 30.0000000  0  8 23 24 06 05 10 30 17 15
  21854510.340   -13055822.420 8 -10155636.87947  21854509.838    21854521.1374
  23785935.099    -9490613.016 8  -7382461.92945  23785934.800    23785948.0004
  21137882.723   -23616628.041 9 -18389250.38747  21137882.539    21137891.6064
  22116212.377   -13936740.436 8 -10675813.61747  22116211.815    22116223.0794
  20888975.026   -25397047.063 9 -18986198.09847  20888974.234    20888983.2874
  20685228.541   -24859100.061 9 -19354345.08248  20685228.824    20685237.0644
  23127874.409   -11566547.183 8  -8993352.54746  23127873.867    23127886.9404
  24409745.552    -6739525.097 7  -4840593.05445  24409744.886    24409762.9434
 02  1 27  1 17  0.0000000  0  8 23 24 06 05 10 30 17 15
  21839440.494   -13135014.268 8 -10217344.61547  21839440.001    21839451.2324
  23800833.858    -9412319.773 8  -7321454.20845  23800833.596    23800846.7294
  21128037.291   -23668365.565 9 -18429565.21847  21128037.094    21128046.1344
  22133740.495   -13844629.952 8 -10604039.30547  22133739.940    22133751.2434
  20895021.861   -25365270.613 9 -18961437.16547  20895021.068    20895030.1014
  20693206.123   -24817177.512 9 -19321678.15948  20693206.391    20693214.6394
  23115294.671   -11632653.410 8  -9044863.67846  23115294.105    23115307.1534
  24393724.976    -6823712.410 7  -4906193.26445  24393724.327    24393742.3414
 02  1 27  1 17 30.0000000  0  8 23 24 06 05 10 30 17 15
  21824440.299   -13213840.270 8 -10278767.27947  21824439.795    21824450.9914
  23815728.975    -9334045.399 8  -7260461.17045  23815728.724    23815741.9274
  21118228.949   -23719908.245 9 -18469728.22447  21118228.755    21118237.7594
  22151320.022   -13752249.325 8 -10532054.49947  22151319.480    22151330.8534
  20901180.543   -25332906.294 9 -18936218.15747  20901179.745    20901188.7774
  20701287.503   -24774709.424 9 -19288586.14148  20701287.777    20701296.0054
  23102751.523   -11698567.173 8  -9096224.84146  23102751.009    23102763.9834
  24377732.348    -6907752.846 7  -4971679.03545  24377731.688    24377749.7454
 02  1 27  1 18  0.0000000  0  8 23 24 06 05 10 30 17 15
  21809510.159   -13292298.057 8 -10339903.01647  21809509.661    21809520.8084
  23830620.408    -9255790.128 8  -7199483.03645  23830620.225    23830633.4004
  21108457.989   -23771254.438 9 -18509738.12347  21108457.809    21108466.7894
  22168950.445   -13659601.181 8 -10459861.22647  22168949.905    22168961.2994
  20907450.778   -25299955.558 9 -18910542.19847  20907449.984    20907459.0124
  20709472.491   -24731697.085 9 -19255070.02947  20709472.760    20709480.9764
  23090245.080   -11764288.219 8  -9147435.83746  23090244.577    23090257.4594
  24361767.723    -6991645.998 7  -5037050.03745  24361766.990    24361785.1014
 02  1 27  1 18 30.0000000  0  8 23 24 06 05 10 30 17 15
  21794650.419   -13370385.640 8 -10400750.28847  21794649.928    21794661.0574
  23845508.020    -9177554.910 8  -7138520.52045  23845507.819    23845521.1164
  21098724.702   -23822402.685 9 -18549593.77547  21098724.517    21098733.4734
  22186631.257   -13566688.375 8 -10387461.72647  22186630.735    22186642.1104
  20913832.341   -25266420.017 9 -18884410.54947  20913831.546    20913840.5594
  20717760.632   -24688142.510 9 -19221131.39647  20717760.903    20717769.1074
  23077775.234   -11829816.653 8  -9198496.73246  23077774.720    23077787.5894
  24345831.179    -7075391.734 7  -5102306.17845  24345830.523    24345848.5314
 02  1 27  1 19  0.0000000  0  8 23 24 06 05 10 30 17 15
  21779861.500   -13448101.016 8 -10461307.52247  21779860.986    21779872.1134
  23860391.639    -9099340.904 8  -7077574.52645  23860391.454    23860404.7374
  21089029.325   -23873351.628 9 -18589294.12447  21089029.159    21089038.0774
  22204361.925   -13473513.493 8 -10314858.00947  22204361.400    22204372.7904
  20920324.842   -25232301.492 9 -18857824.62947  20920324.041    20920333.0474
  20726151.688   -24644047.202 9 -19186771.41247  20726151.964    20726160.1384
  23065342.052   -11895152.642 8  -9249407.67546  23065341.557    23065354.3774
  24329922.780    -7158989.739 7  -5167447.19045  24329922.076    24329939.9804
 02  1 27  1 19 30.0000000  0  8 23 24 06 05 10 30 17 15
  21765143.782   -13525442.239 9 -10521573.20947  21765143.275    21765154.3994
  23875271.102    -9021148.569 8  -7016645.42245  23875270.884    23875284.2214
  21079372.169   -23924099.796 9 -18628838.03747  21079371.995    21079380.8854
  22222141.900   -13380079.444 8 -10242052.34247  22222141.361    22222152.7754
  20926927.912   -25197601.935 9 -18830785.95947  20926927.120    20926936.0974
  20734645.302   -24599413.019 9 -19151991.52647  20734645.564    20734653.7424
  23052945.437   -11960296.414 8  -9300168.85046  23052944.958    23052957.7434
  24314042.517    -7242439.894 7  -5232473.00445  24314041.820    24314059.5444
 02  1 27  1 20  0.0000000  0  8 23 24 06 05 10 30 17 15
  21750497.689   -13602406.956 8 -10581545.52047  21750497.195    21750508.2964
  23890146.301    -8942978.825 8  -6955733.91745  23890146.116    23890159.3104
  21069753.576   -23974645.472 9 -18668224.16047  21069753.393    21069762.2554
  22239970.690   -13286388.727 8 -10169046.68146  22239970.149    22239981.6124
  20933641.362   -25162322.352 9 -18803295.32447  20933640.562    20933649.5184
  20743241.146   -24554241.412 9 -19116792.87047  20743241.413    20743249.5974
  23040585.430   -12025247.738 8  -9350780.06146  23040584.945    23040597.7424
  24298190.534    -7325741.534 7  -5297383.08845  24298189.743    24298207.3894
 02  1 27  1 20 30.0000000  0  8 23 24 06 05 10 30 17 15
  21735923.684   -13678993.008 9 -10641222.77147  21735923.194    21735934.2764
  23905017.096    -8864832.433 8  -6894840.61745  23905016.901    23905030.0134
  21060173.844   -24024986.879 9 -18707451.11347  21060173.645    21060182.4874
  22257847.770   -13192444.144 8 -10095843.20446  22257847.213    22257858.7374
  20940464.823   -25126464.547 9 -18775354.12847  20940464.019    20940472.9384
  20751938.963   -24508534.017 9 -19081176.71947  20751939.222    20751947.4154
  23028262.058   -12090006.627 8  -9401241.33346  23028261.546    23028274.3104
  24282366.920    -7408894.348 7  -5362177.20245  24282366.148    24282383.6934
 02  1 27  1 21  0.0000000  0  8 23 24 06 05 10 30 17 15
  21721422.038   -13755198.647 9 -10700603.59247  21721421.543    21721432.6114
  23919883.250    -8786710.253 8  -6833966.17845  23919883.000    23919896.1694
  21050633.199   -24075122.790 9 -18746517.94147  21050633.000    21050641.8154
  22275772.668   -13098248.399 8 -10022444.00046  22275772.094    22275783.6284
  20947397.985   -25090030.364 9 -18746963.80647  20947397.189    20947406.0874
  20760738.374   -24462292.720 9 -19045144.53647  20760738.640    20760746.8194
  23015975.227   -12154573.468 8  -9451552.95746  23015974.712    23015987.4794
  24266571.630    -7491898.323 8  -5426855.34645  24266570.813    24266588.2974
 02  1 27  1 21 30.0000000  0  8 23 24 06 05 10 30 17 15
  21706993.275   -13831021.544 9 -10759686.18147  21706992.792    21707003.8224
  23934744.709    -8708612.920 8  -6773111.10645  23934744.491    23934757.4964
  21041132.039   -24125051.293 9 -18785423.16047  21041131.848    21041140.6224
  22293744.902   -13003803.976 8  -9948851.03446  22293744.352    22293755.8924
  20954440.529   -25053021.236 9 -18718125.48447  20954439.723    20954448.5934
  20769639.063   -24415519.223 9 -19008697.65447  20769639.338    20769647.5124
  23003724.989   -12218947.934 8  -9501714.69046  23003724.473    23003737.1934
  24250804.711    -7574752.877 7  -5491417.07445  24250804.018    24250821.2864
 02  1 27  1 22  0.0000000  0  8 23 24 06 05 10 30 17 15
  21692637.713   -13906459.775 8 -10818469.03047  21692637.230    21692648.1794
  23949601.391    -8630540.973 8  -6712275.79845  23949601.166    23949614.0904
  21031670.648   -24174770.845 9 -18824165.55247  21031670.468    21031679.2044
  22311763.946   -12909113.614 8  -9875066.42646  22311763.397    22311774.9194
  20961592.159   -25015438.955 9 -18688840.54747  20961591.372    20961600.2044
  20778640.708   -24368215.166 9 -18971837.34547  20778640.986    20778649.1524
  22991511.340   -12283130.198 8  -9551726.65846  22991510.839    22991523.4974
  24235066.344    -7657457.782 8  -5555862.19945  24235065.713    24235082.7804
 02  1 27  1 22 30.0000000  0  8 23 24 06 05 10 30 17 15
  21678355.764   -13981511.069 8 -10876950.36847  21678355.257    21678366.1604
  23964453.059    -8552495.307 8  -6651460.98645  23964452.814    23964465.6824
  21022249.326   -24224279.661 9 -18862743.73847  21022249.150    21022257.8514
  22329829.354   -12814179.772 8  -9801092.09646  22329828.811    22329840.3184
  20968852.561   -24977285.078 9 -18659110.21247  20968851.756    20968860.5884
  20787743.038   -24320382.136 9 -18934564.85647  20787743.315    20787751.4944
  22979334.309   -12347120.219 8  -9601588.84346  22979333.779    22979346.4344
  24219356.467    -7740012.496 8  -5620190.30045  24219355.809    24219372.9204
 02  1 27  1 23  0.0000000  0  8 23 24 06 05 10 30 17 15
  21664147.911   -14056173.205 8 -10935128.46647  21664147.423    21664158.2494
  23979299.639    -8474476.230 8  -6590666.87845  23979299.397    23979312.2484
  21012868.413   -24273576.093 9 -18901156.42747  21012868.244    21012876.9144
  22347940.596   -12719005.048 8  -9726930.05746  22347940.053    22347951.5524
  20976221.405   -24938561.403 9 -18628935.87847  20976220.605    20976229.4294
  20796945.727   -24272021.788 9 -18896881.46547  20796946.004    20796954.1764
  22967193.875   -12410917.914 8  -9651301.16046  22967193.343    22967205.9654
  24203675.270    -7822416.611 7  -5684401.07545  24203674.546    24203691.6454
 02  1 27  1 23 30.0000000  0  8 23 24 06 05 10 30 17 15
  21650014.435   -14130444.411 9 -10993001.95347  21650013.938    21650024.6784
  23994140.879    -8396484.919 8  -6529894.41045  23994140.632    23994153.3994
  21003528.203   -24322658.712 9 -18939402.51747  21003528.030    21003536.6824
  22366097.030   -12623592.596 8  -9652582.79146  22366096.503    22366108.0054
  20983698.309   -24899269.709 9 -18598318.93547  20983697.519    20983706.3194
  20806248.334   -24223136.190 9 -18858788.79347  20806248.624    20806256.7814
  22955089.952   -12474523.589 8  -9700863.86546  22955089.422    22955102.0234
  24188022.797    -7904669.878 8  -5748494.31845  24188022.001    24188039.1624
 02  1 27  1 24  0.0000000  0  8 23 24 06 05 10 30 17 15
  21635955.787   -14204322.276 9 -11050568.94147  21635955.290    21635965.9574
  24008976.682    -8318521.848 8  -6469143.92545  24008976.402    24008989.3044
  20994229.092   -24371525.529 9 -18977480.45347  20994228.918    20994237.5424
  22384298.282   -12527944.727 8  -9578052.07746  22384297.763    22384309.2694
  20991283.037   -24859411.560 9 -18567260.60047  20991282.248    20991291.0574
  20815650.639   -24173726.894 9 -18820288.04547  20815650.915    20815659.0884
  22943022.675   -12537936.919 8  -9750276.70846  22943022.187    22943034.7194
  24172399.098    -7986771.763 7  -5812469.62245  24172398.417    24172415.4684
 02  1 27  1 24 30.0000000  0  8 23 24 06 05 10 30 17 15
  21621972.414   -14277804.676 9 -11107827.77047  21621971.911    21621982.5244
  24023806.970    -8240587.457 8  -6408415.79745  24023806.695    24023819.7084
  20984971.360   -24420174.791 9 -19015388.86347  20984971.197    20984979.7914
  22402543.887   -12432063.757 8  -9503339.71846  22402543.332    22402554.8684
  20998975.213   -24818988.721 9 -18535762.24247  20998974.423    20998983.2374
  20825152.270   -24123795.416 9 -18781380.39647  20825152.547    20825160.7394
  22930992.000   -12601157.808 8  -9799539.58946  22930991.495    22931003.9704
  24156804.301    -8068722.062 8  -5876326.81245  24156803.563    24156820.5214
 02  1 27  1 25  0.0000000  0  8 23 24 06 05 10 30 17 15
  21608064.608   -14350889.946 9 -11164777.14847  21608064.099    21608074.6424
  24038631.659    -8162682.444 8  -6347710.56145  24038631.402    24038644.6094
  20975755.278   -24468605.174 9 -19053126.72047  20975755.117    20975763.6884
  22420833.237   -12335952.912 8  -9428448.23846  22420832.671    22420844.2604
  21006774.451   -24778003.315 9 -18503825.52147  21006773.663    21006782.4844
  20834752.871   -24073344.012 9 -18742067.61347  20834753.131    20834761.3584
  22918997.915   -12664186.693 8  -9848652.87546  22918997.419    22919009.8014
  24141238.347    -8150520.747 7  -5940065.86045  24141237.609    24141254.5384
 02  1 27  1 25 30.0000000  0  8 23 24 06 05 10 30 17 15
  21594232.800   -14423575.982 9 -11221415.43947  21594232.294    21594242.7574
  24053450.727    -8084807.508 8  -6287028.75845  24053450.552    24053463.7834
  20966581.167   -24516814.985 9 -19090692.70347  20966580.998    20966589.5654
  22439165.851   -12239614.729 8  -9353379.61246  22439165.279    22439176.8824
  21014680.434   -24736456.807 9 -18471451.58947  21014679.660    21014688.4734
  20844452.054   -24022374.514 9 -18702351.12747  20844452.326    20844460.5384
  22907040.349   -12727023.606 8  -9897616.57346  22907039.817    22907052.1374
  24125701.349    -8232167.395 8  -6003686.43645  24125700.576    24125717.5044
 02  1 27  1 26  0.0000000  0  8 23 24 06 05 10 30 17 15
  21580477.234   -14495861.139 9 -11277741.35147  21580476.737    21580487.1424
  24068263.846    -8006964.009 8  -6226371.45545  24068263.658    24068276.7834
  20957449.264   -24564802.940 9 -19128085.81147  20957449.090    20957457.6384
  22457541.110   -12143052.255 8  -9278136.21746  22457540.538    22457552.1754
  21022692.801   -24694351.450 9 -18438642.18147  21022692.013    21022700.8364
  20854249.379   -23970889.166 9 -18662232.67247  20854249.653    20854257.8604
  22895119.242   -12789668.909 8  -9946430.97546  22895118.699    22895130.9864
  24110193.305    -8313661.895 8  -6067188.45545  24110192.561    24110209.4504
 02  1 27  1 26 30.0000000  0  8 23 24 06 05 10 30 17 15
  21566798.430   -14567743.134 9 -11333753.11447  21566797.937    21566808.2484
  24083071.062    -7929152.051 8  -6165738.72345  24083070.846    24083083.8664
  20948360.032   -24612566.867 9 -19165304.35747  20948359.862    20948368.3794
  22475958.656   -12046267.797 8  -9202719.85446  22475958.097    22475969.7654
  21030811.191   -24651688.812 9 -18405398.53147  21030810.383    21030819.2074
  20864144.617   -23918889.308 9 -18621713.30247  20864144.883    20864153.1174
  22883234.629   -12852122.375 8  -9995095.88746  22883234.097    22883246.3134
  24094714.409    -8395003.438 8  -6130571.29145  24094713.627    24094730.4664
 02  1 27  1 27  0.0000000  0  8 23 24 06 05 10 30 17 15
  21553196.575   -14639220.609 9 -11389449.65847  21553196.083    21553206.3584
  24097872.171    -7851372.101 8  -6105130.93945  24097871.921    24097884.6844
  20939313.578   -24660105.724 9 -19202347.52147  20939313.415    20939321.9004
  22494417.848   -11949264.488 8  -9127132.94746  22494417.289    22494428.9994
  21039035.115   -24608471.769 9 -18371722.87647  21039034.310    21039043.1074
  20874137.256   -23866377.546 9 -18580795.04347  20874137.535    20874145.7644
  22871386.441   -12914384.603 8 -10043611.78846  22871385.909    22871398.0574
  24079264.558    -8476192.413 8  -6193835.24345  24079263.783    24079280.4754
 02  1 27  1 27 30.0000000  0  8 23 24 06 05 10 30 17 15
  21539672.104   -14710291.424 9 -11444829.33347  21539671.616    21539681.8274
  24112666.898    -7773625.281 8  -6044548.97545  24112666.688    24112679.3014
  20930310.399   -24707417.459 9 -19239213.72047  20930310.238    20930318.6994
  22512918.159   -11852045.003 8  -9051377.60146  22512917.601    22512929.3354
  21047364.264   -24564701.571 9 -18337616.20147  21047363.464    21047372.2464
  20884227.005   -23813355.554 9 -18539479.20947  20884227.300    20884235.5114
  22859574.681   -12976455.367 8 -10091978.50946  22859574.166    22859586.2474
  24063843.827    -8557228.346 8  -6256979.94745  24063843.048    24063859.6744
 02  1 27  1 28  0.0000000  0  8 23 24 06 05 10 30 17 15
  21526225.478   -14780953.206 9 -11499890.27147  21526224.995    21526235.1814
  24127455.186    -7695911.807 8  -5983992.98345  24127454.970    24127467.5034
  20921350.809   -24754500.012 9 -19275901.33448  20921350.641    20921359.0754
  22531459.223   -11754611.550 8  -8975455.51946  22531458.656    22531470.4254
  21055798.412   -24520379.560 9 -18303079.53247  21055797.605    21055806.3794
  20894413.570   -23759824.845 9 -18497766.96647  20894413.848    20894422.0864
  22847799.411   -13038334.267 8 -10140195.71146  22847798.888    22847810.9484
  24048452.337    -8638110.489 8  -6320004.80445  24048451.593    24048468.0354
 02  1 27  1 28 30.0000000  0  8 23 24 06 05 10 30 17 15
  21512857.070   -14851203.863 9 -11554630.85847  21512856.590    21512866.7694
  24142237.017    -7618231.880 8  -5923463.12245  24142236.858    24142249.4014
  20912435.210   -24801351.624 9 -19312408.99548  20912435.023    20912443.4434
  22550040.502   -11656966.707 8  -8899368.71846  22550039.932    22550051.7064
  21064337.224   -24475507.740 9 -18268114.45547  21064336.414    21064345.1724
  20904696.600   -23705787.217 9 -18455659.72647  20904696.870    20904705.0904
  22836060.652   -13100021.409 8 -10188263.50346  22836060.145    22836072.1124
  24033090.193    -8718838.424 8  -6382909.49245  24033089.469    24033105.7454
 02  1 27  1 29  0.0000000  0  8 23 24 06 05 10 30 17 15
  21499567.236   -14921041.513 9 -11609049.61547  21499566.760    21499576.9264
  24157012.288    -7540586.579 8  -5862960.24845  24157012.089    24157024.8154
  20903563.840   -24847970.597 9 -19348735.37148  20903563.654    20903572.0314
  22568661.497   -11559113.075 8  -8823119.23246  22568660.921    22568672.7044
  21072980.230   -24430088.223 9 -18232722.59347  21072979.430    21072988.1704
  20915075.694   -23651244.670 9 -18413159.03947  20915075.964    20915084.1884
  22824358.366   -13161516.792 8 -10236181.86746  22824357.876    22824369.7864
  24017757.381    -8799412.103 8  -6445693.98245  24017756.674    24017772.8584
 02  1 27  1 29 30.0000000  0  8 23 24 06 05 10 30 17 15
  21486356.271   -14990464.661 9 -11663145.39447  21486355.806    21486365.9584
  24171781.015    -7462976.270 8  -5802484.64345  24171780.824    24171793.5854
  20894737.030   -24894355.583 9 -19384879.42448  20894736.855    20894745.1674
  22587321.650   -11461053.824 8  -8746709.52146  22587321.093    22587332.8954
  21081727.061   -24384123.194 9 -18196905.66047  21081726.255    21081734.9734
  20925550.429   -23596199.619 9 -18370266.79347  20925550.683    20925558.9424
  22812692.470   -13222821.059 8 -10283951.30946  22812691.962    22812703.8704
  24002453.986    -8879831.351 8  -6508358.15745  24002453.228    24002469.3184
 02  1 27  1 30  0.0000000  0  8 23 24 06 05 10 30 17 15
  21473224.567   -15059471.577 9 -11716916.82947  21473224.087    21473234.2204
  24186542.966    -7385401.548 8  -5742036.74845  24186542.775    24186555.6094
  20885954.986   -24940505.104 9 -19420839.99248  20885954.804    20885963.0824
  22606020.339   -11362791.795 8  -8670141.79446  22606019.768    22606031.6294
  21090577.276   -24337614.755 9 -18160665.28647  21090576.468    21090585.1794
  20936120.340   -23540654.326 9 -18326984.74447  20936120.615    20936128.8894
  22801062.880   -13283934.346 8 -10331571.93246  22801062.373    22801074.2614
  23987179.937    -8960096.002 8  -6570901.84945  23987179.152    23987195.2784
 02  1 27  1 30 30.0000000  0  8 23 24 06 05 10 30 17 15
  21460172.430   -15128060.227 9 -11770362.35247  21460171.943    21460182.0644
  24201298.064    -7307863.165 8  -5681617.18545  24201297.810    24201310.6324
  20877218.082   -24986417.452 9 -19456615.75948  20877217.893    20877226.1334
  22624757.186   -11264329.435 8  -8593417.96946  22624756.637    22624768.4884
  21099530.518   -24290565.050 9 -18124003.14647  21099529.719    21099538.4204
  20946785.084   -23484610.527 9 -18283314.24747  20946785.352    20946793.6524
  22789469.681   -13344856.593 8 -10379043.68846  22789469.179    22789481.0474
  23971935.370    -9040205.878 8  -6633324.93645  23971934.696    23971950.7184
 02  1 27  1 31  0.0000000  0  8 23 24 06 05 10 30 17 15
  21447200.178   -15196229.079 9 -11823480.75947  21447199.693    21447209.7824
  24216046.153    -7230361.919 8  -5621226.56645  24216045.840    24216058.7124
  20868526.611   -25032091.095 9 -19492205.52348  20868526.430    20868534.6714
  22643531.550   -11165669.759 8  -8516540.39246  22643530.970    22643542.8784
  21108586.360   -24242976.137 9 -18086920.84347  21108585.550    21108594.2514
  20957544.263   -23428070.669 9 -18239257.21247  20957544.534    20957552.8674
  22777912.722   -13405588.205 8 -10426366.89346  22777912.220    22777924.0894
  23956720.305    -9120160.881 8  -6695627.34945  23956719.599    23956735.6414
 02  1 27  1 31 30.0000000  0  8 23 24 06 05 10 30 17 15
  21434308.212   -15263976.141 9 -11876270.50547  21434307.728    21434317.7654
  24230787.091    -7152898.074 8  -5560865.08645  24230786.815    24230799.3664
  20859880.927   -25077524.046 9 -19527607.73648  20859880.755    20859888.9704
  22662342.996   -11066815.322 8  -8439511.05346  22662342.426    22662354.3654
  21117744.464   -24194849.840 9 -18049419.79347  21117743.670    21117752.3654
  20968397.470   -23371036.492 9 -18194814.99447  20968397.741    20968406.1044
  22766392.113   -13466129.014 8 -10473541.41146  22766391.605    22766403.4734
  23941534.731    -9199960.591 8  -6757808.74745  23941534.031    23941550.0784
 02  1 27  1 32  0.0000000  0  8 23 24 06 05 10 30 17 15
  21421496.842   -15331299.626 9 -11928730.19347  21421496.347    21421506.3534
  24245520.803    -7075472.077 8  -5500533.10745  24245520.615    24245532.9124
  20851281.402   -25122714.552 9 -19562821.02748  20851281.228    20851289.4294
  22681190.908   -10967769.053 8  -8362332.22846  22681190.339    22681202.3464
  21127004.384   -24146188.514 9 -18011501.83247  21127003.590    21127012.2904
  20979344.330   -23313510.326 9 -18149989.40247  20979344.592    20979352.9834
  22754907.722   -13526479.320 8 -10520567.48546  22754907.226    22754919.0924
  23926378.780    -9279604.904 8  -6819869.07245  23926378.133    23926394.1414
 02  1 27  1 32 30.0000000  0  8 23 24 06 05 10 30 17 15
  21408766.439   -15398197.614 9 -11980858.33047  21408765.950    21408775.8944
  24260247.169    -6998084.436 8  -5440231.00845  24260246.940    24260259.1864
  20842728.373   -25167660.595 9 -19597843.82648  20842728.200    20842736.3834
  22700074.876   -10868533.273 8  -8285005.73346  22700074.305    22700086.3894
  21136365.768   -24096993.828 9 -17973168.26647  21136364.979    21136373.6704
  20990384.508   -23255493.770 9 -18104781.69447  20990384.779    20990393.1644
  22743459.664   -13586638.796 8 -10567444.84646  22743459.171    22743471.0004
  23911252.528    -9359093.202 8  -6881807.80045  23911251.826    23911267.8334
 02  1 27  1 33  0.0000000  0  8 23 24 06 05 10 30 17 15
  21396117.365   -15464668.287 9 -12032653.49847  21396116.877    21396126.7654
  24274966.083    -6920735.785 8  -5379959.29745  24274965.891    24274977.9744
  20834222.214   -25212360.519 9 -19632674.83948  20834222.038    20834230.1884
  22718994.403   -10769110.664 8  -8207533.65146  22718993.837    22719005.9754
  21145828.284   -24047267.784 9 -17934420.65547  21145827.488    21145836.1864
  21001517.557   -23196989.130 9 -18059193.66547  21001517.822    21001526.2114
  22732047.861   -13646607.712 8 -10614173.71546  22732047.371    22732059.1804
  23896156.057    -9438425.134 8  -6943624.68345  23896155.276    23896171.2454
 02  1 27  1 33 30.0000000  0  8 23 24 06 05 10 30 17 15
  21383549.952   -15530709.897 9 -12084114.32947  21383549.477    21383559.3094
  24289677.427    -6843426.657 7  -5319718.37545  24289677.187    24289689.3874
  20825763.157   -25256812.767 9 -19667312.86348  20825762.984    20825771.0884
  22737948.972   -10669503.988 8  -8129918.14046  22737948.426    22737960.5814
  21155391.455   -23997012.797 9 -17895260.87247  21155390.648    21155399.3644
  21012743.080   -23137998.521 9 -18013226.94947  21012743.341    21012751.7074
  22720672.305   -13706386.202 8 -10660754.19546  22720671.796    22720683.5744
  23881089.296    -9517600.661 8  -7005319.66945  23881088.567    23881104.4884
 02  1 27  1 34  0.0000000  0  9 23 26 24 06 05 10 30 17 15
  21371064.581   -15596320.278 9 -12135239.14547  21371064.090    21371073.8744
  24448586.024    -6049090.619 7  -4699779.32545  24448586.077    24448599.6224
  24304381.177    -6766157.288 8  -5259508.43745  24304380.947    24304393.2954
  20817351.607   -25301015.448 9 -19701756.41548  20817351.428    20817359.5004
  22756938.077   -10569715.976 8  -8052161.33846  22756937.550    22756949.6864
  21165054.893   -23946230.782 9 -17855690.42047  21165054.088    21165062.7864
  21024060.697   -23078523.978 9 -17966883.14947  21024060.965    21024069.3184
  22709332.930   -13765974.468 8 -10707186.44446  22709332.407    22709344.1444
  23866052.443    -9596619.236 8  -7066892.35545  23866051.716    23866067.5544
 02  1 27  1 34 30.0000000  0 10 23 26 24 06 05 10 30 18 17 15
  21358661.412   -15661498.777 9 -12186027.42847  21358660.917    21358670.6634
  24431339.356    -6139721.489 8  -4770400.50645  24431339.346    24431353.1674
  24319077.263    -6688928.572 7  -5199330.17545  24319076.973    24319089.5934
  20808987.696   -25344967.683 9 -19736004.81748  20808987.518    20808995.5524
  22775961.083   -10469749.943 8  -7974265.81646  22775960.521    22775972.6684
  21174818.120   -23894924.520 9 -17815711.46147  21174817.339    21174826.0264
  21035469.884   -23018568.497 9 -17920164.59947  21035470.147    21035478.4724
  24782681.507    -5252561.437 8  -4078870.16945  24782681.018    24782698.5044
  22698029.638   -13825373.072 8 -10753470.89346  22698029.112    22698040.8284
  23851045.324    -9675481.509 8  -7128343.22145  23851044.576    23851060.4014
 02  1 27  1 35  0.0000000  0 10 23 26 24 06 05 10 30 18 17 15
  21346340.216   -15726246.431 9 -12236480.00247  21346339.727    21346349.4264
  24414087.998    -6230377.219 7  -4841041.13945  24414087.900    24414101.6404
  24333764.904    -6611744.129 8  -5139186.40545  24333764.765    24333777.2864
  20800671.291   -25388670.341 9 -19770058.74948  20800671.115    20800679.1104
  22795016.922   -10369611.265 8  -7896235.77046  22795016.369    22795028.5054
  21184680.150   -23843098.900 9 -17775327.81247  21184679.372    21184688.0334
  21046969.650   -22958136.869 9 -17873075.02747  21046969.926    21046978.2144
  24761443.138    -5364167.587 7  -4165835.42945  24761442.531    24761460.0184
  22686761.868   -13884584.906 8 -10799609.81046  22686761.352    22686773.0414
  23836067.414    -9754189.944 8  -7189674.20645  23836066.665    23836082.4134
 02  1 27  1 35 30.0000000  0 10 23 26 24 06 05 10 30 18 17 15
  21334102.272   -15790556.672 9 -12286591.73247  21334101.769    21334111.4504
  24396833.309    -6321050.058 7  -4911695.08745  24396833.204    24396846.8764
  24348445.032    -6534599.681 7  -5079073.79945  24348444.832    24348457.4434
  20792403.619   -25432116.837 9 -19803913.07048  20792403.449    20792411.4084
  22814105.983   -10269297.945 8  -7818069.63546  22814105.444    22814117.6084
  21194641.504   -23790751.457 9 -17734537.54147  21194640.726    21194649.3824
  21058560.463   -22897226.698 9 -17825612.56547  21058560.722    21058569.0274
  24740213.786    -5475726.271 7  -4252763.72445  24740213.148    24740230.4484
  22675530.461   -13943605.659 8 -10845599.82746  22675529.928    22675541.5874
  23821119.694    -9832739.798 8  -7250881.61946  23821118.963    23821134.6774
 02  1 27  1 36  0.0000000  0 10 23 26 24 06 05 10 30 18 17 15
  21321947.850   -15854428.054 9 -12336361.49547  21321947.353    21321956.9754
  24379575.926    -6411737.313 7  -4982360.23445  24379575.792    24379589.6874
  24363117.511    -6457495.744 8  -5018992.77945  24363117.225    24363129.8164
  20784184.945   -25475306.021 9 -19837566.89448  20784184.768    20784192.7074
  22833227.632   -10168813.130 8  -7739769.86046  22833227.136    22833239.3224
  21204701.677   -23737884.736 9 -17693342.64047  21204700.901    21204709.5214
  21070241.851   -22835840.543 9 -17777779.21247  21070242.145    21070250.4114
  24718993.855    -5587235.497 8  -4339653.52045  24718993.198    24719010.3364
  22664335.337   -14002435.794 8 -10891441.31246  22664334.808    22664346.4404
  23806202.116    -9911131.257 8  -7311965.59045  23806201.350    23806217.0574
 02  1 27  1 36 30.0000000  0 10 23 26 24 06 05 10 30 18 17 15
  21309877.099   -15917859.629 9 -12385788.54847  21309876.600    21309886.1794
  24362316.298    -6502436.382 7  -5053034.66145  24362316.190    24362329.9754
  24377781.995    -6380433.373 7  -4958944.14045  24377781.733    24377794.2304
  20776015.432   -25518236.803 9 -19871019.35948  20776015.254    20776023.1744
  22852381.258   -10068160.295 8  -7661339.17346  22852380.736    22852392.9744
  21214860.100   -23684501.578 9 -17651745.32347  21214859.329    21214867.9194
  21082013.248   -22773981.450 9 -17729577.33347  21082013.536    21082021.8184
  24697783.622    -5698693.741 7  -4426503.60845  24697783.091    24697799.9444
  22653176.359   -14061075.955 8 -10937134.76146  22653175.823    22653187.4204
  23791314.579    -9989364.641 8  -7372926.38245  23791313.816    23791329.5184
 02  1 27  1 37  0.0000000  0 10 23 26 24 06 05 10 30 18 17 15
  21297890.298   -15980850.154 9 -12434871.92547  21297889.808    21297899.3484
  24345054.921    -6593144.389 7  -5123716.03445  24345054.820    24345068.6794
  24392438.350    -6303413.604 7  -4898928.70245  24392438.078    24392450.6564
  20767895.345   -25560907.685 9 -19904269.30248  20767895.175    20767903.0614
  22871566.334    -9967342.379 8  -7582779.84546  22871565.824    22871578.1194
  21225116.379   -23630604.416 9 -17609747.48447  21225115.598    21225124.1704
  21093874.215   -22711651.668 9 -17681008.67747  21093874.495    21093882.8064
  24676583.527    -5810098.911 7  -4513312.38845  24676583.028    24676599.7124
  22642053.395   -14119526.760 8 -10982680.66046  22642052.873    22642064.4504
  23776457.146   -10067439.772 8  -7433763.83945  23776456.432    23776472.0084
 02  1 27  1 37 30.0000000  0 10 23 26 24 06 05 10 30 18 17 15
  21285987.766   -16043397.772 9 -12483610.18247  21285987.288    21285996.7694
  24327792.529    -6683857.977 7  -5194401.79645  24327792.500    24327806.1244
  24407086.408    -6226436.856 7  -4838946.79245  24407086.106    24407098.8424
  20759825.129   -25603316.621 9 -19937315.13348  20759824.952    20759832.8344
  22890782.342    -9866361.863 8  -7504093.81746  22890781.831    22890794.1634
  21235470.035   -23576195.475 9 -17567350.86247  21235469.241    21235477.7894
  21105824.316   -22648853.492 9 -17632075.03847  21105824.572    21105832.9194
  24655393.924    -5921448.690 7  -4600077.99545  24655393.337    24655410.0274
  22630966.506   -14177788.091 8 -11028078.91946  22630965.969    22630977.5234
  23761629.830   -10145356.434 8  -7494477.83145  23761629.127    23761644.6384
 02  1 27  1 38  0.0000000  0 10 23 26 24 06 05 10 30 18 17 15
  21274169.754   -16105501.228 9 -12532002.33647  21274169.269    21274178.7084
  24310529.648    -6774574.294 7  -5265089.64945  24310529.621    24310543.3044
  24421726.176    -6149503.801 7  -4778998.92845  24421725.961    24421738.7224
  20751804.988   -25645462.312 9 -19970155.83948  20751804.805    20751812.6914
  22910028.764    -9765221.718 8  -7425283.41646  22910028.257    22910040.5044
  21245920.566   -23521277.429 9 -17524557.53147  21245919.766    21245928.3094
  21117863.061   -22585589.402 9 -17582778.35547  21117863.337    21117871.6994
  24634215.317    -6032740.801 7  -4686798.65845  24634214.769    24634231.2824
  22619915.586   -14235860.404 8 -11073329.88946  22619915.059    22619926.5594
  23746832.657   -10223114.815 8  -7555068.47145  23746832.010    23746847.5614
 02  1 27  1 38 30.0000000  0 10 23 26 24 06 05 10 30 18 17 15
  21262436.548   -16167159.116 9 -12580047.29947  21262436.062    21262445.4664
  24293266.881    -6865290.178 7  -5335777.19545  24293266.881    24293280.5594
  24436357.601    -6072614.792 7  -4719085.37045  24436357.252    24436370.2944
  20743835.250   -25687343.111 9 -20002790.13148  20743835.072    20743842.9484
  22929305.021    -9663924.830 8  -7346350.87746  22929304.533    22929316.7124
  21256467.548   -23465852.617 9 -17481369.31947  21256466.744    21256475.2714
  21129990.000   -22521861.953 9 -17533120.61347  21129990.272    21129998.6374
  24613048.098    -6143973.196 7  -4773472.84845  24613047.562    24613064.1064
  22608900.591   -14293744.060 8 -11118433.86547  22608900.054    22608911.5054
  23732065.562   -10300714.865 8  -7615535.74445  23732064.944    23732080.4444
 02  1 27  1 39  0.0000000  0 10 23 26 24 06 05 10 30 18 17 15
  21250788.436   -16228369.841 9 -12627743.82547  21250787.956    21250797.3134
  24276004.723    -6956002.500 7  -5406461.98245  24276004.792    24276018.3634
  24450980.652    -5995770.284 7  -4659206.49145  24450980.319    24450993.2274
  20735916.264   -25728957.205 9 -20035216.60448  20735916.074    20735923.9554
  22948610.564    -9562474.086 8  -7267298.45246  22948610.048    22948622.2174
  21267110.531   -23409923.215 9 -17437787.92747  21267109.726    21267118.2494
  21142204.685   -22457673.411 9 -17483103.57847  21142204.956    21142213.3144
  24591892.711    -6255143.751 7  -4860098.87445  24591892.218    24591908.5284
  22597921.403   -14351439.335 8 -11163391.04947  22597920.875    22597932.2984
  23717328.643   -10378156.378 8  -7675879.48545  23717328.016    23717343.5754
 02  1 27  1 39 30.0000000  0 10 23 26 24 06 05 10 30 18 17 15
  21239225.644   -16289132.125 9 -12675090.91047  21239225.161    21239234.4884
  24258743.792    -7046708.334 7  -5477141.69545  24258743.941    24258757.6234
  24465595.118    -5918971.183 7  -4599363.00945  24465594.851    24465607.6254
  20728048.316   -25770303.225 9 -20067434.18448  20728048.131    20728055.9934
  22967944.864    -9460872.331 8  -7188128.34646  22967944.343    22967956.5104
  21277849.024   -23353491.820 9 -17393815.36547  21277848.242    21277856.7344
  21154506.600   -22393026.498 9 -17432729.37447  21154506.870    21154515.2234
  24570749.466    -6366250.448 7  -4946675.12245  24570748.975    24570765.2074
  22586978.009   -14408946.574 8 -11208201.71347  22586977.481    22586988.8454
  23702621.895   -10455439.612 7  -7736099.90545  23702621.257    23702636.7854
 02  1 27  1 40  0.0000000  0 10 23 26 24 06 05 10 30 18 17 15
  21227748.496   -16349444.216 9 -12722087.20047  21227748.016    21227757.3014
  24241484.796    -7137404.343 7  -5547813.77345  24241485.010    24241498.4754
  24480200.867    -5842217.659 7  -4539555.03645  24480200.580    24480213.2094
  20720231.755   -25811379.104 9 -20099441.26048  20720231.572    20720239.4234
  22987307.342    -9359122.157 8  -7108842.59746  22987306.838    22987319.0334
  21288682.667   -23296560.520 9 -17349453.26947  21288681.862    21288690.3804
  21166895.345   -22327923.256 9 -17381999.58747  21166895.623    21166903.9574
  24549618.908    -6477290.646 7  -5033199.58245  24549618.503    24549634.4174
  22576070.425   -14466265.754 8 -11252865.84047  22576069.892    22576081.1984
  23687945.404   -10532563.928 8  -7796196.48445  23687944.698    23687960.2464
 02  1 27  1 40 30.0000000  0 10 23 26 24 06 05 10 30 18 17 15
  21216357.321   -16409304.570 9 -12768731.48047  21216356.842    21216366.0984
  24224228.357    -7228086.998 7  -5618475.43545  24224228.546    24224242.1584
  24494797.864    -5765509.873 7  -4479782.70645  24494797.515    24494810.1494
  20712466.946   -25852183.076 9 -20131236.47048  20712466.768    20712474.5984
  23006697.534    -9257226.154 8  -7029443.21346  23006697.055    23006709.2604
  21299610.971   -23239131.746 9 -17304703.53247  21299610.177    21299618.6864
  21179370.507   -22262366.012 9 -17330916.02747  21179370.777    21179379.1144
  24528501.472    -6588262.055 7  -5119670.45045  24528501.043    24528516.9124
  22565198.576   -14523397.043 8 -11297383.55747  22565198.039    22565209.2954
  23673299.152   -10609529.227 8  -7856169.16145  23673298.417    23673313.8744
 02  1 27  1 41  0.0000000  0 10 23 26 24 06 05 10 30 18 17 15
  21205052.473   -16468711.478 9 -12815022.42947  21205051.988    21205061.2124
  24206975.085    -7318753.129 7  -5689124.22045  24206975.190    24206988.8514
  24509386.028    -5688848.167 7  -4420046.28645  24509385.685    24509398.4544
  20704754.203   -25892713.350 9 -20162818.40648  20704754.027    20704761.8364
  23026115.001    -9155187.100 8  -6949932.37246  23026114.513    23026126.7864
  21310633.530   -23181207.749 9 -17259567.91247  21310632.736    21310641.2274
  21191931.597   -22196357.028 9 -17279480.46247  21191931.871    21191940.2104
  24507397.547    -6699162.305 7  -5206085.84145  24507397.183    24507412.9864
  22554362.440   -14580340.691 8 -11341755.05747  22554361.881    22554373.0934
  23658683.190   -10686335.399 8  -7916017.84245  23658682.485    23658697.8784
 02  1 27  1 41 30.0000000  0 10 23 26 24 06 05 10 30 18 17 15
  21193834.115   -16527663.666 9 -12860959.05547  21193833.624    21193842.8194
  24189725.522    -7409399.595 7  -5759757.66445  24189725.581    24189739.3524
  24523965.310    -5612232.969 7  -4360346.09945  24523964.983    24523977.7794
  20697093.878   -25932968.245 9 -20194185.76048  20697093.700    20697101.4904
  23045559.172    -9053007.686 8  -6870312.15646  23045558.661    23045571.0104
  21321749.837   -23122790.984 9 -17214048.31547  21321749.050    21321757.5324
  21204578.145   -22129898.954 9 -17227694.96647  21204578.426    21204586.7564
  24486307.588    -6809989.254 7  -5292444.15045  24486307.302    24486323.1034
  22543562.011   -14637096.781 8 -11385980.41247  22543561.447    22543572.6214
  23644097.539   -10762982.422 8  -7975742.52645  23644096.842    23644112.1034
 02  1 27  1 42  0.0000000  0 10 23 26 24 06 05 10 30 18 17 15
  21182702.618   -16586159.558 9 -12906540.13047  21182702.121    21182711.2654
  24172480.500    -7500022.847 7  -5830373.03845  24172480.590    24172494.1174
  24538535.753    -5535664.377 7  -4300682.24345  24538535.325    24538548.3094
  20689486.335   -25972945.875 9 -20225337.06548  20689486.147    20689493.9274
  23065029.543    -8950690.537 8  -6790584.62046  23065029.033    23065041.4594
  21332959.525   -23063883.577 9 -17168146.40547  21332958.730    21332967.1934
  21217309.745   -22062993.977 9 -17175561.22647  21217310.012    21217318.3824
  24465232.095    -6920740.546 7  -5378743.57645  24465231.743    24465247.4214
  22532797.194   -14693665.479 8 -11430059.73947  22532796.630    22532807.7734
  23629542.215   -10839470.035 8  -8035342.99645  23629541.540    23629556.7124
 02  1 27  1 42 30.0000000  0 10 23 26 24 06 05 10 30 18 17 15
  21171658.207   -16644197.800 9 -12951764.58747  21171657.717    21171666.8084
  24155240.322    -7590620.139 7  -5900968.13345  24155240.475    24155254.1004
  24553097.336    -5459143.084 7  -4241055.22445  24553097.005    24553109.8124
  20681931.777   -26012644.938 9 -20256271.30148  20681931.587    20681939.3364
  23084525.621    -8848238.484 8  -6710751.96546  23084525.106    23084537.5724
  21344262.044   -23004488.204 9 -17121864.25547  21344261.226    21344269.6824
  21230125.869   -21995644.753 9 -17123081.31647  21230126.139    21230134.5354
  24444171.350    -7031414.094 7  -5464982.38445  24444170.994    24444186.4534
  22522067.951   -14750047.364 8 -11473993.49247  22522067.377    22522078.4804
  23615017.238   -10915798.272 8  -8094819.28745  23615016.535    23615031.6844
 02  1 27  1 43  0.0000000  0 10 23 26 24 06 05 10 30 18 17 15
  21160701.061   -16701777.378 9 -12996631.64647  21160700.572    21160709.6234
  24138005.603    -7681188.243 7  -5971540.47945  24138005.737    24138019.4034
  24567649.783    -5382670.081 7  -4181465.83945  24567649.440    24567662.1654
  20674430.523   -26052063.815 9 -20286987.20548  20674430.340    20674438.0824
  23104046.728    -8745654.727 8  -6630816.68046  23104046.231    23104058.7174
  21355656.982   -22944607.398 9 -17075203.84847  21355656.157    21355664.5964
  21243026.016   -21927854.131 9 -17070257.45947  21243026.279    21243034.6794
  24423125.775    -7142007.837 7  -5551158.97545  24423125.313    24423140.8754
  22511374.163   -14806242.837 8 -11517781.98747  22511373.611    22511384.6784
  23600522.621   -10991967.072 8  -8154171.34446  23600521.889    23600536.9504
 02  1 27  1 43 30.0000000  0 10 23 26 24 06 05 10 30 18 17 15
  21149831.614   -16758896.351 9 -13041139.79247  21149831.137    21149840.1294
  24120777.184    -7771723.503 7  -6042087.21145  24120777.274    24120791.0954
  24582193.107    -5306244.906 7  -4121913.72945  24582192.782    24582205.3824
  20666983.099   -26091200.057 9 -20317482.88148  20666982.916    20666990.6354
  23123592.514    -8642941.375 8  -6550780.41246  23123592.000    23123604.5604
  21367143.910   -22884243.135 9 -17028166.71947  21367143.075    21367151.5004
  21256009.802   -21859623.984 9 -17017091.11847  21256010.050    21256018.4434
  24402095.992    -7252519.036 7  -5637271.30145  24402095.571    24402110.9364
  22500715.906   -14862251.561 8 -11561424.94847  22500715.359    22500726.3964
  23586058.413   -11067975.989 8  -8213398.82346  23586057.702    23586072.6794
 02  1 27  1 44  0.0000000  0 10 23 26 24 06 05 10 30 18 17 15
  21139050.074   -16815553.260 9 -13085287.89847  21139049.591    21139058.5414
  24103555.576    -7862222.770 7  -6112605.87645  24103555.606    24103569.4774
  24596727.174    -5229868.062 7  -4062399.27345  24596726.890    24596739.4414
  20659589.691   -26130052.231 9 -20347757.21448  20659589.504    20659597.1844
  23143162.405    -8540101.195 8  -6470645.32546  23143161.882    23143174.4694
  21378722.310   -22823398.106 9 -16980754.97847  21378721.459    21378729.8484
  21269076.720   -21790956.924 9 -16963584.33447  21269076.984    21269085.3564
  24381082.470    -7362945.444 7  -5723317.56545  24381082.019    24381097.2254
  22490093.161   -14918073.745 8 -11604922.55947  22490092.613    22490103.6014
  23571624.649   -11143825.012 8  -8272501.70646  23571623.895    23571638.8524
 02  1 27  1 44 30.0000000  0 10 23 26 24 06 05 10 30 18 17 15
  21128356.673   -16871746.887 9 -13129074.99547  21128356.194    21128365.0844
  24086341.495    -7952682.764 7  -6183093.92945  24086341.474    24086355.2984
  24611251.781    -5153539.980 7  -4002922.81445  24611251.605    24611264.0734
  20652250.675   -26168618.707 9 -20377808.91848  20652250.485    20652258.1254
  23162755.880    -8437137.099 8  -6390413.68146  23162755.378    23162767.9934
  21390391.667   -22762075.035 9 -16932970.73047  21390390.831    21390399.1924
  21282226.356   -21721855.237 9 -16909738.87647  21282226.601    21282235.0144
  24360085.335    -7473284.848 7  -5809295.99545  24360085.015    24360099.9964
  22479505.804   -14973709.812 8 -11648275.13347  22479505.253    22479516.2324
  23557221.320   -11219513.969 8  -8331479.87046  23557220.646    23557235.4634
 02  1 27  1 45  0.0000000  0 10 23 26 24 06 05 10 30 18 17 15
  21117751.751   -16927475.566 9 -13172499.79647  21117751.265    21117760.1244
  24069135.566    -8043099.838 7  -6253548.55445  24069135.494    24069149.3434
  24625767.024    -5077260.486 7  -3943484.20945  24625766.857    24625779.6584
  20644966.427   -26206897.288 9 -20407636.28748  20644966.227    20644973.8434
  23182372.503    -8334051.431 8  -6310087.31246  23182371.998    23182384.6694
  21402151.678   -22700275.674 9 -16884815.35247  21402150.849    21402159.1944
  21295458.186   -21652321.464 9 -16855556.72547  21295458.451    21295466.8654
  24339105.320    -7583534.620 7  -5895204.58145  24339104.989    24339119.8064
  22468953.877   -15029159.660 8 -11691482.59547  22468953.338    22468964.2684
  23542848.535   -11295042.475 8  -8390333.00446  23542847.856    23542862.6234
 02  1 27  1 45 30.0000000  0 10 23 26 24 06 05 10 30 18 17 15
  21107235.519   -16982738.277 9 -13215561.50147  21107235.035    21107243.8604
  24051938.327    -8133470.998 7  -6323967.34545  24051938.250    24051952.2124
  24640272.862    -5001030.402 7  -3884084.12045  24640272.735    24640285.7124
  20637737.263   -26244886.368 9 -20437238.07648  20637737.072    20637744.6674
  23202011.751    -8230846.919 8  -6229668.32746  23202011.262    23202023.9794
  21414001.797   -22638002.734 9 -16836290.94947  21414000.966    21414009.3154
  21308771.771   -21582358.152 9 -16801039.87147  21308772.034    21308780.4504
  24318142.675    -7693692.826 7  -5981041.83645  24318142.421    24318157.0604
  22458437.341   -15084423.712 8 -11734545.28347  22458436.798    22458447.6924
  23528506.230   -11370410.823 8  -8449061.34446  23528505.565    23528520.1724
 02  1 27  1 46  0.0000000  0 10 23 26 24 06 05 10 30 18 17 15
  21096808.221   -17037533.484 9 -13258258.91747  21096807.744    21096816.5164
  24034750.446    -8223792.703 7  -6394347.63345  24034750.459    24034764.2874
  24654769.405    -4924849.787 7  -3824722.58145  24654769.268    24654782.3664
  20630563.551   -26282584.155 9 -20466612.87748  20630563.358    20630570.9284
  23221673.105    -8127526.253 8  -6149158.83746  23221672.590    23221685.3734
  21425941.551   -22575258.679 9 -16787399.44347  21425940.720    21425949.0594
  21322166.632   -21511967.748 9 -16746190.21347  21322166.871    21322175.3044
  24297197.832    -7803757.122 7  -6066805.92245  24297197.491    24297212.1664
  22447956.109   -15139502.035 8 -11777463.24347  22447955.564    22447966.4124
  23514194.475   -11445618.489 8  -8507664.48146  23514193.813    23514208.3154
 02  1 27  1 46 30.0000000  0 10 23 26 24 06 05 10 30 18 17 15
  21086470.020   -17091860.394 9 -13300591.42247  21086469.541    21086478.2834
  24017572.534    -8314062.252 7  -6464687.24045  24017572.640    24017586.3184
  24669256.562    -4848719.389 7  -3765400.17245  24669256.369    24669269.4844
  20623445.509   -26319989.261 9 -20495759.61548  20623445.316    20623452.8684
  23241355.923    -8024092.749 8  -6068561.41846  23241355.425    23241368.2234
  21437970.409   -22512046.444 9 -16738143.12247  21437969.583    21437977.9314
  21335642.208   -21441153.238 9 -16691010.07547  21335642.462    21335650.8644
  24276271.331    -7913725.283 7  -6152495.06645  24276271.018    24276285.6434
  22437510.041   -15194395.542 8 -11820237.18847  22437509.506    22437520.3174
  23499913.220   -11520665.905 8  -8566142.73945  23499912.559    23499927.0234
 02  1 27  1 47  0.0000000  0 10 23 26 24 06 05 10 30 18 17 15
  21076221.226   -17145717.692 9 -13342558.00647  21076220.746    21076229.4494
  24000405.244    -8404276.252 7  -6534983.58845  24000405.256    24000418.8814
  24683734.206    -4772639.450 7  -3706117.08245  24683734.076    24683746.9584
  20616383.502   -26357099.879 9 -20524676.88748  20616383.315    20616390.8434
  23261059.710    -7920549.127 8  -5987878.19646  23261059.213    23261072.0314
  21450087.860   -22448368.630 8 -16688524.01247  21450087.044    21450095.3874
  21349197.971   -21369917.234 9 -16635501.51547  21349198.238    21349206.6194
  24255363.492    -8023595.423 7  -6238107.85245  24255363.222    24255377.7254
  22427099.155   -15249104.184 8 -11862867.08647  22427098.623    22427109.3804
  23485662.505   -11595553.011 8  -8624496.08245  23485661.855    23485676.2454
 02  1 27  1 47 30.0000000  0 10 23 26 24 06 05 10 30 18 17 15
  21066062.044   -17199103.834 9 -13384157.45347  21066061.569    21066070.2394
  23983249.118    -8494431.274 7  -6605233.94445  23983249.133    23983262.6684
  24698202.244    -4696610.174 7  -3646873.47345  24698202.040    24698214.7784
  20609377.900   -26393914.270 9 -20553363.32648  20609377.705    20609385.2224
  23280783.990    -7816897.891 8  -5907111.11946  23280783.479    23280796.3454
  21462293.485   -22384227.447 9 -16638543.83347  21462292.684    21462301.0364
  21362833.517   -21298262.092 9 -16579666.34347  21362833.788    21362842.1544
  24234474.759    -8133365.082 7  -6323642.32145  24234474.374    24234488.7524
  22416723.398   -15303628.300 8 -11905353.19347  22416722.886    22416733.5644
  23471442.349   -11670279.499 8  -8682724.27345  23471441.679    23471456.0124
 02  1 27  1 48  0.0000000  0 10 23 26 24 06 05 10 30 18 17 15
  21055992.853   -17252017.242 9 -13425388.54347  21055992.380    21056001.0124
  23966104.981    -8584523.538 7  -6675435.42445  23966104.911    23966118.4094
  24712660.521    -4620631.510 7  -3587669.28045  24712660.291    24712672.8584
  20602429.039   -26430430.407 9 -20581817.36348  20602428.846    20602436.3394
  23300528.280    -7713141.441 8  -5826262.06846  23300527.820    23300540.6064
  21474586.912   -22319625.052 9 -16588204.27747  21474586.103    21474594.4324
  21376548.383   -21226190.043 9 -16523506.32247  21376548.643    21376556.9954
  24213605.563    -8243031.603 7  -6409096.42645  24213605.200    24213619.3814
  22406382.770   -15357967.677 8 -11947695.35347  22406382.245    22406392.9024
  23457252.851   -11744844.863 8  -8740826.92145  23457252.203    23457266.4264
 02  1 27  1 48 30.0000000  0 10 23 26 24 06 05 10 30 18 17 15
  21046013.782   -17304456.968 9 -13466250.53447  21046013.308    21046021.9124
  23948973.291    -8674549.915 7  -6745585.52545  23948973.271    23948986.7374
  24727108.952    -4544703.882 7  -3528504.86045  24727108.739    24727121.3074
  20595537.234   -26466646.637 9 -20610037.70548  20595537.037    20595544.5054
  23320292.080    -7609282.628 8  -5745333.24646  23320291.578    23320304.3734
  21486967.523   -22254564.329 8 -16537507.58047  21486966.713    21486975.0584
  21390342.062   -21153703.821 9 -16467023.55847  21390342.324    21390350.6624
  24192756.517    -8352592.758 7  -6494468.43445  24192756.134    24192770.1804
  22396077.252   -15412122.629 8 -11989893.80147  22396076.739    22396087.3394
  23443093.905   -11819249.402 8  -8798804.23845  23443093.294    23443107.4414
 02  1 27  1 49  0.0000000  0 10 23 26 24 06 05 10 30 18 17 15
  21036125.138   -17356421.595 9 -13506742.32647  21036124.664    21036133.2284
  23931854.812    -8764506.929 7  -6815681.62145  23931854.872    23931868.2094
  24741547.520    -4468827.241 7  -3469380.15045  24741547.304    24741560.1824
  20588702.892   -26502561.074 9 -20638022.89148  20588702.698    20588710.1374
  23340074.898    -7505323.986 8  -5664326.63246  23340074.372    23340087.1484
  21499434.961   -22189047.453 8 -16486455.44547  21499434.152    21499442.4974
  21404214.103   -21080805.806 9 -16410219.92147  21404214.361    21404222.6804
  24171927.938    -8462046.020 7  -6579756.33845  24171927.503    24171941.5464
  22385806.799   -15466093.414 8 -12031948.75247  22385806.289    22385816.8184
  23428965.704   -11893492.633 8  -8856655.87045  23428965.106    23428979.1454
 02  1 27  1 49 30.0000000  0 10 23 26 24 06 05 10 30 18 17 15
  21026327.079   -17407910.306 9 -13546863.26647  21026326.597    21026335.1424
  23914750.128    -8854391.654 7  -6885721.38245  23914750.174    23914763.3814
  24755976.223    -4393002.480 7  -3410295.88245  24755976.035    24755989.1364
  20581926.225   -26538172.223 9 -20665771.73548  20581926.029    20581933.4424
  23359876.133    -7401268.588 8  -5583244.61146  23359875.564    23359888.3514
  21511988.608   -22123077.464 8 -16435050.22647  21511987.811    21511996.1754
  21418163.893   -21007499.252 9 -16353097.93147  21418164.153    21418172.4804
  24151120.217    -8571389.759 7  -6664958.91145  24151119.888    24151133.8934
  22375571.243   -15519880.636 8 -12073860.66847  22375570.735    22375581.2244
  23414868.126   -11967574.931 8  -8914382.09645  23414867.515    23414881.5794
 02  1 27  1 50  0.0000000  0 10 23 26 24 06 05 10 30 18 17 15
  21016619.838   -17458921.529 9 -13586612.14447  21016619.357    21016627.8674
  23897660.007    -8944200.112 7  -6955701.70745  23897659.985    23897672.9924
  24770395.226    -4317229.151 7  -3351251.67645  24770395.112    24770408.3174
  20575207.737   -26573477.883 9 -20693282.54348  20575207.540    20575214.9274
  23379695.340    -7297118.670 8  -5502088.95646  23379694.774    23379707.5814
  21524628.064   -22056656.367 8 -16383293.49647  21524627.261    21524635.6604
  21432191.031   -20933786.096 9 -16295659.11647  21432191.273    21432199.6284
  24130333.983    -8680621.209 7  -6750074.01445  24130333.609    24130347.5344
  22365370.735   -15573483.973 8 -12115629.30347  22365370.227    22365380.6724
  23400801.233   -12041495.909 8  -8971982.62845  23400800.623    23400814.6984
 02  1 27  1 50 30.0000000  0 10 23 26 24 06 05 10 30 18 17 15
  21007003.641   -17509454.569 9 -13625988.41047  21007003.155    21007011.6434
  23880584.870    -9033929.698 8  -7025620.57345  23880584.916    23880597.7084
  24784804.486    -4241508.122 7  -3292248.23645  24784804.377    24784817.7534
  20568547.565   -26608476.870 9 -20720554.38448  20568547.371    20568554.7374
  23399531.939    -7192877.371 8  -5420862.09646  23399531.381    23399544.1594
  21537352.793   -21989787.293 8 -16331187.69747  21537351.992    21537360.4214
  21446294.899   -20859669.521 9 -16237905.94247  21446295.139    21446303.5284
  24109569.324    -8789738.614 7  -6835100.21345  24109568.914    24109582.8784
  22355205.005   -15626904.358 8 -12157255.38847  22355204.515    22355214.8784
  23386764.972   -12115256.012 8  -9029457.80845  23386764.310    23386778.3804
 02  1 27  1 51  0.0000000  0 10 23 26 24 06 05 10 30 18 17 15
  20997478.593   -17559508.373 9 -13664991.24247  20997478.109    20997486.5674
  23863525.405    -9123576.876 8  -7095475.22045  23863525.445    23863538.0984
  24799203.815    -4165839.759 7  -3233285.82245  24799203.658    24799216.9044
  20561946.099   -26643167.404 9 -20747585.87448  20561945.911    20561953.2554
  23419385.386    -7088547.507 8  -5339566.22646  23419384.807    23419397.5914
  21550162.295   -21922472.738 8 -16278734.76647  21550161.484    21550169.9304
  21460475.077   -20785152.201 9 -16179840.49547  21460475.322    21460483.7194
  24088826.910    -8898739.682 8  -6920035.77345  24088826.383    24088840.4134
  22345074.073   -15680141.951 8 -12198739.03247  22345073.568    22345083.8874
  23372759.417   -12188855.019 8  -9086807.47745  23372758.706    23372772.6884
 02  1 27  1 51 30.0000000  0 10 23 26 24 06 05 10 30 18 17 15
  20988044.944   -17609082.040 9 -13703619.94447  20988044.459    20988052.8914
  23846482.219    -9213138.566 8  -7165263.27045  23846482.304    23846494.6914
  24813593.220    -4090224.055 7  -3174364.45145  24813592.997    24813606.1034
  20555403.618   -26677547.931 9 -20774375.80248  20555403.430    20555410.7494
  23439255.066    -6984132.000 8  -5258203.63046  23439254.491    23439267.3634
  21563055.976   -21854715.598 8 -16225936.96647  21563055.178    21563063.6464
  21474730.928   -20710237.003 9 -16121465.02147  21474731.163    21474739.6064
  24068107.050    -9007622.309 8  -7004879.05545  24068106.547    24068120.4354
  22334977.845   -15733197.279 8 -12240080.66347  22334977.337    22334987.6294
  23358784.383   -12262293.320 8  -9144031.91745  23358783.651    23358797.5994
 02  1 27  1 52  0.0000000  0 10 23 26 24 06 05 10 30 18 17 15
  20978703.007   -17658173.606 9 -13741872.98447  20978702.527    20978710.9294
  23829456.088    -9302610.620 7  -7234981.45745  23829456.061    23829468.3954
  24827972.468    -4014661.186 8  -3115484.24745  24827972.262    24827985.1064
  20548920.609   -26711615.986 9 -20800922.24948  20548920.429    20548927.7164
  23459140.663    -6879632.951 8  -5176775.91646  23459140.096    23459152.9654
  21576033.588   -21786517.589 8 -16172795.63047  21576032.793    21576041.2914
  21489062.150   -20634925.869 9 -16062781.03147  21489062.402    21489070.8374
  24047410.159    -9116383.765 8  -7089627.91145  24047409.735    24047423.5654
  22324916.360   -15786069.852 8 -12281279.88947  22324915.862    22324926.0764
  23344840.161   -12335569.846 8  -9201130.31646  23344839.484    23344853.3494
 02  1 27  1 52 30.0000000  0 10 23 26 24 06 05 10 30 18 17 15
  20969452.975   -17706782.326 9 -13779749.78048  20969452.490    20969460.8714
  23812447.536    -9391989.915 7  -7304627.38345  23812447.586    23812459.6544
  24842341.538    -3939151.316 8  -3056645.34145  24842341.335    24842354.0324
  20542497.350   -26745370.041 9 -20827224.02548  20542497.165    20542504.4204
  23479041.622    -6775053.166 8  -5095285.30546  23479041.078    23479053.9504
  21589094.468   -21717881.962 8 -16119313.29647  21589093.681    21589102.1854
  21503468.143   -20559221.768 9 -16003790.83647  21503468.408    21503476.8634
  24026736.868    -9225021.902 8  -7174280.68545  24026736.437    24026750.2624
  22314889.584   -15838760.162 8 -12322337.09947  22314889.084    22314899.2384
  23330926.715   -12408684.784 8  -9258102.81146  23330926.027    23330939.8074
 02  1 27  1 53  0.0000000  0 10 23 26 24 06 05 10 30 18 17 15
  20960295.015   -17754907.256 9 -13817249.59648  20960294.540    20960302.8814
  23795457.260    -9481273.199 8  -7374198.49645  23795457.249    23795469.1814
  24856700.382    -3863694.482 7  -2997847.75645  24856700.195    24856712.7304
  20536134.196   -26778808.381 9 -20853279.78648  20536134.010    20536141.2374
  23498957.429    -6670395.299 8  -5013733.84446  23498956.831    23498969.7464
  21602238.163   -21648811.188 8 -16065491.88347  21602237.362    21602245.8654
  21517948.412   -20483127.459 8 -15944496.58447  21517948.654    21517957.1414
  24006087.421    -9333534.418 8  -7258835.57045  24006086.903    24006100.7714
  22304897.443   -15891268.596 8 -12363252.58847  22304896.931    22304907.0184
  23317043.945   -12481638.244 8  -9314949.46846  23317043.267    23317057.0174
 02  1 27  1 53 30.0000000  0 10 23 26 24 06 05 10 30 18 17 15
  20951229.340   -17802547.209 9 -13854371.50948  20951228.856    20951237.1854
  23778485.940    -9570456.858 8  -7443691.97145  23778485.857    23778497.8294
  24871049.063    -3788290.938 7  -2939091.69145  24871048.722    24871061.3684
  20529831.443   -26811929.212 9 -20879088.13948  20529831.264    20529838.4774
  23518887.633    -6565661.892 8  -4932123.50946  23518887.063    23518899.9754
  21615464.208   -21579307.703 8 -16011333.28947  21615463.396    21615471.8994
  21532502.493   -20406645.352 9 -15884900.15647  21532502.768    21532511.2324
  23985462.349    -9441918.784 8  -7343290.62645  23985461.871    23985475.5324
  22294939.884   -15943595.258 8 -12404026.44047  22294939.365    22294949.3864
  23303192.001   -12554430.095 8  -9371670.19946  23303191.317    23303204.9904
 02  1 27  1 54  0.0000000  0  9 23 26 06 05 10 30 18 17 15
  20942255.664   -17849703.715 9 -13891116.71048  20942255.179    20942263.4764
  23761533.729    -9659540.009 8  -7513107.16145  23761533.643    23761545.5154
  20523588.945   -26844733.327 9 -20904649.70348  20523588.765    20523595.9534
  23538831.190    -6460858.258 8  -4850458.46645  23538830.637    23538843.4994
  21628771.611   -21509376.612 8 -15956841.50047  21628770.814    21628779.3104
  21547129.305   -20329780.855 8 -15825005.75547  21547129.573    21547138.0674
  23964861.642    -9550175.393 8  -7427646.12345  23964861.172    23964874.7734
  22285016.390   -15995742.981 8 -12444660.86047  22285015.885    22285025.8404
  23289370.320   -12627062.671 8  -9428266.82146  23289369.695    23289383.2924
 02  1 27  1 54 30.0000000  0  9 23 26 06 05 10 30 18 17 15
  20933374.917   -17896371.860 9 -13927481.37348  20933374.427    20933382.6934
  23744601.989    -9748515.514 8  -7582438.46945  23744601.834    23744613.7244
  20517407.786   -26877215.223 9 -20929960.19048  20517407.604    20517414.7864
  23558788.355    -6355983.241 8  -4768737.80245  23558787.790    23558800.6474
  21642160.641   -21439016.693 8 -15902015.55747  21642159.805    21642168.3204
  21561829.123   -20252532.812 9 -15764812.49247  21561829.406    21561837.9294
  23944286.283    -9658298.454 8  -7511897.56245  23944285.876    23944299.3404
  22275127.585   -16047708.260 8 -12485153.11447  22275127.091    22275136.9674
  23275579.708   -12699532.058 8  -9484736.27546  23275579.082    23275592.6674
 02  1 27  1 55  0.0000000  0  9 23 26 06 05 10 30 18 17 15
  20924587.051   -17942551.933 9 -13963465.71748  20924586.570    20924594.7994
  23727691.282    -9837380.855 8  -7651683.93245  23727691.162    23727702.8614
  20511288.050   -26909374.170 9 -20955019.03648  20511287.871    20511295.0404
  23578758.362    -6251040.491 8  -4686964.36145  23578757.806    23578770.6844
  21655630.538   -21368231.736 8 -15846858.40947  21655629.710    21655638.1924
  21576601.218   -20174905.030 9 -15704323.32347  21576601.509    21576610.0244
  23923736.620    -9766286.596 8  -7596043.90745  23923736.193    23923749.6344
  22265273.282   -16099492.382 8 -12525504.21247  22265272.773    22265282.6174
  23261819.893   -12771839.511 8  -9541079.53746  23261819.288    23261832.8014
 02  1 27  1 55 30.0000000  0  9 23 26 06 05 10 30 18 17 15
  20915892.306   -17988242.630 9 -13999068.73448  20915891.820    20915900.0184
  23710802.200    -9926132.621 7  -7720840.89645  23710802.064    23710813.6154
  20505230.202   -26941208.126 9 -20979824.64348  20505230.015    20505237.1674
  23598740.748    -6146032.592 8  -4605140.14645  23598740.202    23598753.0684
  21669180.848   -21297024.234 8 -15791372.01447  21669180.039    21669188.4754
  21591445.098   -20096899.994 9 -15643540.19347  21591445.353    21591453.8744
  23903213.117    -9874137.266 8  -7680083.11745  23903212.760    23903226.0154
  22255453.406   -16151095.446 8 -12565714.23147  22255452.901    22255462.7164
  23248090.995   -12843984.602 8  -9597296.28446  23248090.372    23248103.8784
 02  1 27  1 56  0.0000000  0  9 23 26 06 05 10 30 18 17 15
  20907290.766   -18033443.497 9 -14034290.06448  20907290.284    20907298.4394
  23693935.234   -10014767.734 7  -7789906.97345  23693935.131    23693946.5534
  20499234.439   -26972715.858 9 -21004376.04548  20499234.256    20499241.3724
  23618734.987    -6040962.639 8  -4523267.58145  23618734.431    23618747.3844
  21682810.990   -21225397.329 8 -15735558.80747  21682810.183    21682818.5664
  21606360.147   -20018521.060 9 -15582465.70647  21606360.428    21606368.9034
  23882716.061    -9981848.873 8  -7764013.99645  23882715.650    23882728.8654
  22245667.837   -16202518.206 8 -12605783.75347  22245667.325    22245677.1144
  23234392.990   -12915967.544 8  -9653386.66146  23234392.375    23234405.7844
 02  1 27  1 56 30.0000000  0  9 23 26 06 05 10 30 18 17 15
  20898782.678   -18078153.394 9 -14069128.82248  20898782.194    20898790.3234
  23677091.150   -10103282.643 7  -7858879.38545  23677091.061    23677102.5204
  20493301.071   -27003895.615 9 -21028671.88948  20493300.883    20493307.9564
  23638740.481    -5935833.278 8  -4441348.72845  23638739.811    23638753.0214
  21696520.454   -21153353.623 8 -15679420.82247  21696519.622    21696527.9734
  21621345.876   -19939770.707 9 -15521101.80447  21621346.143    21621354.5994
  23862245.930   -10089418.941 8  -7847834.59645  23862245.491    23862258.6104
  22235916.604   -16253760.761 8 -12645712.85747  22235916.086    22235925.8334
  23220725.801   -12987788.351 8  -9709350.68546  23220725.157    23220738.5504
 02  1 27  1 57  0.0000000  0  9 23 26 06 05 10 30 18 17 15
  20890368.135   -18122371.514 9 -14103584.37948  20890367.650    20890375.7534
  23660270.511   -10191674.217 7  -7927755.68445  23660270.496    23660281.8984
  20487430.439   -27034745.780 9 -21052710.90948  20487430.257    20487437.2914
  23658756.753    -5830647.296 8  -4359385.75345  23658756.084    23658769.4184
  21710308.734   -21080895.771 8 -15622960.13147  21710307.897    21710316.2234
  21636401.715   -19860651.833 9 -15459450.73647  21636402.000    21636410.4384
  23841803.093   -10196845.403 8  -7931543.29645  23841802.654    23841815.7214
  22226199.551   -16304823.610 8 -12685501.94047  22226199.033    22226208.7304
  23207089.416   -13059447.326 8  -9765188.61646  23207088.737    23207102.1234
 02  1 27  1 57 30.0000000  0  9 23 26 06 05 10 30 18 17 15
  20882047.373   -18166096.915 9 -14137656.00048  20882046.880    20882054.9604
  23643474.155   -10279938.493 8  -7996532.78545  23643474.164    23643485.6134
  20481622.901   -27065264.389 9 -21076491.57848  20481622.718    20481629.7194
  23678783.337    -5725406.974 8  -4277380.43645  23678782.680    23678796.1844
  21724175.294   -21008026.330 8 -15566178.71847  21724174.497    21724182.7584
  21651527.187   -19781167.074 9 -15397514.56847  21651527.450    21651535.9174
  23821388.150   -10304125.665 8  -8015138.08945  23821387.767    23821400.6344
  22216516.697   -16355706.806 8 -12725151.03047  22216516.176    22216525.8594
  23193483.859   -13130944.197 8  -9820900.21246  23193483.186    23193496.4764
 02  1 27  1 58  0.0000000  0  9 23 26 06 05 10 30 18 17 15
  20873820.486   -18209329.045 9 -14171343.25848  20873819.985    20873828.0404
  23626702.572   -10368072.529 8  -8065208.41245  23626702.684    23626713.9564
  20475878.708   -27095450.007 9 -21100012.76648  20475878.524    20475885.4914
  23698819.760    -5620115.287 7  -4195335.09045  23698819.098    23698832.7944
  21738119.639   -20934748.317 8 -15509078.94047  21738118.834    21738127.0704
  21666721.680   -19701319.528 9 -15335295.72247  21666721.940    21666730.4084
  23801001.383   -10411257.795 8  -8098617.44045  23801000.990    23801013.7904
  22206867.908   -16406410.881 8 -12764660.55247  22206867.376    22206877.0434
  23179909.081   -13202279.194 8  -9876485.66846  23179908.464    23179921.6344
 02  1 27  1 58 30.0000000  0  9 23 26 06 05 10 30 18 17 15
  20865687.616   -18252067.098 9 -14204645.51648  20865687.116    20865695.1524
  23609956.435   -10456072.885 7  -8133779.87245  23609956.578    23609967.6834
  20470198.193   -27125300.977 9 -21123273.18848  20470198.007    20470204.9604
  23718865.425    -5514774.989 8  -4113251.86545  23718864.802    23718878.5864
  21752141.195   -20861064.462 8 -15451662.91747  21752140.416    21752148.6124
  21681984.673   -19621111.940 9 -15272796.31647  21681984.934    21681993.4164
  23780643.224   -10518239.616 8  -8181979.66245  23780642.804    23780655.5634
  22197253.123   -16456936.223 8 -12804030.79547  22197252.602    22197262.2344
  23166365.118   -13273452.372 8  -9931945.01746  23166364.420    23166377.5714
 02  1 27  1 59  0.0000000  0  9 23 26 06 05 10 30 18 17 15
  20857648.903   -18294310.253 9 -14237562.14548  20857648.391    20857656.4204
  23593236.368   -10543936.182 7  -8202244.49145  23593236.463    23593247.6054
  20464581.707   -27154815.541 9 -21146271.47748  20464581.535    20464588.4814
  23738919.774    -5409388.804 7  -4031132.88545  23738919.178    23738933.0494
  21766239.491   -20786977.403 8 -15393932.72047  21766238.706    21766246.9004
  21697315.651   -19540547.135 8 -15210018.56347  21697315.901    21697324.4014
  23760314.088   -10625068.850 8  -8265222.98045  23760313.638    23760326.3744
  22187672.319   -16507283.036 8 -12843261.93047  22187671.795    22187681.4144
  23152851.940   -13344463.534 8  -9987278.11446  23152851.285    23152864.3374
 02  1 27  1 59 30.0000000  0  9 23 26 06 05 10 30 18 17 15
  20849704.532   -18336057.693 9 -14270092.50148  20849704.040    20849712.0464
  23576543.042   -10631658.965 7  -8270599.64745  23576543.100    23576554.1674
  20459029.531   -27183992.047 9 -21169006.34448  20459029.369    20459036.2944
  23758982.396    -5303959.286 7  -3948980.13745  23758981.869    23758995.8144
  21780414.006   -20712489.797 8 -15335890.40847  21780413.204    21780421.3944
  21712714.048   -19459628.032 8 -15146964.73447  21712714.301    21712722.8144
  23740014.294   -10731743.553 8  -8348345.85345  23740013.891    23740026.6624
  22178125.442   -16557451.694 8 -12882354.24747  22178124.914    22178134.4904
  23139369.611   -13415312.804 8 -10042485.06446  23139368.958    23139381.9544
 02  1 27  2  0  0.0000000  0  9 23 26 06 05 10 30 18 17 15
  20841854.643   -18377308.521 9 -14302235.89548  20841854.155    20841862.1504
  23559877.191   -10719237.604 7  -8338842.47445  23559877.177    23559888.2424
  20453542.079   -27212828.618 9 -21191476.32648  20453541.898    20453548.8134
  23779052.816    -5198488.884 8  -3866795.52445  23779052.304    23779066.3534
  21794664.243   -20637604.180 8 -15277537.95547  21794663.429    21794671.6034
  21728179.400   -19378357.235 9 -15083636.86047  21728179.654    21728188.1394
  23719744.456   -10838261.194 8  -8431346.33745  23719743.984    23719756.7794
  22168612.381   -16607442.533 8 -12921307.99947  22168611.850    22168621.3844
  23125918.088   -13486000.054 8 -10097565.76146  23125917.411    23125930.3264
 02  1 27  2  0 30.0000000  0  9 23 26 06 05 10 30 18 17 15
  20834099.396   -18418062.150 9 -14333991.85448  20834098.904    20834106.8864
  23543239.362   -10806668.793 7  -8406970.39845  23543239.475    23543250.4064
  20448119.641   -27241323.541 9 -21213680.08748  20448119.462    20448126.3584
  23799130.466    -5092980.293 8  -3784581.15845  23799129.905    23799144.0324
  21808989.672   -20562323.387 8 -15218877.57147  21808988.871    21808997.0254
  21743711.111   -19296737.735 9 -15020037.27147  21743711.352    21743719.8244
  23699504.834   -10944619.584 8  -8514222.70645  23699504.425    23699517.2774
  22159133.132   -16657255.647 8 -12960123.27147  22159132.612    22159142.0804
  23112497.343   -13556525.528 8 -10152520.38246  23112496.672    23112509.5044
 02  1 27  2  1  0.0000000  0  9 23 26 06 05 10 30 18 17 15
  20826438.893   -18458317.886 9 -14365359.84348  20826438.397    20826446.3654
  23526630.225   -10893949.230 7  -8474980.85545  23526630.314    23526641.2294
  20442762.476   -27269475.286 9 -21235616.43648  20442762.280    20442769.1694
  23819214.928    -4987436.347 8  -3702339.23445  23819214.341    23819228.4864
  21823389.759   -20486650.345 8 -15159911.54147  21823388.952    21823397.0824
  21759308.608   -19214772.458 8 -14956168.23947  21759308.864    21759317.2994
  23679296.011   -11050816.580 8  -8596973.29645  23679295.565    23679308.4344
  22149687.598   -16706891.699 8 -12998800.56847  22149687.081    22149696.5344
  23099107.307   -13626889.364 8 -10207349.06446  23099106.632    23099119.4094
 02  1 27  2  1 30.0000000  0  9 23 26 06 05 10 30 18 17 15
  20818873.276   -18498074.909 9 -14396339.23048  20818872.794    20818880.7324
  23510050.495   -10981075.159 7  -8542870.89845  23510050.582    23510061.5364
  20437470.976   -27297282.058 9 -21257283.97048  20437470.784    20437477.6434
  23839305.654    -4881859.552 8  -3620071.70945  23839305.112    23839319.1794
  21837863.989   -20410587.479 8 -15100641.76147  21837863.172    21837871.3514
  21774971.409   -19132464.007 8 -14892031.80347  21774971.651    21774980.0794
  23659118.296   -11156849.948 8  -8679596.36345  23659117.864    23659130.6374
  22140275.744   -16756350.804 8 -13037339.99147  22140275.227    22140284.6384
  23085748.100   -13697091.319 8 -10262051.58846  23085747.450    23085760.1224
 02  1 27  2  2  0.0000000  0  9 23 26 06 05 10 30 18 17 15
  20811402.745   -18537332.433 9 -14426929.40148  20811402.256    20811410.1634
  23493500.802   -11068043.154 8  -8610637.88445  23493500.898    23493511.8354
  20432245.433   -27324742.043 9 -21278681.28648  20432245.241    20432252.0804
  23859402.169    -4776252.292 8  -3537780.45645  23859401.620    23859415.7154
  21852411.868   -20334137.636 8 -15041070.44047  21852411.061    21852419.2344
  21790698.972   -19049815.183 8 -14827630.14447  21790699.213    21790707.6404
  23638972.190   -11262717.196 8  -8762089.97445  23638971.751    23638984.5204
  22130897.508   -16805633.085 8 -13075741.63447  22130896.999    22130906.3724
  23072419.812   -13767131.096 8 -10316627.75946  23072419.137    23072431.7044
 02  1 27  2  2 30.0000000  0  9 23 26 06 05 10 30 18 17 15
  20804027.304   -18576090.080 9 -14457130.05348  20804026.812    20804034.6984
  23476981.793   -11154849.953 7  -8678279.24045  23476981.924    23476992.7544
  20427086.184   -27351853.819 9 -21299807.26048  20427085.983    20427092.8144
  23879503.923    -4670617.586 8  -3455467.81345  23879503.353    23879517.3134
  21867032.825   -20257303.745 8 -14981199.85647  21867032.019    21867040.2104
  21806490.635   -18966829.348 8 -14762965.87547  21806490.880    21806499.3334
  23618857.997   -11368416.716 8  -8844452.87445  23618857.575    23618870.2964
  22121552.832   -16854739.179 8 -13114005.97947  22121552.318    22121561.6624
  23059122.269   -13837008.952 8 -10371077.74246  23059121.603    23059134.1024
 02  1 27  2  3  0.0000000  0  9 23 26 06 05 10 30 18 17 15
  20796747.200   -18614346.986 9 -14486940.51848  20796746.692    20796754.5444
  23460494.151   -11241491.970 8  -8745792.19345  23460494.338    23460505.0744
  20421993.507   -27378615.641 9 -21320660.54548  20421993.308    20422000.1314
  23899610.474    -4564957.866 8  -3373135.66945  23899609.894    23899623.7364
  21881726.384   -20180088.418 8 -14921032.05547  21881725.577    21881733.7624
  21822345.998   -18883508.824 8 -14698040.81747  21822346.264    21822354.7404
  23598776.260   -11473945.883 8  -8926683.01445  23598775.818    23598788.4704
  22112241.652   -16903669.113 8 -13152133.06147  22112241.124    22112250.4564
  23045855.542   -13906724.885 8 -10425401.55446  23045854.857    23045867.2674
 02  1 27  2  3 30.0000000  0  9 23 26 06 05 10 30 18 17 15
  20789562.503   -18652102.270 9 -14516360.11248  20789562.006    20789569.8204
  23444038.523   -11327965.553 8  -8813173.88945  23444038.650    23444049.4754
  20416967.798   -27405025.598 9 -21341239.65048  20416967.598    20416974.3984
  23919721.281    -4459275.679 8  -3290786.00845  23919720.692    23919734.5044
  21896492.004   -20102494.255 8 -14860569.05547  21896491.175    21896499.4284
  21838264.506   -18799856.521 8 -14632857.22147  21838264.764    21838273.2684
  23578727.340   -11579302.443 8  -9008778.65945  23578726.878    23578739.3634
  22102963.977   -16952423.122 8 -13190123.05747  22102963.437    22102972.7404
  23032619.637   -13976278.866 8 -10479599.17646  23032618.981    23032631.2884
 02  1 27  2  4  0.0000000  0  9 23 26 06 05 10 30 18 17 15
  20782473.368   -18689355.582 9 -14545388.56148  20782472.864    20782480.6374
  23427615.593   -11414267.296 7  -8880421.69445  23427615.719    23427626.4594
  20412009.332   -27431082.188 9 -21361543.40748  20412009.130    20412015.8974
  23939835.824    -4353573.817 8  -3208421.03045  23939835.156    23939849.0244
  21911329.180   -20024524.256 8 -14799813.20147  21911328.383    21911336.6144
  21854245.620   -18715875.341 8 -14567417.35647  21854245.880    21854254.3844
  23558711.572   -11684484.346 8  -9090738.20545  23558711.174    23558723.5694
  22093719.681   -17001001.650 8 -13227976.32247  22093719.137    22093728.4434
  23019414.571   -14045670.854 8 -10533670.57246  23019413.882    23019426.1774
 02  1 27  2  4 30.0000000  0  9 23 26 06 05 10 30 18 17 15
  20775479.841   -18726106.397 9 -14574025.44848  20775479.345    20775487.0594
  23411226.048   -11500393.828 8  -8947532.98745  23411226.206    23411236.8844
  20407118.479   -27456783.591 9 -21381570.38348  20407118.276    20407125.0144
  23959953.576    -4247854.809 8  -3126042.66645  23959953.009    23959966.7244
  21926237.375   -19946180.937 8 -14738766.44447  21926236.572    21926244.8054
  21870288.740   -18631568.350 8 -14501723.61447  21870288.984    21870297.4914
  23538729.479   -11789489.387 8  -9172559.93545  23538729.008    23538741.3814
  22084508.716   -17049405.001 8 -13265693.07647  22084508.173    22084517.4574
  23006240.350   -14114900.771 8 -10587615.66946  23006239.682    23006251.8724
 02  1 27  2  5  0.0000000  0  9 23 26 06 05 10 30 18 17 15
  20768582.099   -18762353.916 9 -14602270.16048  20768581.590    20768589.2734
  23394870.508   -11586341.609 8  -9014504.98945  23394870.689    23394881.2574
  20402295.473   -27482128.254 9 -21401319.38748  20402295.275    20402302.0034
  23980074.101    -4142121.258 8  -3043652.97945  23980073.580    23980087.1584
  21941216.101   -19867467.262 8 -14677431.10347  21941215.283    21941223.5094
  21886393.321   -18546938.305 8 -14435778.13947  21886393.565    21886402.0644
  23518781.429   -11894315.245 8  -9254242.05245  23518781.017    23518793.2214
  22075331.018   -17097633.508 8 -13303273.59547  22075330.477    22075339.7504
  22993096.933   -14183968.802 8 -10641434.62146  22993096.251    22993108.3984
 02  1 27  2  5 30.0000000  0  9 23 26 06 05 10 30 18 17 15
  20761780.156   -18798097.898 9 -14630122.51148  20761779.649    20761787.2924
  23378549.663   -11672107.338 8  -9081335.13645  23378549.807    23378560.2994
  20397540.690   -27507114.583 9 -21420789.16648  20397540.497    20397547.2024
  24000196.871    -4036375.818 8  -2961254.01745  24000196.260    24000209.9504
  21956264.806   -19788385.816 8 -14615809.19046  21956264.005    21956272.2054
  21902558.791   -18461988.216 8 -14369583.28347  21902559.044    21902567.5544
  23498867.906   -11998960.017 8  -9335783.06945  23498867.513    23498879.5384
  22066186.544   -17145687.523 8 -13340718.15247  22066186.007    22066195.2404
  22979984.280   -14252875.000 8 -10695127.46846  22979983.618    22979995.6974
 02  1 27  2  6  0.0000000  0  9 23 26 06 05 10 30 18 17 15
  20755074.188   -18833337.714 9 -14657582.00548  20755073.692    20755081.2754
  23362264.070   -11757687.426 8  -9148020.64445  23362264.202    23362274.7024
  20392854.409   -27531740.812 9 -21439978.35148  20392854.221    20392860.9104
  24020321.359    -3930620.978 8  -2878847.73245  24020320.748    24020334.6074
  21971382.959   -19708939.418 8 -14553902.89546  21971382.158    21971390.3264
  21918784.642   -18376720.885 8 -14303141.22347  21918784.901    21918793.3844
  23478989.247   -12103421.554 8  -9417181.29545  23478988.875    23479000.7954
  22057075.209   -17193567.339 8 -13378026.96747  22057074.685    22057083.8944
  22966902.424   -14321619.420 8 -10748694.25046  22966901.765    22966913.7434
 02  1 27  2  6 30.0000000  0  9 23 26 06 05 10 30 18 17 15
  20748464.273   -18868072.710 9 -14684648.13048  20748463.768    20748471.3174
  23346014.521   -11843078.328 8  -9214558.72945  23346014.631    23346025.0744
  20388236.967   -27556005.249 9 -21458885.62248  20388236.778    20388243.4464
  24040447.178    -3824859.295 7  -2796436.11345  24040446.605    24040460.4784
  21986570.051   -19629130.861 8 -14491714.39446  21986569.255    21986577.3774
  21935070.289   -18291139.273 8 -14236454.27147  21935070.547    21935079.0334
  23459145.948   -12207697.442 8  -9498434.88345  23459145.572    23459157.3414
  22047997.021   -17241273.138 8 -13415200.19147  22047996.500    22048005.6604
  22953851.423   -14390201.842 8 -10802134.80046  22953850.750    22953862.6794
 02  1 27  2  7  0.0000000  0  9 23 26 06 05 10 30 18 17 15
  20741950.418   -18902302.876 9 -14711320.88648  20741949.897    20741957.4224
  23329801.639   -11928276.860 8  -9280946.92845  23329801.725    23329812.0674
  20383688.635   -27579906.609 9 -21477509.97748  20383688.446    20383695.0864
  24060573.711    -3719093.833 7  -2714021.54245  24060573.122    24060587.0834
  22001825.509   -19548963.117 8 -14429246.00346  22001824.704    22001832.8364
  21951415.157   -18205246.528 8 -14169524.88447  21951415.401    21951423.8954
  23439338.341   -12311785.864 8  -9579542.39345  23439337.954    23439349.5974
  22038951.769   -17288805.648 8 -13452238.39447  22038951.252    22038960.3554
  22940831.133   -14458622.739 8 -10855449.48146  22940830.464    22940842.3414
 02  1 27  2  7 30.0000000  0  9 23 26 06 05 10 30 18 17 15
  20735532.770   -18936027.431 9 -14737599.65948  20735532.250    20735539.7484
  23313626.007   -12013279.427 8  -9347182.43245  23313626.112    23313636.3714
  20379209.751   -27603442.959 9 -21495849.90948  20379209.567    20379216.1744
  24080700.561    -3613326.945 7  -2631605.87445  24080699.968    24080714.0334
  22017148.837   -19468438.640 8 -14366499.64046  22017148.036    22017156.1634
  21967818.666   -18119045.492 8 -14102355.28447  21967818.935    21967827.3774
  23419566.898   -12415684.598 8  -9660502.10045  23419566.512    23419578.0534
  22029939.490   -17336164.970 8 -13489141.64847  22029938.981    22029948.0324
  22927841.637   -14526882.021 8 -10908638.22946  22927840.937    22927852.7664
 02  1 27  2  8  0.0000000  0  9 23 26 06 05 10 30 18 17 15
  20729211.410   -18969245.992 9 -14763484.15248  20729210.896    20729218.3684
  23297488.343   -12098082.598 8  -9413262.56945  23297488.415    23297498.6364
  20374800.647   -27626612.676 9 -21513904.15748  20374800.469    20374807.0374
  24100827.182    -3507561.204 7  -2549191.09545  24100826.624    24100840.6004
  22032539.496   -19387560.249 8 -14303477.50346  22032538.691    22032546.8134
  21984280.375   -18032539.047 8 -14034947.69347  21984280.619    21984289.0324
  23399831.922   -12519391.490 8  -9741312.32745  23399831.544    23399842.9644
  22020960.094   -17383351.500 8 -13525910.26547  22020959.567    22020968.5924
  22914882.823   -14594979.792 8 -10961701.10546  22914882.118    22914893.8574
 02  1 27  2  8 30.0000000  0  9 23 26 06 05 10 30 18 17 15
  20722986.438   -19001958.012 9 -14788973.94148  20722985.936    20722993.3794
  23281389.288   -12182682.586 8  -9479184.40045  23281389.380    23281399.5454
  20370461.604   -27649414.030 9 -21531671.36748  20370461.423    20370467.9804
  24120953.143    -3401799.066 7  -2466779.12145  24120952.632    24120966.5604
  22047996.942   -19306330.828 8 -14240181.84346  22047996.140    22048004.2784
  22000799.641   -17945729.913 8 -13967304.24647  22000799.903    22000808.2694
  23380133.956   -12622903.840 8  -9821970.96546  23380133.591    23380144.9274
  22012013.575   -17430365.297 8 -13562544.28147  22012013.051    22012022.0424
  22901954.780   -14662915.849 8 -11014637.97846  22901954.078    22901965.7864
 02  1 27  2  9  0.0000000  0  9 23 26 06 05 10 30 18 17 15
  20716857.926   -19034163.168 9 -14814068.77548  20716857.418    20716864.8384
  23265329.553   -12267076.168 8  -9544945.40645  23265329.648    23265339.7104
  20366192.961   -27671845.570 9 -21549150.41648  20366192.778    20366199.3184
  24141077.994    -3296043.033 7  -2384371.92245  24141077.490    24141091.3654
  22063520.708   -19224753.060 8 -14176614.73946  22063519.913    22063528.0464
  22017375.921   -17858621.060 8 -13899427.25647  22017376.188    22017384.5124
  23360473.379   -12726219.569 8  -9902476.38046  23360472.991    23360484.2674
  22003099.869   -17477206.687 8 -13599043.96047  22003099.341    22003108.2994
  22889057.529   -14730690.138 8 -11067448.80246  22889056.816    22889068.4244
 02  1 27  2  9 30.0000000  0  9 23 26 06 05 10 30 18 17 15
  20710825.937   -19065860.997 9 -14838768.28548  20710825.434    20710832.8234
  23249309.847   -12351259.632 8  -9610542.68245  23249309.919    23249319.9644
  20361995.041   -27693905.457 9 -21566339.86148  20361994.864    20362001.4024
  24161201.109    -3190295.689 7  -2301971.48245  24161200.679    24161214.4134
  22079110.176   -19142829.862 8 -14112778.46146  22079109.361    22079117.5204
  22034008.671   -17771215.582 8 -13831319.12847  22034008.903    22034017.2534
  23340850.593   -12829336.623 8  -9982826.99546  23340850.216    23340861.4294
  21994218.890   -17523876.127 8 -13635409.65647  21994218.389    21994227.2864
  22876190.988   -14798302.821 8 -11120133.69446  22876190.293    22876201.8614
 02  1 27  2 10  0.0000000  0  9 23 26 06 05 10 30 18 17 15
  20704890.520   -19097051.387 9 -14863072.38748  20704890.023    20704897.3884
  23233330.677   -12435229.757 8  -9675973.71845  23233330.730    23233340.7684
  20357868.073   -27715592.491 9 -21583238.77348  20357867.901    20357874.4434
  24181321.999    -3084559.840 7  -2219580.00045  24181321.509    24181335.4424
  22094764.794   -19060563.947 8 -14048675.12846  22094763.983    22094772.1794
  22050697.266   -17683516.479 8 -13762982.19647  22050697.490    22050705.8834
  23321265.988   -12932253.089 8 -10063021.30346  23321265.594    23321276.7054
  21985370.532   -17570374.058 8 -13671641.70747  21985370.025    21985378.8994
  22863355.226   -14865754.170 8 -11172692.88046  22863354.510    22863366.0054
 02  1 27  2 10 30.0000000  0  9 23 26 06 05 10 30 18 17 15
  20699051.806   -19127733.694 9 -14886980.59148  20699051.305    20699058.6554
  23217392.873   -12518982.854 8  -9741235.66245  23217392.904    23217402.8674
  20353812.463   -27736904.562 9 -21599845.51348  20353812.299    20353818.8274
  24201440.268    -2978837.688 7  -2137199.19545  24201439.812    24201453.8494
  22110484.182   -18977957.931 8 -13984306.78846  22110483.361    22110491.5764
  22067441.205   -17595526.530 8 -13694418.63647  22067441.438    22067449.8784
  23301719.994   -13034966.580 8 -10143057.45346  23301719.586    23301730.6324
  21976554.804   -17616700.555 8 -13707740.18847  21976554.278    21976563.1394
  22850550.159   -14933044.060 8 -11225126.26946  22850549.445    22850560.8304
 02  1 27  2 11  0.0000000  0  9 23 26 06 05 10 30 18 17 15
  20693309.872   -19157907.359 9 -14910492.44748  20693309.370    20693316.6914
  23201497.020   -12602515.209 8  -9806325.60145  23201497.128    23201506.9964
  20349828.516   -27757839.963 9 -21616158.74248  20349828.347    20349834.8714
  24221555.406    -2873131.607 7  -2054830.91745  24221554.966    24221569.1664
  22126267.745   -18895014.606 8 -13919675.61546  22126266.944    22126275.1884
  22084239.986   -17507248.348 8 -13625630.48447  22084240.248    22084248.6774
  23282213.062   -13137474.862 8 -10222933.69046  23282212.640    23282223.5854
  21967771.710   -17662855.690 8 -13743705.13947  21967771.189    21967780.0124
  22837775.848   -15000172.411 8 -11277433.77246  22837775.138    22837786.4184
 02  1 27  2 11 30.0000000  0  9 23 26 06 05 10 30 18 17 15
  20687664.745   -19187572.334 9 -14933607.91848  20687664.238    20687671.5294
  23185643.887   -12685823.491 8  -9871240.94345  23185643.943    23185653.8114
  20345916.537   -27778397.245 9 -21632177.33548  20345916.365    20345922.8734
  24241666.871    -2767444.525 7  -1972477.44845  24241666.523    24241680.8494
  22142114.926   -18811736.946 8 -13854783.92046  22142114.123    22142122.3414
  22101093.023   -17418685.150 8 -13556620.24347  22101093.301    22101101.7444
  23262745.516   -13239776.100 8 -10302648.56946  23262745.087    23262755.9094
  21959021.120   -17708840.012 8 -13779536.98747  21959020.587    21959029.3874
  22825032.262   -15067139.272 8 -11329615.46146  22825031.540    22825042.7234
 02  1 27  2 12  0.0000000  0  9 23 26 06 05 10 30 18 17 15
  20682116.445   -19216728.481 9 -14956326.90348  20682115.949    20682123.1994
  23169834.018   -12768904.185 8  -9935978.93645  23169834.078    23169843.8424
  20342076.812   -27798574.845 9 -21647900.07348  20342076.634    20342083.1264
  24261774.297    -2661778.972 7  -1890140.74545  24261773.903    24261788.5524
  22158025.229   -18728127.534 8 -13789633.71546  22158024.439    22158032.6294
  22117999.718   -17329840.039 8 -13487390.33447  22117999.977    22118008.4204
  23243317.855   -13341867.977 8 -10382200.32646  23243317.436    23243328.1044
  21950302.957   -17754653.918 8 -13815236.03947  21950302.402    21950311.1884
  22812319.407   -15133944.608 8 -11381671.28346  22812318.691    22812329.7984
 02  1 27  2 12 30.0000000  0  9 23 26 06 05 10 30 18 17 15
  20676664.970   -19245375.755 9 -14978649.36148  20676664.473    20676671.6904
  23154068.071   -12851754.160 8 -10000537.16045  23154068.133    23154077.7334
  20338309.606   -27818371.380 9 -21663325.87248  20338309.431    20338315.8904
  24281877.241    -2556137.667 7  -1807822.95845  24281876.896    24281891.4924
  22173998.061   -18644189.486 8 -13724227.42546  22173997.261    22174005.4534
  22134959.466   -17240716.126 8 -13417943.17347  22134959.706    22134968.1714
  23223930.386   -13443748.452 8 -10461587.34046  23223929.928    23223940.5484
  21941617.157   -17800297.856 8 -13850802.65547  21941616.615    21941625.3594
  22799637.205   -15200588.872 8 -11433601.60346  22799636.490    22799647.5194
 02  1 27  2 13  0.0000000  0  9 23 26 06 05 10 30 18 17 15
  20671310.509   -19273513.243 9 -15000574.58348  20671310.010    20671317.2024
  23138346.816   -12934369.190 8 -10064912.31945  23138346.876    23138356.4894
  20334615.324   -27837784.636 9 -21678453.01548  20334615.139    20334621.5814
  24301975.341    -2450522.529 7  -1725525.56245  24301974.912    24301989.3414
  22190032.995   -18559925.043 8 -13658566.81346  22190032.200    22190040.3714
  22151971.800   -17151315.735 8 -13348280.56847  22151972.059    22151980.5354
  23204583.666   -13545415.054 8 -10540807.70846  23204583.182    23204593.7814
  21932963.723   -17845771.590 8 -13886236.63847  21932963.186    21932971.9064
  22786985.721   -15267071.716 8 -11485406.15146  22786985.019    22786995.9664
 02  1 27  2 13 30.0000000  0  9 23 26 06 05 10 30 18 17 15
  20666052.952   -19301141.507 9 -15022103.00948  20666052.460    20666059.6144
  23122670.732   -13016746.688 8 -10129102.38645  23122670.839    23122680.3484
  20330994.130   -27856813.963 9 -21693280.99548  20330993.946    20331000.3494
  24322067.876    -2344936.646 7  -1643250.96245  24322067.443    24322081.8774
  22206129.405   -18475337.755 8 -13592654.62846  22206128.617    22206136.7504
  22169036.018   -17061642.758 8 -13278405.56747  22169036.305    22169044.7674
  23185277.865   -13646866.303 8 -10619860.24046  23185277.347    23185287.8824
  21924342.447   -17891076.194 8 -13921538.84047  21924341.914    21924350.6104
  22774364.891   -15333393.520 8 -11537085.23046  22774364.176    22774375.0644
 02  1 27  2 14  0.0000000  0  9 23 26 06 05 10 30 18 17 15
  20660892.424   -19328259.902 9 -15043234.13748  20660891.922    20660899.0494
  23107040.616   -13098882.632 8 -10193104.22545  23107040.679    23107050.2604
  20327446.351   -27875457.355 9 -21707808.25148  20327446.172    20327452.5674
  24342154.408    -2239382.210 7  -1561000.88145  24342153.977    24342168.2424
  22222286.848   -18390429.873 8 -13526492.63646  22222286.061    22222294.1434
  22186151.635   -16971699.536 8 -13208319.98846  22186151.907    22186160.4194
  23166013.473   -13748099.719 8 -10698743.05946  23166012.963    23166023.4614
  21915753.402   -17936211.494 8 -13956709.11547  21915752.890    21915761.5534
  22761774.707   -15399554.072 8 -11588638.65946  22761774.002    22761784.8284
 02  1 27  2 14 30.0000000  0  9 23 26 06 05 10 30 18 17 15
  20655828.904   -19354868.468 9 -15063967.99148  20655828.418    20655835.5184
  23091456.978   -13180773.940 8 -10256915.44445  23091457.058    23091466.6394
  20323972.252   -27893713.573 9 -21722033.80848  20323972.067    20323978.4514
  24362234.423    -2133861.911 7  -1478777.40445  24362233.936    24362248.1364
  22238504.708   -18305204.538 8 -13460083.27846  22238503.894    22238511.9254
  22203318.086   -16881489.414 8 -13138026.43046  22203318.362    22203326.8774
  23146790.879   -13849113.521 8 -10777454.72946  23146790.391    23146800.8714
  21907196.480   -17981178.148 8 -13991747.97047  21907195.944    21907204.5854
  22749215.159   -15465553.893 8 -11640066.84846  22749214.427    22749225.2114
 02  1 27  2 15  0.0000000  0  9 23 26 06 05 10 30 18 17 15
  20650862.485   -19380966.812 9 -15084304.27148  20650861.996    20650869.0834
  23075920.717   -13262416.545 8 -10320532.86045  23075920.812    23075930.4524
  20320572.228   -27911580.609 9 -21735956.11148  20320572.051    20320578.4224
  24382307.507    -2028378.031 7  -1396582.30545  24382307.020    24382321.2134
  22254782.531   -18219663.994 8 -13393428.30646  22254781.705    22254789.7144
  22220534.832   -16791015.036 8 -13067526.95146  22220535.103    22220543.6394
  23127610.586   -13949905.106 8 -10855993.26046  23127610.130    23127620.5104
  21898671.647   -18025976.082 8 -14026655.34447  21898671.126    21898679.7244
  22736686.253   -15531392.682 8 -11691369.56946  22736685.521    22736696.2614
 02  1 27  2 15 30.0000000  0  9 23 26 06 05 10 30 18 17 15
  20645993.134   -19406555.091 9 -15104243.09848  20645992.627    20645999.7064
  23060432.352   -13343807.478 8 -10383954.17245  23060432.416    23060442.0884
  20317246.491   -27929057.257 9 -21749574.21748  20317246.313    20317252.6604
  24402373.113    -1922933.377 7  -1314417.76545  24402372.609    24402386.6604
  22271119.746   -18133811.420 8 -13326530.20246  22271118.925    22271126.8724
  22237801.206   -16700279.740 8 -12996824.16546  22237801.490    22237809.9894
  23108472.842   -14050472.939 8 -10934357.43346  23108472.428    23108482.6924
  21890178.791   -18070605.915 8 -14061431.73747  21890178.275    21890186.8444
  22724187.912   -15597070.789 8 -11742547.08746  22724187.213    22724197.8894
 02  1 27  2 16  0.0000000  0  9 23 26 06 05 10 30 18 17 15
  20641220.903   -19431632.986 9 -15123784.21948  20641220.411    20641227.4614
  23044992.558   -13424943.025 8 -10447176.48245  23044992.614    23045002.3344
  20313995.328   -27946141.827 9 -21762886.80748  20313995.144    20314001.4744
  24422430.780    -1817530.404 7  -1232285.70345  24422430.173    24422444.2764
  22287515.851   -18047649.586 8 -13259391.10946  22287515.034    22287522.9364
  22255116.732   -16609286.358 8 -12925920.27446  22255117.023    22255125.5064
  23089378.138   -14150814.957 8 -11012545.65446  23089377.708    23089387.8584
  21881717.878   -18115067.948 8 -14096077.36647  21881717.362    21881725.8854
  22711720.186   -15662588.054 8 -11793599.29146  22711719.484    22711730.1264
 02  1 27  2 16 30.0000000  0  9 23 26 06 05 10 30 18 17 15
  20636545.806   -19456200.411 9 -15142927.57848  20636545.307    20636552.3424
  23029601.988   -13505819.816 8 -10510197.15745  23029601.979    23029611.7474
  20310819.080   -27962832.888 9 -21775892.77148  20310818.893    20310825.2014
  24442479.978    -1712171.600 7  -1150188.05845  24442479.343    24442493.5634
  22303970.273   -17961181.155 8 -13192013.11246  22303969.473    22303977.3484
  22272480.797   -16518037.791 8 -12854817.53546  22272481.072    22272489.5854
  23070326.861   -14250928.539 8 -11090555.86246  23070326.426    23070336.4784
  21873288.850   -18159362.372 8 -14130592.39147  21873288.338    21873296.8324
  22699283.130   -15727944.331 8 -11844526.05946  22699282.414    22699293.0244
 02  1 27  2 17  0.0000000  0  9 23 26 06 05 10 30 18 17 15
  20631967.838   -19480257.323 9 -15161673.12948  20631967.346    20631974.3644
  23014261.363   -13586434.150 8 -10573013.32345  23014261.378    23014271.0744
  20307718.030   -27979128.755 9 -21788590.79148  20307717.850    20307724.1344
  24462520.283    -1606859.195 7  -1068126.57845  24462519.780    24462534.0244
  22320482.516   -17874408.815 8 -13124398.30546  22320481.702    22320489.6004
  22289892.842   -16426536.935 8 -12783518.20946  22289893.138    22289901.6684
  23051319.402   -14350811.862 8 -11168386.66746  23051319.014    23051328.9274
  21864891.718   -18203489.273 8 -14164976.86647  21864891.191    21864899.6924
  22686876.678   -15793139.583 8 -11895327.34846  22686876.003    22686886.5194
 02  1 27  2 17 30.0000000  0  9 23 26 06 05 10 30 18 17 15
  20627486.977   -19503804.067 9 -15180021.14648  20627486.488    20627493.4904
  22998971.243   -13666783.102 8 -10635622.70645  22998971.304    22998980.9784
  20304692.398   -27995028.337 9 -21800980.02448  20304692.214    20304698.4704
  24482551.285    -1501596.262 7   -986103.64045  24482550.812    24482565.1554
  22337051.993   -17787335.793 8 -13056549.19546  22337051.181    22337059.0754
  22307352.227   -16334787.317 8 -12712025.03846  22307352.481    22307361.0864
  23032356.123   -14450463.182 8 -11246036.69346  23032355.682    23032365.5374
  21856526.268   -18247449.595 9 -14199231.54247  21856525.732    21856534.2214
  22674500.776   -15858174.505 8 -11946003.72146  22674500.111    22674510.5714
 02  1 27  2 18  0.0000000  0  9 23 26 06 05 10 30 18 17 15
  20623103.285   -19526840.038 9 -15197971.15848  20623102.803    20623109.7954
  22983732.429   -13746862.650 8 -10698022.17045  22983732.553    22983742.1394
  20301742.540   -28010529.698 9 -21813058.95248  20301742.366    20301748.5974
  24502572.511    -1396384.713 7   -904120.74045  24502571.913    24502586.3534
  22353678.192   -17699964.522 8 -12988467.68946  22353677.381    22353685.3224
  22324858.439   -16242791.443 8 -12640339.99346  22324858.692    22324867.3654
  23013437.461   -14549879.935 8 -11323503.93546  23013437.039    23013446.7954
  21848192.569   -18291243.073 9 -14233356.20547  21848192.022    21848200.4914
  22662155.427   -15923048.780 8 -11996554.91246  22662154.707    22662165.1634
 02  1 27  2 18 30.0000000  0  9 23 26 06 05 10 30 18 17 15
  20618816.819   -19549365.333 9 -15215523.24248  20618816.331    20618823.3044
  22968545.536   -13826669.345 8 -10760209.02145  22968545.648    22968555.2114
  20298868.731   -28025631.385 9 -21824826.44848  20298868.546    20298874.7654
  24522583.497    -1291226.903 7   -822179.73045  24522582.899    24522597.3744
  22370360.575   -17612297.852 8 -12920155.99246  22370359.772    22370367.7484
  22342410.971   -16150552.306 8 -12568465.37646  22342411.220    22342419.9374
  22994563.822   -14649060.091 8 -11400786.84546  22994563.436    22994573.0744
  21839890.491   -18334870.149 9 -14267351.20547  21839889.949    21839898.3964
  22649840.702   -15987762.300 8 -12046980.86246  22649839.972    22649850.4294
 02  1 27  2 19  0.0000000  0  9 23 26 06 05 10 30 18 17 15
  20614627.453   -19571380.108 9 -15232677.52148  20614626.961    20614633.9104
  22953411.215   -13906199.908 8 -10822180.70745  22953411.344    22953420.8424
  20296071.266   -28040331.977 9 -21836281.40248  20296071.082    20296077.2944
  24542583.760    -1186125.607 7   -740282.74745  24542583.093    24542597.7044
  22387098.606   -17524338.551 8 -12851616.27346  22387097.795    22387105.8704
  22360009.180   -16058073.250 8 -12496403.81346  22360009.427    22360018.1304
  22975735.590   -14748001.768 8 -11477883.93346  22975735.210    22975744.7624
  21831620.030   -18378331.227 9 -14301216.84947  21831619.495    21831627.9284
  22637556.527   -16052315.381 8 -12097281.78546  22637555.796    22637566.2084
 02  1 27  2 19 30.0000000  0 10 23 26 06 05 10 30 18 17 22 15
  20610534.623   -19592887.652 9 -15249436.55248  20610534.144    20610541.0634
  22938329.496   -13985454.042 8 -10883936.99145  22938329.605    22938339.0494
  20293349.796   -28054633.168 9 -21847425.12948  20293349.616    20293355.8284
  24562572.117    -1081086.614 7   -658434.30945  24562571.405    24562586.1334
  22403891.142   -17436092.849 8 -12782853.38246  22403890.310    22403898.5044
  22377651.920   -15965360.170 8 -12424159.89346  22377652.174    22377660.8844
  22956952.508   -14846706.162 8 -11554796.13646  22956952.143    22956961.5924
  21823380.456   -18421629.915 9 -14334955.94747  21823379.929    21823388.3274
  24295177.276    -4810805.300 7  -3735284.92045  24295176.330    24295190.2004
  22625302.239   -16116711.297 8 -12147460.24046  22625301.540    22625311.8734
 02  1 27  2 20  0.0000000  0 10 23 26 06 05 10 30 18 17 22 15
  20606538.540   -19613886.859 9 -15265799.48148  20606538.051    20606544.9474
  22923301.290   -14064427.218 8 -10945474.34045  22923301.389    22923310.7754
  20290704.815   -28068532.470 9 -21858255.70048  20290704.638    20290710.8424
  24582548.395     -976110.960 7   -576635.22645  24582547.696    24582562.3854
  22420737.879   -17347562.171 8 -12713868.42746  22420737.047    22420745.3094
  22395338.798   -15872415.209 8 -12351735.30046  22395339.029    22395347.7594
  22938215.187   -14945170.300 8 -11631521.14046  22938214.854    22938224.2074
  21815171.970   -18464765.314 9 -14368567.82347  21815171.441    21815179.7704
  24282873.305    -4875462.418 7  -3785666.81245  24282872.398    24282886.0314
  22613078.055   -16180949.083 8 -12197515.49046  22613077.373    22613087.6274
 02  1 27  2 20 30.0000000  0 10 23 26 06 05 10 30 18 17 22 15
  20602640.064   -19634373.209 9 -15281762.78648  20602639.580    20602646.4454
  22908328.066   -14143111.317 8 -11006786.45045  22908328.195    22908337.4764
  20288137.474   -28082023.729 9 -21868768.31948  20288137.295    20288143.4924
  24602512.973     -871196.534 7   -494883.86345  24602512.256    24602527.0734
  22437639.174   -17258744.800 8 -12644660.08446  22437638.396    22437646.6854
  22413070.124   -15779236.727 8 -12279128.73146  22413070.364    22413079.0554
  22919524.909   -15043387.109 8 -11708053.43346  22919524.535    22919533.8294
  21806995.402   -18507733.045 9 -14402049.03847  21806994.872    21807003.1554
  24270652.045    -4939684.690 7  -3835709.88545  24270651.147    24270664.7344
  22600884.822   -16245024.252 8 -12247444.03746  22600884.154    22600894.3614
 02  1 27  2 21  0.0000000  0 10 23 26 06 05 10 30 18 17 22 15
  20598838.952   -19654347.833 9 -15297327.34348  20598838.471    20598845.2934
  22893410.355   -14221504.012 8 -11067871.49646  22893410.442    22893419.6054
  20285647.831   -28095106.613 9 -21878962.72548  20285647.649    20285653.8254
  24622465.181     -766347.039 8   -413183.08845  24622464.432    24622479.1364
  22454594.341   -17169644.563 8 -12575231.32446  22454593.548    22454601.8574
  22430845.105   -15685828.654 8 -12206343.25546  22430845.358    22430854.0614
  22900881.847   -15141355.879 8 -11784392.46346  22900881.440    22900890.7074
  21798850.466   -18550534.656 9 -14435400.81147  21798849.940    21798858.1654
  24258513.724    -5003471.355 7  -3885413.53145  24258513.081    24258526.2734
  22588722.329   -16308938.012 8 -12297246.81546  22588721.654    22588731.8044
 02  1 27  2 21 30.0000000  0 10 23 26 06 05 10 30 18 17 22 15
  20595135.101   -19673811.390 9 -15312493.67048  20595134.605    20595141.4114
  22878548.639   -14299602.414 8 -11128727.23246  22878548.710    22878557.7624
  20283236.113   -28107780.147 9 -21888838.16048  20283235.918    20283242.0834
  24642404.567     -661565.326 7   -331535.13145  24642403.949    24642418.4644
  22471602.719   -17080264.782 8 -12505584.73546  22471601.944    22471610.2064
  22448663.086   -15592194.644 8 -12133381.72646  22448663.344    22448672.0704
  22882286.259   -15239075.197 8 -11860537.13346  22882285.834    22882295.0464
  21790736.960   -18593170.795 9 -14468623.64847  21790736.437    21790744.6394
  24246458.595    -5066820.786 7  -3934776.47745  24246457.977    24246471.0174
  22576590.422   -16372691.058 8 -12346924.36946  22576589.723    22576599.8444
 02  1 27  2 22  0.0000000  0 10 23 26 06 05 10 30 18 17 22 15
  20591528.265   -19692765.095 9 -15327262.70548  20591527.762    20591534.5504
  22863743.422   -14377403.978 8 -11189351.66846  22863743.520    22863752.4054
  20280902.360   -28120043.870 9 -21898394.25548  20280902.184    20280908.3214
  24662330.452     -556854.644 7   -249942.52245  24662329.805    24662344.2674
  22488663.613   -16990609.146 8 -12435723.19846  22488662.823    22488671.0674
  22466523.326   -15498338.654 8 -12060247.22546  22466523.579    22466532.3254
  22863738.321   -15336544.020 8 -11936486.62546  22863737.914    22863747.0634
  21782654.723   -18635642.839 9 -14501718.62747  21782654.202    21782662.3444
  24234486.731    -5129732.452 7  -3983798.31744  24234486.054    24234499.0184
  22564488.932   -16436284.091 8 -12396477.23746  22564488.240    22564498.3134
 02  1 27  2 22 30.0000000  0 10 23 26 06 05 10 30 18 17 22 15
  20588018.550   -19711208.385 9 -15341634.02148  20588018.052    20588024.8194
  22848995.488   -14454904.562 8 -11249741.57246  22848995.600    22849004.3784
  20278646.961   -28131895.756 9 -21907629.44448  20278646.785    20278652.9084
  24682242.433     -452216.965 7   -168406.80445  24682241.909    24682256.2124
  22505776.660   -16900679.698 8 -12365648.29546  22505775.846    22505784.0384
  22484425.374   -15404263.075 8 -11986941.61946  22484425.606    22484434.3644
  22845238.601   -15433759.436 8 -12012238.66846  22845238.221    22845247.2824
  21774603.711   -18677950.630 9 -14534685.61747  21774603.176    21774611.2914
  24222598.664    -5192203.590 7  -4032476.88545  24222598.284    24222611.0074
  22552418.022   -16499716.573 8 -12445905.01246  22552417.336    22552427.3264
 02  1 27  2 23  0.0000000  0  9 23 26 06 10 30 18 17 22 15
  20584606.004   -19729141.069 9 -15355607.46448  20584605.514    20584612.2804
  22834305.499   -14532100.459 8 -11309894.05946  22834305.579    22834314.3794
  20276470.296   -28143333.972 9 -21916542.29148  20276470.122    20276476.2404
  22522941.365   -16810479.041 8 -12295362.07546  22522940.562    22522948.6634
  22502368.691   -15309970.522 8 -11913466.94546  22502368.934    22502377.6484
  22826787.577   -15530719.215 8 -12087791.52746  22826787.204    22826796.2194
  21766584.010   -18720093.707 9 -14567524.26447  21766583.488    21766591.5904
  24210794.803    -5254232.043 7  -4080810.52644  24210794.317    24210807.3174
  22540377.697   -16562988.297 8 -12495207.52746  22540377.002    22540386.9184
 02  1 27  2 23 30.0000000  0  9 23 26 06 10 30 18 17 22 15
  20581291.016   -19746560.999 9 -15369181.36348  20581290.529    20581297.2784
  22819674.632   -14608985.776 8 -11369804.54146  22819674.698    22819683.4584
  20274373.120   -28154354.591 9 -21925129.73848  20274372.944    20274379.0484
  22540157.597   -16720007.289 8 -12224864.60446  22540156.804    22540164.8044
  22520353.208   -15215461.591 8 -11839823.66946  22520353.454    22520362.1604
  22808386.025   -15627418.737 8 -12163141.59646  22808385.634    22808394.6324
  21758596.063   -18762070.153 9 -14600233.06947  21758595.538    21758603.6334
  24199075.967    -5315813.611 7  -4128795.92244  24199075.360    24199088.4434
  22528368.446   -16626096.779 8 -12544382.84646  22528367.756    22528377.6184
 02  1 27  2 24  0.0000000  0  9 23 26 06 10 30 18 17 22 15
  20578072.654   -19763473.286 9 -15382359.69448  20578072.167    20578078.9154
  22805102.540   -14685562.073 8 -11429474.21746  22805102.616    22805111.3034
  20272354.668   -28164961.409 9 -21933394.74548  20272354.491    20272360.5804
  22557423.955   -16629272.354 8 -12154162.06346  22557423.150    22557431.1074
  22538377.345   -15120744.361 8 -11766018.07846  22538377.605    22538386.2534
  22790033.436   -15723861.384 8 -12238291.49946  22790033.058    22790041.9704
  21750638.804   -18803885.280 9 -14632816.17747  21750638.287    21750646.3494
  24187441.528    -5376951.347 7  -4176435.48744  24187441.233    24187454.1824
  22516389.271   -16689047.200 8 -12593434.99746  22516388.589    22516398.4384
 02  1 27  2 24 30.0000000  0  9 23 26 06 10 30 18 17 22 15
  20574950.907   -19779877.816 9 -15395142.37248  20574950.408    20574957.1534
  22790589.979   -14761825.454 8 -11488900.06546  22790589.993    22790598.7914
  20270415.329   -28175152.497 9 -21941335.79748  20270415.154    20270421.2504
  22574739.981   -16538276.466 8 -12083256.18246  22574739.153    22574747.0124
  22556440.629   -15025821.372 8 -11692052.14746  22556440.871    22556449.5564
  22771730.224   -15820044.531 8 -12313239.20046  22771729.810    22771738.6474
  21742712.273   -18845539.019 9 -14665273.53047  21742711.754    21742719.7864
  24175892.009    -5437643.274 7  -4223727.66944  24175891.640    24175904.7524
  22504440.218   -16751839.346 8 -12642363.81946  22504439.531    22504449.3424
 02  1 27  2 25  0.0000000  0  9 23 26 06 10 30 18 17 22 15
  20571925.885   -19795774.185 9 -15407529.08848  20571925.393    20571932.1194
  22776137.722   -14837772.083 8 -11548079.09146  22776137.728    22776146.5104
  20268555.494   -28184925.878 9 -21948951.37648  20268555.311    20268561.3964
  22592105.230   -16447021.851 8 -12012148.69546  22592104.401    22592112.2284
  22574542.572   -14930695.034 8 -11617927.77646  22574542.839    22574551.5394
  22753476.869   -15915965.658 8 -12387982.73946  22753476.427    22753485.2254
  21734816.534   -18887031.013 9 -14697604.84947  21734815.990    21734824.0154
  24164427.860    -5497886.787 7  -4270670.43244  24164427.365    24164440.5814
  22492521.347   -16814472.827 8 -12691169.02146  22492520.692    22492530.4334
 02  1 27  2 25 30.0000000  0  9 23 26 06 10 30 18 17 22 15
  20568997.548   -19811162.451 9 -15419519.86848  20568997.050    20569003.7564
  22761746.352   -14913398.185 8 -11607008.35246  22761746.382    22761755.1974
  20266775.436   -28194279.957 9 -21956240.21648  20266775.254    20266781.3294
  22609519.162   -16355511.062 8 -11940841.59146  22609518.336    22609526.1514
  22592682.708   -14835368.226 8 -11543647.17746  22592682.951    22592691.6594
  22735273.803   -16011622.581 8 -12462520.39846  22735273.368    22735282.0994
  21726951.569   -18928361.230 9 -14729810.10247  21726951.035    21726959.0124
  24153049.481    -5557679.935 7  -4317262.24745  24153049.043    24153061.9954
  22480632.770   -16876947.292 8 -12739850.30646  22480632.093    22480641.8304
 02  1 27  2 26  0.0000000  0  9 23 26 06 10 30 18 17 22 15
  20566165.963   -19826042.327 9 -15431114.50348  20566165.460    20566172.1254
  22747416.782   -14988699.762 8 -11665684.73246  22747416.861    22747425.6534
  20265075.490   -28203212.895 9 -21963200.89848  20265075.300    20265081.3674
  22626981.383   -16263746.334 8 -11869336.60446  22626980.537    22626988.4184
  22610860.509   -14739843.327 8 -11469212.22246  22610860.757    22610869.4914
  22717121.496   -16107012.828 8 -12536850.25846  22717121.035    22717129.7464
  21719117.424   -18969529.597 9 -14761889.24547  21719116.888    21719124.8314
  24141757.258    -5617020.396 7  -4363501.33845  24141756.770    24141769.7844
  22468774.544   -16939262.137 8 -12788407.21446  22468773.892    22468783.5694
 02  1 27  2 26 30.0000000  0  9 23 26 06 10 30 18 17 22 15
  20563430.984   -19840414.475 9 -15442313.51148  20563430.473    20563437.1114
  22733149.527   -15063673.663 8 -11724105.78846  22733149.618    22733158.4464
  20263455.878   -28211723.639 9 -21969832.60048  20263455.702    20263461.7584
  22644491.317   -16171730.600 8 -11797636.04646  22644490.465    22644498.4484
  22629075.422   -14644123.627 8 -11394625.49146  22629075.677    22629084.4114
  22699020.231   -16202134.580 8 -12610970.90846  22699019.796    22699028.4374
  21711313.967   -19010536.541 9 -14793842.61547  21711313.431    21711321.3474
  24130551.409    -5675906.850 7  -4409386.63945  24130550.708    24130563.6864
  22456946.649   -17001417.743 8 -12836840.03946  22456946.000    22456955.6244
 02  1 27  2 27  0.0000000  0  9 23 26 06 10 30 18 17 22 15
  20560792.589   -19854278.946 9 -15453116.92448  20560792.090    20560798.6844
  22718945.361   -15138316.235 8 -11782268.65346  22718945.482    22718954.2774
  20261916.934   -28219810.582 9 -21976134.06648  20261916.757    20261922.8174
  22662048.578   -16079466.220 8 -11725741.72946  22662047.711    22662055.8434
  22647326.878   -14548211.882 8 -11319889.09846  22647327.141    22647335.8854
  22680970.533   -16296985.614 8 -12684880.59246  22680970.101    22680978.7044
  21703541.254   -19051381.954 9 -14825670.10747  21703540.722    21703548.6084
  24119432.354    -5734337.081 7  -4454916.44645  24119431.505    24119444.5424
  22445149.137   -17063413.769 8 -12885148.51646  22445148.477    22445158.0584
 02  1 27  2 27 30.0000000  0  9 23 26 06 10 30 18 17 22 15
  20558250.668   -19867636.531 9 -15463525.36048  20558250.170    20558256.7404
  22704804.779   -15212624.576 8 -11840171.09146  22704804.871    22704813.6984
  20260458.840   -28227472.705 9 -21982104.50648  20260458.666    20260464.6974
  22679652.472   -15986956.565 8 -11653656.28646  22679651.624    22679659.8824
  22665614.225   -14452111.441 8 -11245005.68546  22665614.461    22665623.2004
  22662972.566   -16391564.543 8 -12758578.25046  22662972.131    22662980.7374
  21695799.107   -19092066.755 9 -14857372.44547  21695798.571    21695806.4424
  24108400.368    -5792309.857 7  -4500089.77945  24108399.643    24108412.5194
  22433381.827   -17125250.953 8 -12933333.21846  22433381.173    22433390.7304
 02  1 27  2 28  0.0000000  0  9 23 26 06 10 30 18 17 22 15
  20555805.166   -19880487.418 9 -15473538.96548  20555804.673    20555811.2214
  22690728.519   -15286595.000 8 -11897810.22046  22690728.616    22690737.3814
  20259081.879   -28234708.552 9 -21987742.78448  20259081.710    20259087.7184
  22697302.644   -15894203.961 8 -11581381.53846  22697301.795    22697310.1494
  22683936.911   -14355825.203 8 -11169977.49246  22683937.137    22683945.8864
  22645026.834   -16485869.220 8 -12832062.20546  22645026.375    22645034.9004
  21688087.518   -19132590.896 9 -14888949.59447  21688087.000    21688094.8384
  24097455.757    -5849823.397 7  -4544905.28945  24097454.750    24097468.1244
  22421644.807   -17186929.091 8 -12981393.97746  22421644.129    22421653.6774
 02  1 27  2 28 30.0000000  0  9 23 26 06 10 30 18 17 22 15
  20553456.031   -19892831.939 9 -15483157.99848  20553455.529    20553462.0604
  22676717.211   -15360224.182 8 -11955183.42846  22676717.335    22676726.0214
  20257786.358   -28241516.681 9 -21993047.77348  20257786.177    20257792.1614
  22714998.518   -15801211.251 8 -11508919.67946  22714997.665    22715006.0824
  22702294.357   -14259356.136 8 -11094806.82146  22702294.588    22702303.4114
  22627133.685   -16579897.647 8 -12905330.89946  22627133.242    22627141.6934
  21680406.457   -19172954.780 9 -14920401.86647  21680405.927    21680413.7204
  24086598.862    -5906875.877 7  -4589361.51645  24086597.826    24086611.0884
  22409937.988   -17248448.310 8 -13029330.90446  22409937.323    22409946.8364
 02  1 27  2 29  0.0000000  0  9 23 26 06 10 30 18 17 22 15
  20551203.161   -19904670.445 9 -15492382.73548  20551202.669    20551209.1604
  22662771.547   -15433508.649 8 -12012288.04246  22662771.630    22662780.2474
  20256572.417   -28247895.760 9 -21998018.44148  20256572.237    20256578.2014
  22732739.657   -15707980.838 8 -11436272.61246  22732738.802    22732747.2044
  22720685.998   -14162707.182 8 -11019495.98646  22720686.256    22720695.1484
  22609293.499   -16673647.863 8 -12978382.80046  22609293.052    22609301.4084
  21672755.900   -19213158.401 9 -14951729.26247  21672755.364    21672763.1184
  24075829.988    -5963465.538 7  -4633457.11445  24075828.782    24075842.0624
  22398261.422   -17309808.702 8 -13077144.07546  22398260.757    22398270.2274
 02  1 27  2 29 30.0000000  0  9 23 26 06 10 30 18 17 22 15
  20549046.422   -19916003.828 9 -15501213.87348  20549045.922    20549052.4024
  22648892.059   -15506445.389 8 -12069121.69046  22648892.119    22648900.6654
  20255440.331   -28253844.862 9 -22002654.06048  20255440.141    20255446.1004
  22750525.448   -15614516.001 8 -11363442.87946  22750524.629    22750532.9644
  22739111.262   -14065881.689 8 -10944047.59246  22739111.501    22739120.4884
  22591506.524   -16767118.276 8 -13051216.67646  22591506.086    22591514.3634
  21665135.726   -19253202.438 9 -14982932.31547  21665135.199    21665142.8984
  24065149.424    -6019591.243 7  -4677191.18144  24065148.335    24065161.0594
  22386614.990   -17371010.414 8 -13124833.59246  22386614.310    22386623.8084
 02  1 27  2 30  0.0000000  0  9 23 26 06 10 30 18 17 22 15
  20546985.821   -19926832.081 9 -15509651.39748  20546985.328    20546991.7864
  22635079.425   -15579030.681 8 -12125681.48246  22635079.461    22635087.9434
  20254390.304   -28259362.536 9 -22006953.50248  20254390.118    20254396.0704
  22768355.421   -15520819.227 8 -11290432.40846  22768354.605    22768362.8144
  22757569.619   -13968882.406 8 -10868463.76346  22757569.882    22757578.8964
  22573773.249   -16860306.714 8 -13123830.81946  22573772.813    22573780.9884
  21657545.896   -19293086.927 9 -15014011.03447  21657545.374    21657553.0524
  24054557.485    -6075250.826 7  -4720562.06044  24054556.629    24054569.2474
  22374998.792   -17432053.459 8 -13172399.46946  22374998.122    22375007.5864
 02  1 27  2 30 30.0000000  0  9 23 26 06 10 30 18 17 22 15
  20545021.217   -19937155.940 9 -15517695.89648  20545020.718    20545027.1614
  22621334.284   -15651261.432 8 -12181965.01346  22621334.317    22621342.6844
  20253422.611   -28264447.602 9 -22010915.84848  20253422.417    20253428.3784
  22786228.964   -15426893.451 8 -11217243.50446  22786228.172    22786236.2644
  22776060.454   -13871712.582 8 -10792747.06546  22776060.721    22776069.6814
  22556093.946   -16953211.367 8 -13196223.84246  22556093.511    22556101.6054
  21649986.313   -19332812.307 9 -15044965.78047  21649985.787    21649993.4624
  24044054.512    -6130443.029 7  -4763568.73544  24044053.977    24044066.1784
  22363412.755   -17492937.959 8 -13219841.80346  22363412.073    22363421.5204
 02  1 27  2 31  0.0000000  0  9 23 26 06 10 30 18 17 22 15
  20543152.494   -19946975.755 9 -15525347.62748  20543151.992    20543158.4144
  22607657.232   -15723134.184 8 -12237969.58646  22607657.285    22607665.5134
  20252537.455   -28269098.758 9 -22014540.07648  20252537.270    20252543.2124
  22804145.672   -15332740.914 8 -11143877.89746  22804144.869    22804152.8774
  22794583.225   -13774374.969 8 -10716899.60946  22794583.468    22794592.4484
  22538469.035   -17045830.210 8 -13268394.15146  22538468.603    22538476.6094
  21642456.951   -19372378.882 9 -15075796.77547  21642456.429    21642464.1074
  24033640.758    -6185166.189 7  -4806209.92944  24033640.218    24033652.2894
  22351856.898   -17553663.871 8 -13267160.54646  22351856.202    22351865.6194
 02  1 27  2 31 30.0000000  0  9 23 26 06 10 30 18 17 22 15
  20541379.612   -19956291.966 9 -15532606.94748  20541379.119    20541385.5184
  22594048.918   -15794645.660 8 -12293692.64546  22594049.005    22594057.0794
  20251735.148   -28273314.880 9 -22017825.32348  20251734.956    20251740.8814
  22822104.942   -15238364.525 8 -11070337.86246  22822104.146    22822112.1214
  22813137.350   -13676872.691 8 -10640923.83846  22813137.574    22813146.6054
  22520898.806   -17138161.510 8 -13340340.40646  22520898.367    22520906.3464
  21634957.810   -19411786.703 9 -15106504.07047  21634957.271    21634964.9594
  24023316.666    -6239418.620 7  -4848484.31044  24023316.025    24023328.4144
  22340331.170   -17614231.490 8 -13314355.94346  22340330.471    22340339.8324
 02  1 27  2 32  0.0000000  0  9 23 26 06 10 30 18 17 22 15
  20539702.459   -19965105.247 9 -15539474.37548  20539701.970    20539708.3504
  22580510.013   -15865792.415 8 -12349131.51446  22580510.098    22580518.1014
  20251015.847   -28277094.659 9 -22020770.56248  20251015.654    20251021.5474
  22840106.258   -15143767.149 8 -10996625.63646  22840105.394    22840113.3504
  22831722.152   -13579208.719 8 -10564822.07746  22831722.417    22831731.4564
  22503383.617   -17230203.526 8 -13412061.25546  22503383.183    22503391.1164
  21627488.808   -19451036.196 9 -15137087.99147  21627488.282    21627495.9424
  24013082.444    -6293198.971 7  -4890390.85144  24013081.420    24013094.1854
  22328835.588   -17674640.701 8 -13361427.90846  22328834.919    22328844.2114
 02  1 27  2 32 30.0000000  0  9 23 26 06 10 30 18 17 22 15
  20538120.940   -19973415.946 9 -15545950.17948  20538120.445    20538126.8114
  22567041.150   -15936571.098 8 -12404283.57346  22567041.203    22567049.1694
  20250379.827   -28280436.775 9 -22023374.76248  20250379.634    20250385.5024
  22858149.091   -15048951.124 8 -10922743.02546  22858148.264    22858156.2484
  22850337.188   -13481386.056 8 -10488596.64946  22850337.451    22850346.5364
  22485923.881   -17321954.162 8 -13483555.05646  22485923.440    22485931.3334
  21620049.911   -19490127.359 9 -15167548.53547  21620049.391    21620057.0214
  24002938.450    -6346505.338 7  -4931928.08444  24002937.223    24002950.1794
  22317370.156   -17734891.455 8 -13408376.39646  22317369.477    22317378.7334
 02  1 27  2 33  0.0000000  0  9 23 26 06 10 30 18 17 22 15
  20536634.946   -19981224.677 9 -15552034.84048  20536634.454    20536640.7994
  22553642.965   -16006978.362 8 -12459146.22546  22553643.058    22553650.9514
  20249827.336   -28283340.061 9 -22025637.01448  20249827.146    20249832.9964
  22876232.972   -14953919.327 8 -10848692.28546  22876232.154    22876240.2244
  22868981.833   -13383407.625 8 -10412249.85946  22868982.113    22868991.2454
  22468519.984   -17413411.456 8 -13554820.28346  22468519.548    22468527.4054
  21612641.119   -19529060.606 9 -15197886.03447  21612640.580    21612648.1984
  23992884.764    -6399336.359 7  -4973094.87944  23992883.512    23992896.6094
  22305934.807   -17794984.013 8 -13455201.60746  22305934.123    22305943.3234
 02  1 27  2 33 30.0000000  0  9 23 26 06 10 30 18 17 22 15
  20535244.344   -19988532.104 9 -15557728.87948  20535243.847    20535250.1684
  22540316.087   -16077010.832 8 -12513716.84046  22540316.135    22540324.0244
  20249358.575   -28285803.282 9 -22027556.35648  20249358.391    20249364.2424
  22894357.477   -14858674.125 8 -10774475.25446  22894356.627    22894364.7984
  22887655.646   -13285276.403 8 -10335784.01146  22887655.905    22887665.0224
  22451172.207   -17504573.782 8 -13625855.65946  22451171.758    22451179.5764
  21605262.326   -19567836.025 9 -15228100.55347  21605261.789    21605269.3664
  23982922.072    -6451690.370 7  -5013890.00945  23982920.820    23982933.7084
  22294529.583   -17854918.302 8 -13501903.49446  22294528.879    22294538.0674
 02  1 27  2 34  0.0000000  0  9 23 26 06 10 30 18 17 22 15
  20533948.932   -19995339.311 9 -15563033.13648  20533948.433    20533954.7334
  22527061.039   -16146665.841 8 -12567993.32446  22527061.111    22527068.9944
  20248973.708   -28287825.571 9 -22029132.11748  20248973.527    20248979.3814
  22912521.968   -14763218.907 8 -10700094.57846  22912521.122    22912529.4204
  22906357.906   -13186995.809 8 -10259201.77346  22906358.178    22906367.2154
  22433880.828   -17595439.642 8 -13696660.03646  22433880.398    22433888.1474
  21597913.423   -19606454.373 9 -15258192.68447  21597912.886    21597920.4314
  23973050.329    -6503566.425 7  -5054312.71945  23973049.083    23973061.9574
  22283154.357   -17914694.868 8 -13548482.48046  22283153.664    22283162.7954
 02  1 27  2 34 30.0000000  0  9 23 26 06 10 30 18 17 22 15
  20532748.656   -20001646.613 9 -15567947.85948  20532748.164    20532754.4414
  22513878.536   -16215939.708 8 -12621972.81146  22513878.586    22513886.4934
  20248672.985   -28289405.565 9 -22030363.23148  20248672.796    20248678.6574
  22930726.022   -14667555.819 8 -10625551.92446  22930725.170    22930733.5974
  22925088.059   -13088568.639 8 -10182505.32846  22925088.311    22925097.3284
  22416646.321   -17686006.855 8 -13767231.70746  22416645.899    22416653.5814
  21590594.430   -19644915.676 9 -15288162.43547  21590593.883    21590601.4094
  23963269.843    -6554962.714 7  -5094361.58945  23963268.664    23963281.4344
  22271809.181   -17974313.543 8 -13594938.43746  22271808.508    22271817.5974
 02  1 27  2 35  0.0000000  0  9 23 26 06 10 30 18 17 22 15
  20531643.382   -20007454.549 9 -15572473.46348  20531642.890    20531649.1374
  22500769.206   -16284829.024 8 -12675652.66246  22500769.252    22500777.1584
  20248456.674   -28290542.032 9 -22031248.73948  20248456.495    20248462.3554
  22948969.109   -14571687.848 8 -10550849.63046  22948968.269    22948976.7214
  22943845.516   -12989997.893 8 -10105697.00746  22943845.745    22943854.7154
  22399468.961   -17776273.663 8 -13837569.29546  22399468.561    22399476.2214
  21583305.269   -19683220.095 9 -15318009.94247  21583304.719    21583312.2294
  23953580.840    -6605877.780 7  -5134035.48045  23953579.801    23953592.3014
  22260494.059   -18033774.354 8 -13641271.37846  22260493.381    22260502.4304
 02  1 27  2 35 30.0000000  0  9 23 26 06 10 30 18 17 22 15
  20530632.966   -20012764.047 9 -15576610.67548  20530632.469    20530638.7124
  22487733.617   -16353330.874 8 -12729030.58746  22487733.656    22487741.5094
  20248324.924   -28291234.070 9 -22031787.94448  20248324.746    20248330.5934
  22967250.763   -14475617.566 8 -10475989.69446  22967249.903    22967258.4034
  22962629.736   -12891286.548 8 -10028779.12046  22962630.002    22962638.9254
  22382349.037   -17866238.582 8 -13907671.66646  22382348.613    22382356.2914
  21576045.873   -19721368.222 9 -15347735.66747  21576045.315    21576052.7974
  23943983.726    -6656310.357 7  -5173333.42645  23943982.806    23943994.9854
  22249208.870   -18093077.668 8 -13687481.60046  22249208.194    22249217.2164
 02  1 27  2 36  0.0000000  0  9 23 26 06 10 30 18 17 22 15
  20529717.319   -20017575.552 9 -15580359.83848  20529716.823    20529723.0404
  22474772.447   -16421441.636 8 -12782103.77346  22474772.479    22474780.2984
  20248278.024   -28291480.451 9 -22031979.88048  20248277.829    20248283.6744
  22985570.408   -14379347.648 8 -10400974.18446  22985569.551    22985577.9804
  22981440.080   -12792437.554 8  -9951753.97946  22981440.320    22981449.3024
  22365287.005   -17955899.480 8 -13977537.13946  22365286.555    22365294.2334
  21568816.225   -19759359.885 9 -15377339.46947  21568815.680    21568823.1334
  23934478.686    -6706258.912 7  -5212254.20745  23934477.616    23934489.7794
  22237953.725   -18152223.264 8 -13733568.92446  22237953.056    22237962.0284
 02  1 27  2 36 30.0000000  0  9 23 26 06 10 30 18 17 22 15
  20528896.308   -20021889.852 9 -15583721.56748  20528895.811    20528902.0024
  22461886.295   -16489158.411 8 -12834869.95146  22461886.340    22461894.0974
  20248316.130   -28291280.071 9 -22031823.69248  20248315.943    20248321.7424
  23003927.594   -14282880.854 8 -10325805.28446  23003926.682    23003935.0564
  23000276.034   -12693454.084 8  -9874624.05746  23000276.260    23000285.2734
  22348283.135   -18045254.494 8 -14047164.26746  22348282.716    22348290.3724
  21561616.267   -19797195.604 9 -15406821.76447  21561615.704    21561623.1594
  23925066.024    -6755722.116 7  -5250796.80845  23925064.923    23925077.1334
  22226728.587   -18211211.225 8 -13779533.42046  22226727.907    22226736.8524
 02  1 27  2 37  0.0000000  0  9 23 26 06 10 30 18 17 22 15
  20528169.740   -20025707.755 9 -15586696.49348  20528169.254    20528175.4144
  22449075.747   -16556477.929 8 -12887326.57946  22449075.808    22449083.5034
  20248439.419   -28290631.959 9 -22031318.62448  20248439.237    20248445.0114
  23022321.663   -14186219.843 8 -10250485.04546  23022320.819    23022329.0464
  23019136.991   -12594339.116 8  -9797391.67146  23019137.163    23019146.2914
  22331337.814   -18134302.049 8 -14116551.82146  22331337.407    22331345.0394
  21554445.959   -19834875.538 9 -15436182.66947  21554445.398    21554452.8434
  23915745.970    -6804698.456 7  -5288960.02745  23915744.784    23915756.9114
  22215533.382   -18270041.798 8 -13825375.27346  22215532.697    22215541.5854
 02  1 27  2 37 30.0000000  0  9 23 26 06 10 30 18 17 22 15
  20527537.532   -20029029.712 9 -15589284.96548  20527537.042    20527543.1824
  22436341.463   -16623396.552 8 -12939470.81446  22436341.554    22436349.1654
  20248648.212   -28289534.685 9 -22030463.55648  20248648.023    20248653.7754
  23040752.252   -14089366.774 8 -10175015.14946  23040751.429    23040759.5584
  23038022.505   -12495095.271 8  -9720058.85646  23038022.669    23038031.7614
  22314451.388   -18223040.106 8 -14185698.21446  22314450.987    22314458.5694
  21547305.288   -19872399.595 9 -15465422.11047  21547304.721    21547312.1524
  23906518.839    -6853186.570 7  -5326742.81345  23906517.902    23906529.8354
  22204368.187   -18328714.646 8 -13871094.22046  22204367.497    22204376.3824
 02  1 27  2 38  0.0000000  0  9 23 26 06 10 30 18 17 22 15
  20526999.517   -20031856.937 9 -15591487.93048  20526999.014    20527005.1444
  22423683.996   -16689911.466 8 -12991300.47546  22423684.067    22423691.5964
  20248942.606   -28287987.356 9 -22029257.79948  20248942.429    20248948.1664
  23059218.768   -13992324.760 8 -10099398.01846  23059217.926    23059226.0224
  23056931.938   -12395725.789 8  -9642628.17646  23056932.128    23056941.1764
  22297624.141   -18311467.277 8 -14254602.35946  22297623.736    22297631.2744
  21540194.175   -19909768.398 9 -15494540.57047  21540193.625    21540201.0324
  23897384.884    -6901185.120 7  -5364144.12245  23897384.135    23897395.9344
  22193232.953   -18387230.253 8 -13916690.65046  22193232.225    22193241.0824
 02  1 27  2 38 30.0000000  0  9 23 26 06 10 30 18 17 22 15
  20526555.523   -20034189.793 9 -15593305.66648  20526555.022    20526561.1274
  22411104.033   -16756019.081 8 -13042812.75246  22411104.136    22411111.5874
  20249322.933   -28285988.705 9 -22027700.35648  20249322.746    20249328.4814
  23077720.765   -13895096.000 8 -10023635.35746  23077719.907    23077728.0314
  23075864.750   -12296233.568 8  -9565101.82246  23075864.991    23075873.8984
  22280856.487   -18399581.354 8 -14323262.53246  22280856.045    22280863.5804
  21533112.621   -19946981.874 9 -15523538.00147  21533112.067    21533119.4514
  23888344.314    -6948692.625 7  -5401162.80245  23888343.706    23888355.3274
  22182127.675   -18445588.262 8 -13962164.25846  22182126.963    22182135.7754
 02  1 27  2 39  0.0000000  0  9 23 26 06 10 30 18 17 22 15
  20526205.446   -20036029.247 9 -15594738.93948  20526204.944    20526211.0464
  22398602.132   -16821716.485 8 -13094005.39046  22398602.271    22398609.6274
  20249789.269   -28283537.905 9 -22025790.59848  20249789.073    20249794.7994
  23096257.587   -13797683.571 8  -9947729.59646  23096256.725    23096264.9194
  23094820.359   -12196621.547 8  -9487482.14246  23094820.608    23094829.5024
  22264148.659   -18487380.998 8 -14391677.69046  22264148.221    22264155.6914
  21526060.542   -19984040.484 9 -15552414.76347  21526059.989    21526067.3614
  23879397.477    -6995708.032 7  -5437798.02745  23879396.468    23879408.3324
  22171052.358   -18503788.929 8 -14007515.27646  22171051.640    22171060.4594
 02  1 27  2 39 30.0000000  0  9 23 26 06 10 30 18 17 22 15
  20525949.154   -20037375.887 9 -15595788.20048  20525948.652    20525954.7404
  22386178.917   -16887000.323 8 -13144875.77346  22386179.041    22386186.3814
  20250341.848   -28280633.727 9 -22023527.55948  20250341.650    20250347.3754
  23114828.969   -13700089.684 8  -9871682.43946  23114828.128    23114836.3984
  23113798.154   -12096892.691 8  -9409771.41046  23113798.401    23113807.3014
  22247501.049   -18574864.205 8 -14459846.27146  22247500.616    22247508.0444
  21519037.891   -20020944.353 9 -15581170.94547  21519037.341    21519044.6924
  23870544.515    -7042229.762 7  -5474048.55345  23870543.557    23870555.2924
  22160006.924   -18561832.433 8 -14052743.81947  22160006.217    22160014.9734
 02  1 27  2 40  0.0000000  0  9 23 26 06 10 30 18 17 22 15
  20525786.431   -20038230.806 9 -15596454.29548  20525785.924    20525792.0064
  22373834.935   -16951867.735 8 -13195421.66646  22373835.067    22373842.3634
  20250980.868   -28277275.390 9 -22020910.62648  20250980.688    20250986.3914
  23133434.367   -13602316.848 8  -9795495.83246  23133433.617    23133441.9584
  23132797.610   -11997050.175 8  -9331972.11546  23132797.807    23132806.7804
  22230913.990   -18662029.280 8 -14527766.95346  22230913.549    22230920.9384
  21512044.649   -20057693.747 9 -15609806.75747  21512044.102    21512051.4294
  23861785.717    -7088256.847 7  -5509913.65645  23861784.930    23861796.4264
  22148991.333   -18619718.960 8 -14097850.03947  22148990.623    22148999.3884
 02  1 27  2 40 30.0000000  0  9 23 26 06 10 30 18 17 22 15
  20525717.149   -20038594.516 9 -15596737.63248  20525716.652    20525722.7064
  22361570.955   -17016314.938 8 -13245640.12546  22361571.066    22361578.3724
  20251706.617   -28273461.458 9 -22017938.68848  20251706.435    20251712.1184
  23152073.373   -13504367.578 8  -9719171.73946  23152072.604    23152081.1034
  23151818.165   -11897096.526 8  -9254086.22446  23151818.369    23151827.3864
  22214387.788   -18748874.407 8 -14595438.32046  22214387.340    22214394.7114
  21505080.828   -20094288.525 9 -15638322.08747  21505080.273    21505087.6024
  23853121.404    -7133787.521 7  -5545391.94645  23853120.509    23853131.8904
  22138005.722   -18677448.171 8 -14142833.67047  22138005.018    22138013.7354
 02  1 27  2 41  0.0000000  0  9 23 26 06 10 30 18 17 22 15
  20525741.053   -20038468.549 9 -15596639.40748  20525740.556    20525746.6124
  22349387.326   -17080339.654 8 -13295529.37646  22349387.411    22349394.7424
  20252519.094   -28269191.638 9 -22014611.51748  20252518.923    20252524.5734
  23170745.427   -13406245.165 8  -9642712.74546  23170744.677    23170753.2494
  23170859.204   -11797035.385 8  -9176116.56846  23170859.448    23170868.4934
  22197922.698   -18835398.372 8 -14662859.43346  22197922.239    22197929.5824
  21498146.261   -20130729.592 9 -15666717.64847  21498145.704    21498153.0174
  23844551.626    -7178821.253 7  -5580482.99745  23844550.833    23844562.1464
  22127049.920   -18735020.681 8 -14187695.19647  22127049.203    22127057.9134
 02  1 27  2 41 30.0000000  0  9 23 26 06 10 30 18 17 22 15
  20525857.984   -20037853.797 9 -15596160.31048  20525857.485    20525863.5444
  22337284.727   -17143938.574 8 -13345086.83946  22337284.800    22337292.1734
  20253418.474   -28264465.209 9 -22010928.54548  20253418.290    20253423.9214
  23189449.981   -13307952.355 8  -9566120.95646  23189449.228    23189457.7584
  23189920.118   -11696869.737 8  -9098065.47746  23189920.373    23189929.3884
  22181519.015   -18921599.497 8 -14730028.97646  22181518.565    22181525.8584
  21491240.886   -20167017.215 9 -15694993.63547  21491240.314    21491247.6254
  23836076.679    -7223357.021 7  -5615186.02445  23836075.768    23836087.2414
  22116123.859   -18792436.684 8 -14232434.76447  22116123.157    22116131.8174
 02  1 27  2 42  0.0000000  0  9 23 26 06 10 30 18 17 22 15
  20526067.879   -20036750.584 9 -15595300.59448  20526067.379    20526073.4384
  22325263.796   -17207108.255 8 -13394309.83146  22325263.872    22325271.2764
  20254405.070   -28259280.569 9 -22006888.52748  20254404.887    20254410.4864
  23208186.700   -13209491.104 8  -9489397.93946  23208185.957    23208194.3844
  23209000.513   -11596602.039 8  -9019934.88146  23209000.733    23209009.7824
  22165177.182   -19007475.795 8 -14796945.39946  22165176.738    22165183.9724
  21484364.795   -20203151.076 9 -15723149.80547  21484364.224    21484371.5004
  23827696.842    -7267392.984 7  -5649499.60745  23827696.029    23827707.4444
  22105227.696   -18849695.684 8 -14277051.99447  22105227.000    22105235.6304
 02  1 27  2 42 30.0000000  0  9 23 26 06 10 30 18 17 22 15
  20526370.376   -20035160.635 9 -15594061.60848  20526369.870    20526375.9224
  22313324.994   -17269846.282 8 -13443196.46746  22313325.077    22313332.5064
  20255478.902   -28253637.385 9 -22002491.20148  20255478.714    20255484.3074
  23226954.885   -13110864.547 8  -9412546.09846  23226954.094    23226962.4714
  23228099.584   -11496236.048 8  -8941727.69246  23228099.841    23228108.9114
  22148897.401   -19093025.955 8 -14863607.69346  22148896.968    22148904.1684
  21477517.782   -20239132.023 9 -15751186.82947  21477517.214    21477524.4314
  23819412.192    -7310928.694 7  -5683423.36945  23819411.445    23819422.5544
  22094361.327   -18906798.340 8 -14321547.39147  22094360.613    22094369.2234
 02  1 27  2 43  0.0000000  0  9 23 26 06 10 30 18 17 22 15
  20526765.384   -20033084.512 9 -15592443.78348  20526764.877    20526770.9034
  22301469.053   -17332149.023 8 -13491743.92146  22301469.105    22301476.5904
  20256640.236   -28247534.400 9 -21997735.59048  20256640.050    20256645.6494
  23245754.137   -13012074.827 8  -9335567.11846  23245753.310    23245761.5484
  23247216.931   -11395774.124 8  -8863445.73546  23247217.126    23247226.2244
  22132680.007   -19178248.220 8 -14930014.48446  22132679.565    22132686.7224
  21470699.929   -20274959.844 9 -15779104.53047  21470699.364    21470706.5574
  23811222.983    -7353962.580 7  -5716956.10245  23811222.134    23811233.2044
  22083524.718   -18963744.439 8 -14365920.79147  22083524.025    22083532.5744
 02  1 27  2 43 30.0000000  0  9 23 26 06 10 30 18 17 22 15
  20527252.749   -20030523.034 9 -15590447.76448  20527252.249    20527258.2504
  22289696.495   -17394013.490 8 -13539949.87446  22289696.564    22289704.0724
  20257889.267   -28240970.564 9 -21992620.87448  20257889.075    20257894.6904
  23264583.897   -12913124.545 8  -9258463.02646  23264583.034    23264591.1774
  23266351.930   -11295219.360 8  -8785091.45946  23266352.139    23266361.2394
  22116525.305   -19263141.010 8 -14996164.54346  22116524.879    22116531.9674
  21463911.152   -20310634.823 9 -15806903.13847  21463910.584    21463917.7544
  23803129.536    -7396493.518 7  -5750096.92445  23803128.687    23803139.7874
  22072717.865   -19020533.998 8 -14410172.21847  22072717.176    22072725.6824
 02  1 27  2 44  0.0000000  0  9 23 26 06 10 30 18 17 22 15
  20527832.340   -20027477.065 9 -15588074.21548  20527831.848    20527837.8304
  22278007.963   -17455436.536 8 -13587811.85246  22278007.997    22278015.5664
  20259226.126   -28233945.012 9 -21987146.37548  20259225.950    20259231.5794
  23283443.657   -12814016.447 8  -9181235.96446  23283442.768    23283450.8604
  23285504.069   -11194574.668 8  -8706667.09546  23285504.301    23285513.3834
  22100433.683   -19347702.500 8 -15062056.43647  22100433.249    22100440.3004
  21457151.423   -20346157.054 9 -15834582.70947  21457150.854    21457157.9944
  23795131.995    -7438520.392 7  -5782844.96045  23795131.134    23795142.1864
  22061940.808   -19077167.188 8 -14454301.79547  22061940.107    22061948.5774
 02  1 27  2 44 30.0000000  0  9 23 26 06 10 30 18 17 22 15
  20528503.905   -20023947.649 9 -15585323.96548  20528503.413    20528509.3774
  22266404.011   -17516415.097 8 -13635327.48746  22266404.030    22266411.6024
  20260651.056   -28226456.624 9 -21981311.23748  20260650.883    20260656.5164
  23302332.917   -12714752.646 8  -9103887.55746  23302332.101    23302340.0804
  23304672.703   -11093842.906 8  -8628174.89946  23304672.970    23304682.0724
  22084405.412   -19431930.927 8 -15127688.82247  22084404.985    22084412.0124
  21450420.726   -20381526.720 9 -15862143.40647  21450420.163    21450427.2924
  23787230.564    -7480042.068 7  -5815199.34445  23787229.714    23787240.6924
  22051193.539   -19133643.739 8 -14498309.32747  22051192.847    22051201.2674
 02  1 27  2 45  0.0000000  0  9 23 26 06 10 30 18 17 22 15
  20529267.302   -20019935.778 9 -15582197.77048  20529266.805    20529272.7474
  22254885.249   -17576945.948 8 -13682494.25746  22254885.264    22254892.8774
  20262164.252   -28218504.532 9 -21975114.76448  20262164.076    20262169.6964
  23321251.234   -12615335.904 8  -9026419.97446  23321250.404    23321258.4394
  23323857.418   -10993026.792 8  -8549616.96046  23323857.689    23323866.7694
  22068440.833   -19515824.484 8 -15193060.26347  22068440.417    22068447.4164
  21443719.082   -20416743.778 9 -15889585.17147  21443718.513    21443725.6444
  23779425.518    -7521057.188 7  -5847159.00745  23779424.707    23779435.7044
  22040476.065   -19189963.674 8 -14542194.81547  22040475.387    22040483.7704
 02  1 27  2 45 30.0000000  0  9 23 26 06 10 30 18 17 22 15
  20530122.353   -20015442.223 9 -15578696.23848  20530121.843    20530127.7554
  22243452.310   -17637025.904 8 -13729309.67646  22243452.339    22243459.9584
  20263765.876   -28210087.889 9 -21968556.30748  20263765.697    20263771.2834
  23340198.202   -12515768.289 8  -8948834.83645  23340197.378    23340205.4804
  23343057.694   -10892129.194 8  -8470995.53746  23343057.957    23343067.0504
  22052540.313   -19599381.590 8 -15258169.54547  22052539.895    22052546.8654
  21437046.426   -20451808.289 9 -15916908.06747  21437045.862    21437052.9894
  23771717.052    -7561564.853 7  -5878723.25045  23771716.243    23771727.2074
  22029788.431   -19246126.931 8 -14585958.22547  22029787.745    22029796.1014
 02  1 27  2 46  0.0000000  0  9 23 26 06 10 30 18 17 22 15
  20531068.814   -20010468.317 9 -15574820.41048  20531068.297    20531074.2094
  22232105.704   -17696652.214 8 -13775771.61146  22232105.744    22232113.3174
  20265456.067   -28201205.881 9 -21961635.23148  20265455.877    20265461.4404
  23359173.313   -12416052.739 8  -8871134.41145  23359172.472    23359180.6624
  23362272.817   -10791153.166 8  -8392312.99546  23362273.115    23362282.2604
  22036704.064   -19682601.082 8 -15323015.75047  22036703.648    22036710.5724
  21430402.767   -20486720.617 9 -15944112.37547  21430402.201    21430409.3034
  23764105.338    -7601563.859 7  -5909891.12645  23764104.543    23764115.4074
  22019130.522   -19302133.824 8 -14629599.79247  22019129.824    22019138.1334
 02  1 27  2 46 30.0000000  0  9 23 26 06 10 30 18 17 22 15
  20532106.520   -20005014.968 9 -15570570.99348  20532105.989    20532111.8804
  22220846.010   -17755821.758 8 -13821877.61946  22220846.078    22220853.5864
  20267234.954   -28191857.747 9 -21954350.93848  20267234.765    20267240.3194
  23378176.110   -12316191.708 8  -8793320.62545  23378175.286    23378183.5264
  23381502.371   -10690101.682 8  -8313571.65446  23381502.622    23381511.8684
  22020932.407   -19765481.072 8 -15387597.41747  22020931.996    22020938.8674
  21423788.018   -20521480.919 9 -15971198.22847  21423787.461    21423794.5274
  23756590.567    -7641053.308 7  -5940661.95045  23756589.725    23756600.6614
  22008502.414   -19357984.234 8 -14673119.43647  22008501.731    22008509.9994
 02  1 27  2 47  0.0000000  0  9 23 26 06 10 30 18 17 22 15
  20533235.143   -19999083.776 9 -15565949.23048  20533234.627    20533240.4944
  22209673.733   -17814532.041 8 -13867625.76346  22209673.783    22209681.2354
  20269102.598   -28182043.005 9 -21946703.05448  20269102.413    20269107.9554
  23397206.153   -12216188.065 8  -8715395.71445  23397205.322    23397213.5604
  23400745.548   -10588978.011 8  -8234774.07146  23400745.791    23400755.1704
  22005225.572   -19848020.474 8 -15451913.69647  22005225.150    22005231.9894
  21417202.070   -20556089.920 9 -15998166.17947  21417201.520    21417208.5634
  23749172.860    -7680032.722 7  -5971035.34745  23749172.100    23749182.9774
  21997904.022   -19413678.698 8 -14716517.56247  21997903.339    21997911.5564
 02  1 27  2 47 30.0000000  0  9 23 26 06 10 30 18 17 22 15
  20534454.527   -19992675.769 9 -15560955.92248  20534454.013    20534459.8624
  22198589.395   -17872780.067 8 -13913013.70546  22198589.457    22198596.8334
  20271059.223   -28171760.770 9 -21938690.88648  20271059.028    20271064.5884
  23416262.896   -12116044.323 8  -8637361.63445  23416262.109    23416270.2884
  23420001.961   -10487785.112 8  -8155922.54346  23420002.220    23420011.7004
  21989583.949   -19930217.374 8 -15515963.09447  21989583.479    21989590.2774
  21410644.926   -20590547.538 9 -16025016.15947  21410644.380    21410651.3864
  23741852.410    -7718501.041 7  -6001010.48645  23741851.699    23741862.5474
  21987335.264   -19469217.158 8 -14759794.14447  21987334.585    21987342.7534
 02  1 27  2 48  0.0000000  0  9 23 26 06 10 30 18 17 22 15
  20535764.440   -19985791.790 9 -15555591.72748  20535763.927    20535769.7714
  22187593.667   -17930562.670 8 -13958038.98846  22187593.709    22187601.0264
  20273104.952   -28161010.052 9 -21930313.67148  20273104.782    20273110.3514
  23435345.964   -12015762.692 8  -8559220.10445  23435345.128    23435353.2984
  23439271.017   -10386525.694 8  -8077019.18446  23439271.271    23439280.8834
  21974007.756   -20012070.337 8 -15579744.48947  21974007.301    21974014.0154
  21404116.583   -20624853.887 9 -16051748.27247  21404116.039    21404123.0094
  23734629.522    -7756457.003 7  -6030586.40145  23734628.788    23734639.6524
  21976796.199   -19524599.631 8 -14802949.18347  21976795.512    21976803.6584
 02  1 27  2 48 30.0000000  0  9 23 26 06 10 30 18 17 22 15
  20537164.681   -19978433.303 9 -15549857.78848  20537164.177    20537170.0154
  22176687.014   -17987877.151 8 -14002699.49146  22176687.059    22176694.2774
  20275239.980   -28149790.269 9 -21921570.94648  20275239.794    20275245.3754
  23454454.688   -11915346.073 8  -8480973.39746  23454453.819    23454462.0374
  23458552.185   -10285202.661 8  -7998066.25546  23458552.442    23458562.1084
  21958497.304   -20093577.924 8 -15643256.76647  21958496.839    21958503.4974
  21397616.945   -20659009.196 9 -16078362.68847  21397616.399    21397623.3484
  23727504.217    -7793899.872 7  -6059762.49245  23727503.492    23727514.3454
  21966286.809   -19579826.301 8 -14845982.82647  21966286.117    21966294.2414
 02  1 27  2 49  0.0000000  0  9 23 26 06 10 30 18 17 22 15
  20538655.003   -19970601.337 9 -15543754.90048  20538654.495    20538660.3434
  22165870.005   -18044720.414 8 -14046992.81546  22165870.057    22165877.1574
  20277464.351   -28138100.905 9 -21912462.31348  20277464.164    20277469.7304
  23473588.617   -11814796.877 8  -8402623.37646  23473587.724    23473596.0544
  23477844.890   -10183819.188 8  -7919066.22946  23477845.097    23477854.8074
  21943052.874   -20174738.602 8 -15706498.72747  21943052.421    21943059.0084
  21391146.034   -20693013.707 9 -16104859.59547  21391145.488    21391152.4234
  23720476.726    -7830828.938 7  -6088538.21545  23720475.927    23720486.9044
  21955807.071   -19634897.163 8 -14888895.06247  21955806.382    21955814.4664
 02  1 27  2 49 30.0000000  0  9 23 26 06 10 30 18 17 22 15
  20540235.228   -19962296.922 9 -15537283.88048  20540234.711    20540240.5654
  22155143.273   -18101089.644 8 -14090916.76846  22155143.304    22155150.3154
  20279778.302   -28125940.940 9 -21902986.98848  20279778.112    20279783.6514
  23492747.340   -11714117.267 8  -8324171.73445  23492746.460    23492754.8834
  23497148.512   -10082377.944 8  -7840021.19846  23497148.732    23497158.5254
  21927674.757   -20255550.744 8 -15769469.10747  21927674.317    21927680.8304
  21384703.767   -20726867.484 9 -16131239.05747  21384703.228    21384710.1244
  23713547.219    -7867243.072 7  -6116912.69645  23713546.404    23713557.3724
  21945356.994   -19689812.056 8 -14931685.78447  21945356.316    21945364.3574
 02  1 27  2 50  0.0000000  0  9 23 26 06 10 30 18 17 22 15
  20541905.152   -19953521.141 9 -15530445.55248  20541904.635    20541910.4784
  22144507.306   -18156981.787 8 -14134468.95746  22144507.347    22144514.2664
  20282181.976   -28113309.585 9 -21893144.34248  20282181.788    20282187.2834
  23511930.348   -11613309.577 8  -8245620.29645  23511929.500    23511938.0504
  23516462.700    -9980881.771 8  -7760933.35546  23516462.912    23516472.6964
  21912363.222   -20336012.771 8 -15832166.66947  21912362.777    21912369.2554
  21378290.263   -20760570.381 9 -16157500.94847  21378289.718    21378296.6014
  23706715.808    -7903141.325 7  -6144885.19145  23706714.923    23706725.8954
  21934936.652   -19744570.834 8 -14974354.85247  21934935.970    21934943.9804
 02  1 27  2 50 30.0000000  0  9 23 26 06 10 30 18 17 22 15
  20543664.582   -19944275.114 9 -15523240.80448  20543664.067    20543669.8934
  22133962.684   -18212393.924 8 -14177647.12246  22133962.717    22133969.5634
  20284675.437   -28100206.212 9 -21882933.89448  20284675.252    20284680.7144
  23531137.177   -11512376.374 8  -8166971.04845  23531136.353    23531145.0814
  23535786.770    -9879333.590 8  -7681804.99145  23535786.973    23535796.6984
  21897118.627   -20416123.244 8 -15894590.29747  21897118.171    21897124.6294
  21371905.366   -20794122.810 9 -16183645.60547  21371904.828    21371911.6614
  23699982.778    -7938522.919 7  -6172455.11245  23699981.945    23699992.8014
  21924545.983   -19799173.717 8 -15016902.45947  21924545.293    21924553.2734
 02  1 27  2 51  0.0000000  0  9 23 26 06 10 30 18 17 22 15
  20545513.297   -19934559.888 9 -15515670.44348  20545512.778    20545518.5734
  22123509.933   -18267323.126 8 -14220448.97346  22123509.983    22123516.7364
  20287258.919   -28086629.795 9 -21872354.83648  20287258.733    20287264.1834
  23550367.474   -11411319.840 8  -8088225.68845  23550366.651    23550375.5354
  23555120.201    -9777735.904 8  -7602638.06245  23555120.389    23555130.0994
  21881941.218   -20495880.416 9 -15956738.62747  21881940.758    21881947.2084
  21365549.127   -20827524.624 9 -16209672.88247  21365548.569    21365555.3744
  23693348.258    -7973386.753 7  -6199621.57045  23693347.357    23693358.1924
  21914184.976   -19853620.788 8 -15059328.65947  21914184.276    21914192.2144
 02  1 27  2 51 30.0000000  0  9 23 26 06 10 30 18 17 22 15
  20547450.978   -19924377.128 9 -15507735.77348  20547450.466    20547456.2514
  22113149.569   -18321766.826 8 -14262872.51046  22113149.625    22113156.3574
  20289932.459   -28072580.157 9 -21861407.03748  20289932.262    20289937.7064
  23569620.730   -11310142.669 8  -8009386.34345  23569619.922    23569628.9714
  23574462.420    -9676092.317 8  -7523435.35545  23574462.609    23574472.2194
  21866831.294   -20575283.203 8 -16018610.81647  21866830.818    21866837.2484
  21359221.461   -20860776.250 9 -16235583.12947  21359220.909    21359227.6914
  23686812.346    -8007732.536 7  -6226384.36845  23686811.392    23686822.2724
  21903853.572   -19907912.297 8 -15101633.64847  21903852.859    21903860.7844
 02  1 27  2 52  0.0000000  0  9 23 26 06 10 30 18 17 22 15
  20549477.428   -19913727.966 9 -15499437.67548  20549476.913    20549482.6764
  22102882.102   -18375722.299 8 -14304915.61246  22102882.143    22102888.8464
  20292696.201   -28058056.527 9 -21850089.89648  20292695.999    20292701.4474
  23588896.575   -11208847.505 8  -7930455.05545  23588895.777    23588904.8384
  23593812.856    -9574405.427 8  -7444198.91545  23593813.133    23593822.7054
  21851789.036   -20654330.197 9 -16080205.76347  21851788.562    21851794.9784
  21352922.369   -20893877.871 9 -16261376.49947  21352921.810    21352928.5814
  23680375.221    -8041559.297 7  -6252742.74145  23680374.239    23680385.0554
  21893551.788   -19962048.042 8 -15143817.27447  21893551.090    21893558.9694
 02  1 27  2 52 30.0000000  0 10 23 26 06 10 30 18 17 22 15 21
  20551590.915   -19902621.301 9 -15490783.07948  20551590.410    20551596.1294
  22092706.641   -18429194.321 8 -14346582.00546  22092706.678    22092713.3994
  20295548.750   -28043066.078 9 -21838408.99648  20295548.554    20295553.9914
  23608193.032   -11107444.341 8  -7851439.61145  23608192.278    23608201.0764
  23613169.532    -9472685.814 8  -7364936.97445  23613169.773    23613179.3814
  21836813.328   -20733027.518 9 -16141528.23347  21836812.859    21836819.2764
  21346650.306   -20926837.269 9 -16287059.04447  21346649.752    21346656.4864
  23674035.534    -8074874.124 8  -6278702.20445  23674034.467    23674045.3354
  21883278.164   -20016035.891 8 -15185885.65447  21883277.462    21883285.3034
  24850655.009    -1245375.242 7   -748808.36345  24850654.121    24850669.9574
 02  1 27  2 53  0.0000000  0 10 23 26 06 10 30 18 17 22 15 21
  20553793.245   -19891047.815 9 -15481764.72448  20553792.745    20553798.4464
  22082625.759   -18482169.294 8 -14387861.07946  22082625.787    22082632.5054
  20298492.290   -28027597.380 9 -21826355.43848  20298492.116    20298497.5344
  23627511.728   -11005924.839 8  -7772333.53045  23627510.974    23627519.4814
  23632533.942    -9370925.627 8  -7285643.41745  23632534.187    23632543.7934
  21821906.468   -20811363.024 8 -16202568.76747  21821906.019    21821912.4114
  21340407.409   -20959643.684 9 -16312622.38347  21340406.854    21340413.5554
  23667795.495    -8107665.436 8  -6304253.75145  23667794.417    23667805.2824
  21873034.803   -20069864.831 8 -15227830.20347  21873034.114    21873041.9094
  24833016.921    -1338062.002 7   -821031.26045  24833016.022    24833031.7524
 02  1 27  2 53 30.0000000  0 10 23 26 06 10 30 18 17 22 15 21
  20556083.882   -19879010.147 9 -15472384.67748  20556083.380    20556089.0684
  22072639.682   -18534645.979 8 -14428751.88346  22072639.740    22072646.4394
  20301526.736   -28011651.189 9 -21813929.81048  20301526.556    20301531.9694
  23646851.879   -10904292.871 8  -7693139.80445  23646851.085    23646859.3324
  23651905.303    -9269128.918 8  -7206321.41145  23651905.456    23651915.2004
  21807068.496   -20889336.589 8 -16263327.26747  21807068.051    21807074.4204
  21334193.280   -20992298.810 9 -16338067.83947  21334192.726    21334199.3864
  23661654.864    -8139933.970 8  -6329397.93745  23661653.928    23661664.6904
  21862821.396   -20123536.331 8 -15269652.07147  21862820.695    21862828.4744
  24815406.482    -1430603.276 7   -893140.79145  24815405.683    24815421.1754
 02  1 27  2 54  0.0000000  0 10 23 26 06 10 30 18 17 22 15 21
  20558462.616   -19866509.688 9 -15462644.00748  20558462.103    20558467.7754
  22062748.893   -18586621.711 8 -14469252.33046  22062748.947    22062755.6374
  20304652.114   -27995227.233 9 -21801131.89348  20304651.932    20304657.3204
  23666212.894   -10802551.137 8  -7613860.54145  23666212.092    23666220.0014
  23671282.931    -9167299.146 8  -7126973.62945  23671283.082    23671292.9564
  21792299.626   -20966947.053 9 -16323802.83047  21792299.185    21792305.5344
  21328007.890   -21024802.918 9 -16363395.61947  21328007.338    21328013.9604
  23655613.860    -8171679.167 8  -6354134.33945  23655612.980    23655623.5784
  21852637.898   -20177050.660 8 -15311351.47347  21852637.194    21852644.9484
  24797823.887    -1522998.472 7   -965136.48745  24797823.055    24797838.2934
 02  1 27  2 54 30.0000000  0 10 23 26 06 10 30 18 17 22 15 21
  20560928.975   -19853548.731 9 -15452544.51248  20560928.465    20560934.1154
  22052953.784   -18638094.751 8 -14509361.07246  22052953.838    22052960.5034
  20307868.332   -27978325.766 9 -21787961.89248  20307868.146    20307873.5184
  23685594.121   -10700702.770 8  -7534498.19645  23685593.305    23685601.0574
  23690666.213    -9065439.736 8  -7047602.77045  23690666.353    23690676.2264
  21777599.890   -21044194.071 9 -16383995.18647  21777599.452    21777605.7814
  21321851.011   -21057157.133 9 -16388606.59547  21321850.450    21321857.0454
  23649672.424    -8202901.304 8  -6378463.17445  23649671.523    23649682.0724
  21842484.093   -20230408.806 8 -15352929.16147  21842483.394    21842491.1254
  24780269.172    -1615246.701 7  -1037017.67445  24780268.488    24780283.4934
 02  1 27  2 55  0.0000000  0 10 23 26 06 10 30 18 17 22 15 21
  20563482.714   -19840128.574 9 -15442087.19748  20563482.198    20563487.8474
  22043254.838   -18689062.558 8 -14549076.13746  22043254.902    22043261.5204
  20311175.550   -27960946.174 9 -21774419.32648  20311175.366    20311180.7164
  23704995.117   -10598750.351 8  -7455054.77345  23704994.294    23705001.9454
  23710054.561    -8963553.739 8  -6968211.19345  23710054.720    23710064.6004
  21762969.585   -21121076.459 9 -16443903.42047  21762969.150    21762975.4584
  21315722.636   -21089361.403 9 -16413700.73947  21315722.083    21315728.6584
  23643830.606    -8233599.786 8  -6402383.96445  23643829.737    23643840.1904
  21832359.980   -20283611.057 8 -15394385.37147  21832359.292    21832366.9944
  24762742.760    -1707346.390 7  -1108783.11745  24762742.272    24762756.8644
 02  1 27  2 55 30.0000000  0 10 23 26 06 10 30 18 17 22 15 21
  20566123.525   -19826250.661 9 -15431273.18948  20566123.009    20566128.6584
  22033652.549   -18739522.266 8 -14588395.28346  22033652.630    22033659.2034
  20314573.790   -27943088.096 9 -21760503.91348  20314573.603    20314578.9754
  23724415.404   -10496695.953 8  -7375531.87245  23724414.599    23724422.3274
  23729447.388    -8861644.130 8  -6888801.21545  23729447.575    23729457.4684
  21748408.935   -21197592.626 9 -16503526.27847  21748408.510    21748414.7944
  21309622.780   -21121416.077 9 -16438678.31447  21309622.226    21309628.7834
  23638088.544    -8263774.136 8  -6425896.35745  23638087.753    23638098.0344
  21822265.529   -20336657.351 8 -15435720.04247  21822264.840    21822272.5514
  24745244.825    -1799296.424 7  -1180431.94545  24745244.185    24745258.7854
 02  1 27  2 56  0.0000000  0 10 23 26 06 10 30 18 17 22 15 21
  20568851.203   -19811916.414 9 -15420103.59948  20568850.681    20568856.3194
  22024147.420   -18789471.471 8 -14627316.62546  22024147.500    22024154.0634
  20318063.214   -27924750.852 9 -21746215.12448  20318063.028    20318068.4204
  23743854.544   -10394542.075 8  -7295931.46045  23743853.743    23743861.5884
  23748844.175    -8759713.761 8  -6809375.06945  23748844.437    23748854.2154
  21733918.189   -21273741.422 9 -16562862.87547  21733917.782    21733924.0374
  21303551.335   -21153321.205 9 -16463539.37047  21303550.799    21303557.3214
  23632446.332    -8293423.572 7  -6448999.71945  23632445.579    23632455.8414
  21812200.749   -20389547.687 8 -15476933.18347  21812200.068    21812207.7264
  24727775.487    -1891095.790 7  -1251963.35045  24727774.849    24727789.5094
 02  1 27  2 56 30.0000000  0 10 23 26 06 10 30 18 17 22 15 21
  20571665.403   -19797127.576 9 -15408579.78148  20571664.883    20571670.5274
  22014739.914   -18838907.688 8 -14665838.25146  22014739.993    22014746.5174
  20321643.809   -27905934.538 9 -21731553.03248  20321643.629    20321649.0324
  23763311.942   -10292291.651 8  -7216255.80745  23763311.153    23763319.2774
  23768244.357    -8657765.624 8  -6729935.06545  23768244.637    23768254.3224
  21719497.561   -21349521.712 9 -16621912.32647  21719497.135    21719503.3944
  21297508.307   -21185077.162 9 -16488284.18347  21297507.762    21297514.2574
  23626904.065    -8322548.049 7  -6471694.03645  23626903.345    23626913.4644
  21802165.641   -20442282.144 8 -15518024.85147  21802164.955    21802172.5984
  24710335.192    -1982742.900 7  -1323376.15045  24710334.702    24710349.0714
 02  1 27  2 57  0.0000000  0 10 23 26 06 10 30 18 17 22 15 21
  20574565.882   -19781885.202 9 -15396702.55648  20574565.365    20574571.0104
  22005430.552   -18887828.032 8 -14703957.88746  22005430.638    22005437.1204
  20325315.728   -27886638.379 9 -21716517.03148  20325315.547    20325320.9794
  23782787.358   -10189946.493 8  -7136506.33645  23782786.550    23782794.9854
  23787647.385    -8555802.382 8  -6650483.31145  23787647.674    23787657.3624
  21705147.413   -21424931.734 9 -16680673.25347  21705146.980    21705153.2134
  21291493.720   -21216683.816 9 -16512912.66047  21291493.186    21291499.6374
  23621461.836    -8351146.719 7  -6493978.61845  23621461.113    23621471.2364
  21792160.232   -20494860.525 8 -15558994.88647  21792159.532    21792167.1684
  24692924.122    -2074236.286 7  -1394669.13445  24692923.736    24692937.8364
 02  1 27  2 57 30.0000000  0 10 23 26 06 10 30 18 17 22 15 21
  20577552.321   -19766190.977 9 -15384473.24148  20577551.817    20577557.4494
  21996219.808   -18936230.247 8 -14741673.80746  21996219.904    21996226.3824
  20329078.960   -27866862.291 9 -21701107.06548  20329078.782    20329084.2074
  23802280.435   -10087509.095 8  -7056684.99945  23802279.546    23802288.1114
  23807052.709    -8453827.154 8  -6571022.20045  23807052.960    23807062.7234
  21690867.892   -21499970.604 9 -16739144.97647  21690867.475    21690873.6484
  21285507.446   -21248141.613 9 -16537425.15047  21285506.910    21285513.3424
  23616119.748    -8379219.154 7  -6515853.16845  23616119.071    23616129.1144
  21782184.403   -20547283.345 8 -15599843.70347  21782183.708    21782191.3284
  24675542.632    -2165574.631 7  -1465841.28845  24675542.179    24675556.1834
 02  1 27  2 58  0.0000000  0 10 23 26 06 10 30 18 17 22 15 21
  20580624.468   -19750046.531 9 -15371893.10548  20580623.961    20580629.6094
  21987108.123   -18984111.922 8 -14778984.10446  21987108.222    21987114.6664
  20332933.588   -27846606.016 9 -21685322.92448  20332933.423    20332938.8234
  23821790.542    -9984982.308 8  -6976794.00945  23821789.747    23821798.3224
  23826459.703    -8351842.964 8  -6491554.13245  23826459.955    23826469.8094
  21676659.193   -21574637.299 9 -16797326.68847  21676658.762    21676664.9004
  21279549.449   -21279450.737 9 -16561821.79347  21279548.905    21279555.3114
  23610877.825    -8406765.292 7  -6537317.59945  23610877.080    23610887.2014
  21772238.146   -20599550.815 8 -15640571.45547  21772237.464    21772245.0434
  24658190.846    -2256756.743 7  -1536891.72245  24658190.311    24658204.3224
 02  1 27  2 58 30.0000000  0 10 23 26 06 10 30 18 17 22 15 21
  20583782.017   -19733453.123 9 -15358963.12448  20583781.535    20583787.1764
  21978096.034   -19031470.293 8 -14815886.63346  21978096.121    21978102.6014
  20336879.749   -27825868.788 9 -21669164.01448  20336879.581    20336884.9704
  23841317.425    -9882368.286 8  -6896835.03545  23841316.560    23841325.0664
  23845868.001    -8249852.384 8  -6412081.07845  23845868.208    23845878.1184
  21662521.599   -21648930.508 9 -16855217.37047  21662521.159    21662527.2684
  21273619.779   -21310611.115 9 -16586102.52547  21273619.230    21273625.6304
  23605736.191    -8433784.402 7  -6558371.36145  23605735.440    23605745.5194
  21762321.481   -20651662.841 8 -15681178.08047  21762320.789    21762328.3484
  24640869.071    -2347781.308 7  -1607819.40045  24640868.552    24640882.4844
 02  1 27  2 59  0.0000000  0 10 23 26 06 10 30 18 17 22 15 21
  20587024.678   -19716412.666 9 -15345684.79648  20587024.200    20587029.8384
  21969183.903   -19078303.240 8 -14852379.75046  21969183.961    21969190.4734
  20340917.408   -27804650.587 9 -21652630.32148  20340917.246    20340922.6134
  23860860.423    -9779669.636 8  -6816810.13445  23860859.580    23860867.8444
  23865276.897    -8147858.793 8  -6332605.68445  23865277.102    23865286.9514
  21648455.263   -21722849.024 9 -16912816.08447  21648454.837    21648460.8924
  21267718.306   -21341623.234 9 -16610267.73647  21267717.766    21267724.1444
  23600694.846    -8460276.261 7  -6579014.27645  23600694.079    23600704.2124
  21752434.332   -20703619.581 8 -15721663.69247  21752433.634    21752441.1604
  24623577.491    -2438647.234 7  -1678623.46645  24623576.973    24623590.8394
 02  1 27  2 59 30.0000000  0 10 23 26 06 10 30 18 17 22 15 21
  20590352.160   -19698926.267 9 -15332058.98348  20590351.676    20590357.3244
  21960372.323   -19124607.962 8 -14888461.25846  21960372.401    21960378.9134
  20345046.699   -27782950.784 9 -21635721.35848  20345046.537    20345051.9184
  23880419.131    -9676888.434 8  -6736720.91145  23880418.340    23880426.1704
  23884685.892    -8045864.626 8  -6253129.83245  23884686.156    23884695.9914
  21634460.557   -21796391.253 9 -16970121.58947  21634460.135    21634466.1464
  21261845.073   -21372486.823 9 -16634317.21747  21261844.531    21261850.8924
  23595754.038    -8486240.274 7  -6599245.87845  23595753.270    23595763.3384
  21742576.796   -20755420.720 8 -15762028.05747  21742576.098    21742583.6004
  24606316.225    -2529353.393 7  -1749303.03945  24606315.803    24606329.5374
 02  1 27  3  0  0.0000000  0 10 23 26 06 10 30 18 17 22 15 21
  20593764.302   -19680995.234 9 -15318086.69848  20593763.814    20593769.4514
  21951661.761   -19170381.839 8 -14924129.12546  21951661.841    21951668.3514
  20349267.740   -27760768.900 9 -21618436.74548  20349267.565    20349272.9664
  23899993.129    -9574026.826 8  -6656569.02545  23899992.410    23899999.9484
  23904094.474    -7943872.486 8  -6173655.56045  23904094.749    23904104.5164
  21620537.666   -21869556.027 9 -17027132.97647  21620537.244    21620543.2354
  21256000.120   -21403201.930 9 -16658250.99847  21255999.578    21256005.9154
  23590913.733    -8511675.969 7  -6619065.80445  23590912.921    23590922.9674
  21732748.883   -20807066.259 8 -15802271.16647  21732748.192    21732755.6374
  24589085.735    -2619898.101 7  -1819856.80845  24589085.371    24589099.0354
 02  1 27  3  0 30.0000000  0 10 23 26 06 10 30 18 17 22 15 21
  20597260.787   -19662620.938 9 -15303769.01648  20597260.294    20597265.9294
  21943052.753   -19215622.238 8 -14959381.29046  21943052.840    21943059.3254
  20353580.617   -27738104.484 9 -21600776.13548  20353580.439    20353585.8354
  23919581.965    -9471086.829 8  -6576356.06045  23919581.188    23919588.6424
  23923502.125    -7841885.104 8  -6094185.01445  23923502.374    23923512.1814
  21606686.845   -21942342.234 9 -17083849.37947  21606686.422    21606692.3754
  21250183.473   -21433768.409 9 -16682068.97347  21250182.935    21250189.2484
  23586174.076    -8536582.684 7  -6638473.52645  23586173.311    23586183.3324
  21722950.602   -20858555.934 8 -15842392.82347  21722949.905    21722957.3164
  24571886.229    -2710280.075 7  -1890283.80945  24571885.869    24571899.4384
 02  1 27  3  1  0.0000000  0 10 23 26 06 10 30 18 17 22 15 21
  20600841.310   -19643804.900 9 -15289107.11748  20600840.815    20600846.4394
  21934545.766   -19260326.644 8 -14994215.79746  21934545.810    21934552.2944
  20357985.382   -27714957.147 9 -21582739.22448  20357985.200    20357990.6024
  23939185.222    -9368070.708 8  -6496083.76845  23939184.408    23939191.9594
  23942908.265    -7739905.217 8  -6014720.30745  23942908.510    23942918.4304
  21592908.326   -22014748.343 9 -17140269.60347  21592907.891    21592913.8094
  21244395.087   -21464186.204 9 -16705771.08247  21244394.552    21244400.8424
  23581535.111    -8560960.249 7  -6657468.91745  23581534.383    23581544.3544
  21713181.978   -20909889.786 8 -15882393.06247  21713181.278    21713188.6434
  24554717.947    -2800497.665 7  -1960582.71845  24554717.514    24554730.9934
 02  1 27  3  1 30.0000000  0 10 23 26 06 10 30 18 17 22 15 21
  20604505.590   -19624548.700 9 -15274102.24048  20604505.098    20604510.7184
  21926141.213   -19304492.690 8 -15028630.81046  21926141.259    21926147.6884
  20362482.117   -27691326.701 9 -21564325.86648  20362481.937    20362487.3264
  23958802.462    -9264981.001 8  -6415754.13645  23958801.617    23958809.2204
  23962312.460    -7637935.592 8  -5935263.59345  23962312.716    23962322.8114
  21579202.346   -22086773.337 9 -17196392.85747  21579201.900    21579207.7934
  21238634.980   -21494455.563 9 -16729357.54147  21238634.439    21238640.7224
  23576996.909    -8584808.121 8  -6676051.56245  23576996.196    23577006.1194
  21703442.995   -20961067.927 8 -15922271.97747  21703442.300    21703449.6424
  24537581.139    -2890550.095 7  -2030752.93145  24537580.777    24537594.0174
 02  1 27  3  2  0.0000000  0 10 23 26 06 10 30 18 17 22 15 21
  20608253.370   -19604853.750 9 -15258755.48047  20608252.873    20608258.4784
  21917839.594   -19348117.837 8 -15062624.34446  21917839.655    21917846.0124
  20367070.823   -27667212.769 9 -21545535.76248  20367070.640    20367076.0034
  23978433.231    -9161819.878 8  -6335368.84445  23978432.417    23978440.2034
  23981714.237    -7535978.945 8  -5855816.98645  23981714.554    23981724.6884
  21565569.127   -22158415.927 9 -17252218.13347  21565568.688    21565574.5394
  21232903.093   -21524576.534 9 -16752828.36547  21232902.548    21232908.8244
  23572559.623    -8608126.060 8  -6694221.25645  23572558.817    23572568.7954
  21693733.625   -21012090.453 8 -15962029.63047  21693732.921    21693740.2324
  24520476.181    -2980435.221 7  -2100792.78445  24520475.769    24520488.9844
 02  1 27  3  2 30.0000000  0 10 23 26 06 10 30 18 17 22 15 21
  20612084.338   -19584721.779 9 -15243068.17847  20612083.841    20612089.4274
  21909641.312   -19391199.979 8 -15096194.75147  21909641.401    21909647.6774
  20371751.600   -27642615.126 9 -21526368.74548  20371751.420    20371756.7794
  23998077.245    -9058589.568 8  -6254929.63845  23998076.407    23998084.4914
  24001112.998    -7434038.253 8  -5776382.82745  24001113.345    24001123.4944
  21552008.940   -22229674.857 9 -17307744.45547  21552008.495    21552014.3044
  21227199.449   -21554549.113 9 -16776183.55847  21227198.906    21227205.1574
  23568223.123    -8630913.911 8  -6711977.90645  23568222.359    23568232.2744
  21684053.825   -21062957.383 8 -16001666.04447  21684053.133    21684060.4064
  24503403.279    -3070152.117 7  -2170701.57045  24503402.848    24503415.9204
 02  1 27  3  3  0.0000000  0 10 23 26 06 10 30 18 17 22 15 21
  20615998.171   -19564154.277 9 -15227041.50747  20615997.672    20616003.2344
  21901546.801   -19433736.683 8 -15129340.13947  21901546.855    21901553.0924
  20376524.446   -27617533.558 9 -21506824.63948  20376524.276    20376529.5954
  24017734.057    -8955292.408 8  -6174438.35545  24017733.209    24017741.5584
  24020508.210    -7332116.320 8  -5696963.28345  24020508.527    24020518.6874
  21538521.908   -22300549.058 9 -17362970.99347  21538521.472    21538527.2634
  21221524.020   -21584373.402 9 -16799423.19947  21221523.475    21221529.7264
  23563987.594    -8653171.283 8  -6729321.17045  23563986.822    23563996.6784
  21674403.706   -21113668.494 8 -16041181.04447  21674403.023    21674410.2444
  24486362.585    -3159699.559 7  -2240478.32645  24486362.155    24486375.1084
 02  1 27  3  3 30.0000000  0 10 23 26 06 10 30 18 17 22 15 21
  20619994.525   -19543153.130 9 -15210676.93047  20619994.015    20619999.5604
  21893556.517   -19475725.793 8 -15162058.83847  21893556.596    21893562.7684
  20381389.356   -27591968.147 9 -21486903.51648  20381389.178    20381394.4994
  24037403.271    -8851930.617 8  -6093896.72345  24037402.442    24037410.8324
  24039899.333    -7230216.097 8  -5617560.67945  24039899.674    24039909.7354
  21525108.286   -22371037.764 9 -17417897.14847  21525107.838    21525113.6064
  21215876.745   -21614049.685 9 -16822547.51547  21215876.205    21215882.4384
  23559852.971    -8674898.266 8  -6746251.14745  23559852.184    23559862.0364
  21664783.159   -21164224.192 8 -16080574.95847  21664782.474    21664789.6524
  24469354.297    -3249076.610 7  -2310122.31445  24469353.879    24469366.7434
 02  1 27  3  4  0.0000000  0 10 23 26 06 10 30 18 17 22 15 21
  20624073.098   -19521719.738 9 -15193975.53747  20624072.592    20624078.1234
  21885670.849   -19517164.863 8 -15194348.93147  21885670.915    21885677.0614
  20386346.400   -27565918.497 9 -21466605.06248  20386346.226    20386351.5244
  24057084.420    -8748506.511 8  -6013306.50345  24057083.647    24057091.9844
  24059285.908    -7128340.137 8  -5538176.95345  24059286.232    24059296.1364
  21511768.250   -22441139.669 9 -17472521.89647  21511767.813    21511773.5224
  21210257.671   -21643577.880 9 -16845556.43647  21210257.125    21210263.3664
  23555819.373    -8696094.516 8  -6762767.54845  23555818.637    23555828.4074
  21655192.224   -21214624.245 8 -16119847.59747  21655191.553    21655198.6824
  24452378.800    -3338281.598 7  -2379632.25145  24452378.322    24452391.0994
 02  1 27  3  4 30.0000000  0 10 23 26 06 10 30 18 17 22 15 21
  20628233.682   -19499855.650 9 -15176938.54447  20628233.171    20628238.6824
  21877890.269   -19558051.687 8 -15226208.70447  21877890.342    21877896.4734
  20391395.658   -27539384.356 9 -21445929.08948  20391395.491    20391400.7544
  24076776.952    -8645022.336 8  -5932669.50045  24076776.195    24076784.5344
  24078667.274    -7026491.344 8  -5458814.40845  24078667.524    24078677.3454
  21498502.054   -22510853.556 9 -17526844.30047  21498501.627    21498507.2764
  21204666.750   -21672958.001 9 -16868449.98247  21204666.195    21204672.4364
  23551886.804    -8716759.742 8  -6778870.16045  23551886.049    23551895.8734
  21645630.946   -21264868.628 8 -16158998.93847  21645630.282    21645637.3594
  24435436.216    -3427313.798 7  -2449007.56245  24435435.620    24435448.3774
 02  1 27  3  5  0.0000000  0 10 23 26 06 10 30 18 17 22 15 21
  20632475.913   -19477562.334 9 -15159567.08347  20632475.404    20632480.9004
  21870215.223   -19598383.735 8 -15257636.18846  21870215.315    21870221.4094
  20396537.196   -27512365.424 9 -21424875.35947  20396537.021    20396542.2634
  24096480.506    -8541480.203 8  -5851987.35045  24096479.725    24096488.1184
  24098042.943    -6924672.219 8  -5379474.97545  24098043.131    24098053.0304
  21485309.894   -22580178.385 9 -17580863.54347  21485309.460    21485315.0864
  21199104.052   -21702189.875 9 -16891228.00247  21199103.506    21199109.7334
  23548055.330    -8736893.752 8  -6794558.84145  23548054.532    23548064.2724
  21636099.312   -21314957.115 9 -16198028.80847  21636098.651    21636105.6914
  24418526.810    -3516171.509 7  -2518246.92545  24418526.286    24418538.9474
 02  1 27  3  5 30.0000000  0 10 23 26 06 10 30 18 17 22 15 21
  20636799.573   -19454841.236 9 -15141862.28447  20636799.061    20636804.5534
  21862646.212   -19638158.586 8 -15288629.48746  21862646.285    21862652.4034
  20401771.051   -27484861.273 9 -21403443.53447  20401770.878    20401776.0784
  24116194.655    -8437881.807 7  -5771261.33245  24116193.916    24116202.2364
  24117412.434    -6822885.190 8  -5300160.56945  24117412.623    24117422.5194
  21472192.099   -22649112.384 9 -17634578.23847  21472191.671    21472197.2594
  21193569.580   -21731273.428 9 -16913890.44047  21193569.018    21193575.2434
  23544325.020    -8756496.128 8  -6809833.25145  23544324.154    23544333.9624
  21626597.411   -21364889.546 9 -16236937.07947  21626596.729    21626603.7434
  24401650.829    -3604853.613 8  -2587349.46145  24401650.240    24401662.9074
 02  1 27  3  6  0.0000000  0 10 23 26 06 10 30 18 17 22 15 21
  20641204.333   -19431693.896 9 -15123825.35447  20641203.822    20641209.2914
  21855183.656   -19677373.891 8 -15319186.77946  21855183.741    21855189.8724
  20407097.314   -27456871.709 9 -21381633.46647  20407097.131    20407102.3074
  24135918.979    -8334229.446 7  -5690493.26445  24135918.232    24135926.5974
  24136775.292    -6721132.981 8  -5220873.29945  24136775.489    24136785.4144
  21459148.828   -22717654.753 9 -17687987.77747  21459148.401    21459153.9764
  21188063.414   -21760208.448 9 -16936437.14047  21188062.849    21188069.0434
  23540695.882    -8775566.596 8  -6824693.16945  23540694.997    23540704.8044
  21617125.194   -21414665.805 9 -16275723.66347  21617124.506    21617131.5294
  24384808.599    -3693358.346 8  -2656313.81745  24384808.059    24384820.5504
 02  1 27  3  6 30.0000000  0 10 23 26 06 10 30 18 17 22 15 21
  20645689.940   -19408121.790 9 -15105457.43747  20645689.417    20645694.8804
  21847828.013   -19716027.420 8 -15349306.31946  21847828.104    21847834.2574
  20412515.954   -27428396.504 9 -21359444.97847  20412515.770    20412520.9514
  24155653.105    -8230525.291 7  -5609684.85345  24155652.361    24155660.9124
  24156130.979    -6619418.392 8  -5141615.33045  24156131.159    24156141.0254
  21446180.333   -22785804.209 9 -17741091.14847  21446179.899    21446185.4544
  21182585.469   -21788994.933 9 -16958868.09347  21182584.912    21182591.0784
  23537167.958    -8794105.087 7  -6839138.57545  23537166.979    23537176.9874
  21607682.762   -21464285.569 9 -16314388.30947  21607682.073    21607689.0804
  24368000.292    -3781684.749 7  -2725139.22845  24367999.785    24368012.2244
 02  1 27  3  7  0.0000000  0 10 23 26 06 10 30 18 17 22 15 21
  20650256.012   -19384126.742 9 -15086759.95347  20650255.506    20650260.9374
  21840579.675   -19754117.058 8 -15378986.46746  21840579.761    21840585.9154
  20418026.980   -27399435.639 9 -21336878.04947  20418026.794    20418031.9984
  24175396.550    -8126771.632 7  -5528837.85945  24175395.652    24175404.3414
  24175479.023    -6517743.972 8  -5062388.66745  24175479.244    24175489.1034
  21433286.735   -22853559.905 9 -17793887.69047  21433286.305    21433291.8484
  21177135.786   -21817633.029 9 -16981183.41547  21177135.225    21177141.3744
  23533741.256    -8812111.516 7  -6853169.36645  23533740.341    23533750.1364
  21598270.130   -21513748.850 9 -16352931.01747  21598269.449    21598276.4374
  24351226.209    -3869831.727 8  -2793824.82645  24351225.728    24351237.9224
 02  1 27  3  7 30.0000000  0 10 23 26 06 10 30 18 17 22 15 21
  20654902.234   -19359710.508 9 -15067734.27347  20654901.729    20654907.1444
  21833439.060   -19791640.738 8 -15408225.61046  21833439.135    21833445.3014
  20423630.420   -27369989.199 9 -21313932.75447  20423630.245    20423635.4544
  24195148.980    -8022970.758 7  -5447954.08845  24195148.158    24195156.8754
  24194818.914    -6416112.827 7  -4983195.72545  24194819.184    24194829.0654
  21420468.253   -22920920.984 9 -17846376.74447  21420467.839    21420473.3554
  21171714.300   -21846122.845 9 -17003383.19047  21171713.748    21171719.8644
  23530415.844    -8829585.978 7  -6866785.63745  23530414.943    23530424.7004
  21588887.180   -21563056.097 9 -16391352.14647  21588886.485    21588893.4424
  24334486.483    -3957798.255 8  -2862369.85345  24334486.017    24334497.9964
 02  1 27  3  8  0.0000000  0 10 23 26 06 10 30 18 17 22 15 21
  20659628.283   -19334874.853 9 -15048381.77447  20659627.777    20659633.1824
  21826406.525   -19828596.573 8 -15437022.27446  21826406.603    21826412.7494
  20429326.240   -27340057.133 9 -21290609.04547  20429326.072    20429331.3074
  24214910.169    -7919124.550 7  -5367035.00445  24214909.277    24214918.1844
  24214150.134    -6314527.536 8  -4904038.53745  24214150.361    24214160.1764
  21407725.050   -22987886.444 9 -17898557.51947  21407724.621    21407730.1394
  21166321.029   -21874464.346 9 -17025467.39947  21166320.481    21166326.5964
  23527191.602    -8846528.675 7  -6879987.55245  23527190.496    23527200.4724
  21579533.959   -21612207.209 9 -16429651.60647  21579533.280    21579540.1784
  24317781.379    -4045582.740 8  -2930773.03145  24317780.842    24317792.7284
 02  1 27  3  8 30.0000000  0 10 23 26 06 10 30 18 17 22 15 21
  20664433.763   -19309621.707 9 -15028703.95947  20664433.251    20664438.6484
  21819482.466   -19864982.401 8 -15465374.77346  21819482.527    21819488.6434
  20435114.497   -27309639.525 9 -21266906.99447  20435114.325    20435119.5544
  24234679.639    -7815235.488 7  -5286082.49545  24234678.731    24234687.5204
  24233472.116    -6212991.016 8  -4824919.34945  24233472.375    24233482.2524
  21395057.323   -23054455.422 9 -17950429.35247  21395056.900    21395062.4074
  21160955.913   -21902657.778 9 -17047436.22947  21160955.366    21160961.4834
  23524068.601    -8862939.466 7  -6892774.99745  23524067.488    23524077.4554
  21570210.450   -21661202.218 9 -16467829.43047  21570209.775    21570216.6334
  24301111.155    -4133184.118 8  -2999033.52745  24301110.522    24301122.2144
 02  1 27  3  9  0.0000000  0 10 23 26 06 10 30 18 17 22 15 21
  20669318.360   -19283952.731 9 -15008702.11847  20669317.859    20669323.2384
  21812667.230   -19900796.345 8 -15493281.65147  21812667.315    21812673.3774
  20440995.153   -27278736.441 9 -21242826.65247  20440994.994    20441000.1984
  24254456.958    -7711305.814 7  -5205098.36045  24254456.018    24254464.9044
  24252784.313    -6111505.956 8  -4745840.25145  24252784.576    24252794.5594
  21382465.227   -23120626.969 9 -18001991.49547  21382464.808    21382470.2844
  21155619.036   -21930703.133 9 -17069289.67947  21155618.490    21155624.5684
  23521046.779    -8878818.594 7  -6905148.13745  23521045.768    23521055.5384
  21560916.640   -21710041.033 9 -16505885.53747  21560915.939    21560922.7734
  24284475.891    -4220601.849 8  -3067150.94445  24284475.328    24284486.7324
 02  1 27  3  9 30.0000000  0 10 23 26 06 10 30 18 17 22 15 21
  20674281.828   -19257869.453 9 -14988377.44847  20674281.323    20674286.6894
  21805961.246   -19936036.193 8 -15520741.18447  21805961.337    21805967.3294
  20446968.226   -27247347.861 9 -21218368.00347  20446968.069    20446973.2534
  24274241.655    -7607337.368 7  -5124084.02045  24274240.733    24274249.5914
  24272086.151    -6010075.061 7  -4666803.37345  24272086.374    24272096.5244
  21369948.913   -23186400.109 9 -18053243.18847  21369948.503    21369953.9394
  21150310.326   -21958600.380 9 -17091027.72247  21150309.775    21150315.8274
  23518126.017    -8894166.046 7  -6917106.99845  23518125.040    23518134.7844
  21551652.535   -21758723.771 8 -16543820.02947  21551651.842    21551658.6744
  24267875.863    -4307834.562 8  -3135124.22545  24267875.300    24267886.4994
 02  1 27  3 10  0.0000000  0 10 23 26 06 10 30 18 17 22 15 21
  20679323.837   -19231373.376 9 -14967731.12147  20679323.332    20679328.6994
  21799364.982   -19970699.652 8 -15547751.58647  21799365.064    21799370.9784
  20453033.702   -27215473.400 9 -21193530.74247  20453033.550    20453038.7314
  24294033.354    -7503332.271 7  -5043041.11745  24294032.391    24294041.0564
  24291377.046    -5908700.649 7  -4587810.50445  24291377.310    24291387.6564
  21357508.721   -23251773.488 9 -18104183.38747  21357508.315    21357513.7244
  21145029.872   -21986349.100 9 -17112650.03947  21145029.311    21145035.3304
  23515306.630    -8908981.441 7  -6928651.29945  23515305.743    23515315.2894
  21542418.234   -21807249.825 9 -16581632.44247  21542417.545    21542424.3774
  24251311.315    -4394880.787 8  -3202952.18345  24251310.737    24251321.8164
 02  1 27  3 10 30.0000000  0 10 23 26 06 10 30 18 17 22 15 21
  20684444.054   -19204466.216 9 -14946764.46147  20684443.538    20684448.8954
  21792878.769   -20004784.694 8 -15574311.26247  21792878.854    21792884.6804
  20459191.669   -27183113.021 9 -21168314.84547  20459191.516    20459196.6834
  24313831.607    -7399292.565 7  -4961971.24845  24313830.715    24313839.3074
  24310656.745    -5807385.359 7  -4508863.70145  24310657.042    24310667.5574
  21345144.764   -23316746.159 9 -18154811.33747  21345144.344    21345149.7394
  21139777.706   -22013949.241 9 -17134156.57147  21139777.147    21139783.1324
  23512588.512    -8923264.842 7  -6939781.03545  23512587.623    23512597.1004
  21533213.798   -21855619.006 9 -16619322.60247  21533213.097    21533219.9124
  24234782.560    -4481738.974 8  -3270633.64045  24234782.060    24234792.8994
 02  1 27  3 11  0.0000000  0 10 23 26 06 10 30 18 17 22 15 21
  20689642.119   -19177149.974 9 -14925479.03947  20689641.599    20689646.9504
  21786502.967   -20038289.617 8 -15600418.90747  21786503.058    21786508.8164
  20465442.015   -27150267.098 9 -21142720.60247  20465441.839    20465447.0484
  24333635.927    -7295220.686 7  -4880876.31645  24333635.054    24333643.6734
  24329924.593    -5706132.250 7  -4429965.35045  24329924.833    24329935.5804
  21332857.177   -23381317.418 9 -18205126.50147  21332856.761    21332862.1274
  21134553.724   -22041401.098 9 -17155547.55647  21134553.174    21134559.1534
  23509971.483    -8937016.762 7  -6950496.63645  23509970.517    23509980.0734
  21524039.180   -21903831.629 9 -16656890.77247  21524038.478    21524045.2524
  24218289.683    -4568408.551 8  -3338168.14345  24218289.158    24218300.0154
 02  1 27  3 11 30.0000000  0 10 23 26 06 10 30 18 17 22 15 21
  20694917.845   -19149425.698 9 -14903875.67147  20694917.337    20694922.6764
  21780238.043   -20071211.736 8 -15626072.41547  21780238.125    21780243.8484
  20471784.854   -27116935.119 9 -21116747.61547  20471784.689    20471789.9064
  24353446.073    -7191117.940 7  -4799757.30845  24353445.261    24353453.8414
  24349180.258    -5604943.181 7  -4351116.90145  24349180.473    24349191.3654
  21320646.286   -23445485.777 9 -18255127.71747  21320645.864    21320651.1954
  21129358.085   -22068703.959 9 -17176822.45347  21129357.540    21129363.5024
  23507455.630    -8950236.723 7  -6960797.72445  23507454.708    23507464.2834
  21514894.430   -21951887.135 9 -16694336.51647  21514893.729    21514900.4734
  24201833.081    -4654887.621 8  -3405554.21245  24201832.491    24201843.3344
 02  1 27  3 12  0.0000000  0 10 23 26 06 10 30 18 17 22 15 21
  20700270.784   -19121295.628 9 -14881956.09847  20700270.261    20700275.6144
  21774084.322   -20103549.677 8 -15651270.72147  21774084.395    21774090.0734
  20478220.088   -27083117.457 9 -21090396.17047  20478219.933    20478225.1914
  24373261.556    -7086986.963 7  -4718616.33245  24373260.792    24373269.2534
  24368423.174    -5503821.308 7  -4272320.81945  24368423.411    24368434.4984
  21308512.111   -23509250.946 9 -18304814.76047  21308511.685    21308516.9924
  21124190.754   -22095858.223 9 -17197981.55547  21124190.208    21124196.1574
  23505040.990    -8962925.291 7  -6970684.75745  23505040.130    23505049.5804
  21505779.558   -21999785.720 9 -16731659.98847  21505778.869    21505785.5664
  24185412.861    -4741175.715 8  -3472791.48145  24185412.278    24185423.0134
 02  1 27  3 12 30.0000000  0 10 23 26 06 10 30 18 17 22 15 21
  20705700.692   -19092761.073 9 -14859721.34247  20705700.162    20705705.5044
  21768042.187   -20135301.010 8 -15676011.94147  21768042.258    21768047.9114
  20484747.844   -27048813.812 9 -21063666.04547  20484747.674    20484752.9524
  24393082.072    -6982829.022 7  -4637454.31745  24393081.331    24393089.8104
  24387652.937    -5402768.719 7  -4193578.72945  24387653.178    24387664.3794
  21296454.945   -23572611.374 9 -18354186.42747  21296454.521    21296459.7914
  21119051.818   -22122863.297 9 -17219024.40847  21119051.285    21119057.2024
  23502727.505    -8975082.130 7  -6980157.44745  23502726.471    23502735.9734
  21496694.607   -22047527.034 9 -16768860.91747  21496693.918    21496700.5764
  24169029.276    -4827270.986 8  -3539878.50245  24169028.760    24169039.4644
 02  1 27  3 13  0.0000000  0 10 23 26 06 10 30 18 17 22 15 21
  20711207.140   -19063824.303 9 -14837173.17147  20711206.620    20711211.9614
  21762111.930   -20166464.342 8 -15700294.96847  21762111.994    21762117.6454
  20491368.010   -27014024.681 9 -21036557.61547  20491367.851    20491373.0924
  24412907.253    -6878646.612 7  -4556273.23945  24412906.517    24412914.9004
  24406869.009    -5301788.609 7  -4114893.12745  24406869.305    24406880.3194
  21284474.896   -23635566.562 9 -18403242.32147  21284474.465    21284479.7154
  21113941.162   -22149719.622 9 -17239951.35347  21113940.633    21113946.5194
  23500515.076    -8986707.859 7  -6989216.29145  23500514.083    23500523.5684
  21487639.555   -22095111.329 9 -16805939.49547  21487638.877    21487645.4884
  24152682.588    -4913172.591 8  -3606814.62345  24152682.026    24152692.8294
 02  1 27  3 13 30.0000000  0 10 23 26 06 10 30 18 17 22 15 21
  20716789.779   -19034487.188 9 -14814313.04347  20716789.265    20716794.5914
  21756293.937   -20197037.815 8 -15724118.37547  21756294.001    21756299.6344
  20498080.499   -26978750.419 9 -21009071.16347  20498080.334    20498085.5654
  24432736.667    -6774442.098 7  -4475074.94245  24432735.939    24432744.3364
  24426070.858    -5200883.649 7  -4036266.06745  24426071.083    24426082.0514
  21272572.066   -23698115.925 9 -18451981.98847  21272571.645    21272576.8674
  21108858.852   -22176427.225 9 -17260762.41847  21108858.302    21108864.1814
  23498403.628    -8997802.820 7  -6997861.54745  23498402.645    23498412.0754
  21478614.377   -22142538.495 9 -16842895.63147  21478613.685    21478620.2964
  24136372.882    -4998879.792 8  -3673599.24645  24136372.328    24136383.1324
 02  1 27  3 14  0.0000000  0 10 23 26 06 10 30 18 17 22 15 21
  20722448.349   -19004751.100 9 -14791142.02947  20722447.828    20722453.1354
  21750588.573   -20227019.330 8 -15747480.52247  21750588.651    21750594.3124
  20504885.357   -26942990.663 9 -20981206.40847  20504885.173    20504890.3934
  24452569.983    -6670217.315 7  -4393860.84545  24452569.269    24452577.5454
  24445257.877    -5100056.111 7  -3957699.35445  24445258.049    24445269.1794
  21260746.764   -23760258.041 9 -18500404.32647  21260746.322    21260751.5364
  21103804.881   -22202985.775 9 -17281457.34147  21103804.321    21103810.1884
  23496393.216    -9008366.906 7  -7006093.13845  23496392.217    23496401.5854
  21469619.172   -22189808.260 9 -16879729.13047  21469618.473    21469625.0534
  24120100.509    -5084390.818 8  -3740231.01645  24120099.962    24120110.7834
 02  1 27  3 14 30.0000000  0 10 23 26 06 10 30 18 17 22 15 21
  20728182.470   -18974617.944 9 -14767661.60547  20728181.958    20728187.2494
  21744996.156   -20256407.204 8 -15770380.08747  21744996.223    21745001.9214
  20511782.515   -26906745.777 9 -20952963.62447  20511782.339    20511787.5374
  24472406.918    -6565974.026 7  -4312632.34045  24472406.115    24472414.3594
  24464429.570    -4999308.737 7  -3879195.09645  24464429.827    24464441.0014
  21248999.007   -23821992.368 9 -18548508.89847  21248998.565    21249003.7844
  21098779.275   -22229395.144 9 -17302036.01347  21098778.720    21098784.5854
  23494483.738    -9018400.552 7  -7013911.40645  23494482.748    23494492.1724
  21460653.890   -22236920.783 9 -16916440.09347  21460653.189    21460659.7474
  24103865.561    -5169705.217 8  -3806709.55145  24103865.032    24103875.7714
 02  1 27  3 15  0.0000000  0 10 23 26 06 10 30 18 17 22 15 21
  20733991.811   -18944089.472 9 -14743873.14347  20733991.287    20733996.5704
  21739517.088   -20285199.562 8 -15792815.61347  21739517.166    21739522.8834
  20518771.942   -26870015.878 9 -20924342.90747  20518771.760    20518776.9564
  24492246.933    -6461714.393 7  -4231391.09245  24492246.130    24492254.2374
  24483585.470    -4898643.980 7  -3800755.18745  24483585.686    24483596.9924
  21237329.068   -23883318.037 9 -18596295.04047  21237328.633    21237333.8284
  21093782.095   -22255655.177 9 -17322498.31747  21093781.539    21093787.4004
  23492675.191    -9027903.847 7  -7021316.41045  23492674.220    23492683.4604
  21451718.645   -22283875.553 9 -16953028.12847  21451717.925    21451724.4844
  24087668.278    -5254821.745 8  -3873033.90145  24087667.764    24087678.4824
 02  1 27  3 15 30.0000000  0 10 23 26 06 10 30 18 17 22 15 21
  20739876.027   -18913167.552 9 -14719778.10147  20739875.523    20739880.7814
  21734151.668   -20313394.705 8 -15814785.78047  21734151.740    21734157.4384
  20525853.659   -26832801.179 9 -20895344.42347  20525853.477    20525858.6854
  24512089.639    -6357440.564 7  -4150138.78045  24512088.774    24512096.9894
  24502725.189    -4798064.579 7  -3722381.79645  24502725.376    24502736.8774
  21225736.987   -23944234.290 9 -18643762.15647  21225736.558    21225741.7494
  21088813.361   -22281765.934 9 -17342844.30647  21088812.809    21088818.6474
  23490967.530    -9036877.189 7  -7028308.46745  23490966.592    23490975.7774
  21442813.400   -22330672.494 9 -16989493.18847  21442812.690    21442819.2014
  24071508.761    -5339739.426 8  -3939203.29245  24071508.232    24071518.8984
 02  1 27  3 16  0.0000000  0 10 23 26 06 10 30 18 17 22 15 21
  20745834.804   -18881853.874 9 -14695377.79647  20745834.298    20745839.5484
  21728900.256   -20340990.725 8 -15836289.10747  21728900.306    21728905.9864
  20533027.595   -26795101.804 9 -20865968.27347  20533027.411    20533032.6274
  24531934.707    -6253154.394 7  -4068876.84745  24531933.756    24531942.1014
  24521848.251    -4697572.918 7  -3644076.79145  24521848.367    24521860.0134
  21214223.032   -24004740.148 9 -18690909.49247  21214222.619    21214227.7844
  21083873.080   -22307727.097 9 -17363073.72947  21083872.519    21083878.3434
  23489360.613    -9045320.900 7  -7034887.82945  23489359.625    23489368.7434
  21433938.235   -22377311.461 9 -17025835.15347  21433937.524    21433944.0124
  24055387.439    -5424456.604 8  -4005216.44845  24055386.982    24055397.4684
 02  1 27  3 16 30.0000000  0 10 23 26 06 10 30 18 17 22 15 21
  20751867.755   -18850150.348 9 -14670673.70947  20751867.251    20751872.4984
  21723763.157   -20367986.095 8 -15857324.39447  21723763.222    21723768.8714
  20540293.704   -26756918.043 9 -20836214.67647  20540293.521    20540298.7314
  24551781.680    -6148857.582 7  -3987606.63745  24551780.856    24551788.9874
  24540954.153    -4597171.577 7  -3565842.18045  24540954.210    24540965.9524
  21202787.298   -24064834.953 9 -18737736.52147  21202786.886    21202792.0324
  21078961.247   -22333538.674 9 -17383186.58847  21078960.689    21078966.4804
  23487854.404    -9053235.409 7  -7041054.81745  23487853.517    23487862.5054
  21425093.098   -22423792.490 9 -17062054.04847  21425092.397    21425098.8544
  24039304.374    -5508972.488 8  -4071072.75745  24039303.956    24039314.3854
 02  1 27  3 17  0.0000000  0 10 23 26 06 10 30 18 17 22 15 21
  20757974.524   -18818058.791 9 -14645667.26247  20757974.014    20757979.2654
  21718740.657   -20394379.131 8 -15877890.32747  21718740.739    21718746.3474
  20547651.941   -26718250.231 9 -20806083.89847  20547651.767    20547656.9774
  24571630.312    -6044552.359 7  -3906329.86245  24571629.545    24571637.6774
  24560042.386    -4496863.198 7  -3487679.99845  24560042.506    24560054.2404
  21191429.941   -24124517.863 9 -18784242.59547  21191429.519    21191434.6524
  21074077.925   -22359200.514 9 -17403182.76947  21074077.370    21074083.1534
  23486448.867    -9060620.968 7  -7046809.65045  23486448.061    23486457.0304
  21416278.104   -22470115.196 9 -17098149.57147  21416277.410    21416283.8304
  24023259.837    -5593286.055 8  -4136771.40145  24023259.424    24023269.7544
 02  1 27  3 17 30.0000000  0 10 23 26 06 10 30 18 17 22 15 21
  20764154.781   -18785581.092 9 -14620359.92547  20764154.275    20764159.5274
  21713833.111   -20420168.067 8 -15897985.53547  21713833.196    21713838.7854
  20555102.248   -26679098.642 9 -20775576.14847  20555102.069    20555107.2644
  24591480.155    -5940240.712 7  -3825048.08445  24591479.253    24591487.5464
  24579112.480    -4396650.481 7  -3409592.35645  24579112.714    24579124.2144
  21180151.133   -24183788.049 9 -18830427.06547  21180150.717    21180155.8454
  21069223.064   -22384712.663 9 -17423062.30847  21069222.511    21069228.2924
  23485143.869    -9067477.929 8  -7052152.59345  23485143.064    23485152.0044
  21407493.252   -22516279.700 9 -17134121.81847  21407492.551    21407498.9464
  24007253.946    -5677396.632 8  -4202311.87745  24007253.565    24007263.7894
 02  1 27  3 18  0.0000000  0 10 23 26 06 10 30 18 17 22 15 21
  20770408.190   -18752719.060 9 -14594753.11247  20770407.686    20770412.9284
  21709040.801   -20445351.300 8 -15917608.76347  21709040.934    21709046.4844
  20562644.553   -26639463.409 9 -20744691.53447  20562644.388    20562649.5714
  24611330.947    -5835924.218 7  -3743762.53345  24611329.991    24611338.3994
  24598163.891    -4296535.678 7  -3331580.99645  24598164.045    24598175.6034
  21168950.994   -24242644.803 9 -18876289.38547  21168950.581    21168955.7014
  21064396.806   -22410074.670 9 -17442824.85247  21064396.242    21064402.0184
  23483939.379    -9073806.968 8  -7057084.17445  23483938.578    23483947.4374
  21398738.581   -22562285.483 9 -17169970.38747  21398737.882    21398744.2554
  23991286.904    -5761302.858 8  -4267693.12345  23991286.488    23991296.7674
 02  1 27  3 18 30.0000000  0 10 23 26 06 10 30 18 17 22 15 21
  20776734.394   -18719474.520 9 -14568848.24147  20776733.896    20776739.1294
  21704364.058   -20469927.410 8 -15936758.92447  21704364.181    21704369.7004
  20570278.849   -26599344.810 9 -20713430.27347  20570278.672    20570283.8544
  24631182.320    -5731605.069 8  -3662474.91145  24631181.418    24631189.7044
  24617196.124    -4196521.418 7  -3253647.97845  24617196.279    24617207.8444
  21157829.685   -24301087.403 9 -18921828.98847  21157829.260    21157834.3884
  21059599.125   -22435286.476 9 -17462470.36047  21059598.563    21059604.3284
  23482835.321    -9079608.259 8  -7061604.53045  23482834.492    23482843.3864
  21390014.071   -22608132.669 9 -17205695.36447  21390013.372    21390019.7314
  23975358.993    -5845003.469 8  -4332914.14745  23975358.605    23975368.8264
 02  1 27  3 19  0.0000000  0 10 23 26 06 10 30 18 17 22 15 21
  20783133.020   -18685849.394 9 -14542646.80647  20783132.517    20783137.7664
  21699803.202   -20493894.742 8 -15955434.70547  21699803.309    21699808.7954
  20578005.039   -26558743.394 9 -20681792.78647  20578004.874    20578010.0384
  24651033.714    -5627285.533 7  -3581186.96645  24651032.735    24651041.0404
  24636208.714    -4096610.287 7  -3175795.33445  24636208.897    24636220.4604
  21146787.301   -24359115.201 9 -18967045.37047  21146786.874    21146791.9754
  21054830.038   -22460348.045 9 -17481998.80247  21054829.485    21054835.2364
  23481831.540    -9084882.512 8  -7065714.20645  23481830.717    23481839.6214
  21381319.727   -22653821.334 9 -17241296.81047  21381319.031    21381325.3804
  23959470.354    -5928497.941 8  -4397974.52545  23959469.915    23959480.1494
 02  1 27  3 19 30.0000000  0 10 23 26 06 10 30 18 17 22 15 21
  20789603.743   -18651845.270 9 -14516150.05047  20789603.237    20789608.4784
  21695358.546   -20517251.552 8 -15973634.75547  21695358.646    21695364.0964
  20585823.046   -26517659.256 9 -20649779.15547  20585822.871    20585828.0494
  24670884.877    -5522966.929 7  -3499899.75845  24670884.022    24670892.2184
  24655201.205    -3996804.658 7  -3098024.91645  24655201.419    24655213.0164
  21135823.953   -24416727.484 9 -19011937.97347  21135823.524    21135828.6194
  21050089.592   -22485259.030 9 -17501409.90647  21050089.037    21050094.7564
  23480928.036    -9089629.896 8  -7069413.34645  23480927.173    23480936.0634
  21372655.614   -22699351.012 9 -17276774.37647  21372654.909    21372661.2614
  23943621.222    -6011784.656 8  -4462873.01745  23943620.747    23943630.9774
 02  1 27  3 20  0.0000000  0 10 23 26 06 10 30 18 17 22 15 21
  20796146.206   -18617464.197 9 -14489359.57047  20796145.698    20796150.9524
  21691030.338   -20539996.396 8 -15991357.95247  21691030.412    21691035.8564
  20593732.876   -26476092.883 9 -20617389.76047  20593732.696    20593737.8694
  24690735.512    -5418650.959 8  -3418614.59045  24690734.760    24690742.8904
  24674173.159    -3897107.180 7  -3020338.75245  24674173.465    24674184.8794
  21124939.880   -24473923.341 9 -19056506.09347  21124939.459    21124944.5184
  21045377.799   -22510019.400 9 -17520703.65047  21045377.239    21045382.9474
  23480124.678    -9093851.007 8  -7072702.41045  23480123.829    23480132.7114
  21364021.810   -22744721.519 9 -17312127.91147  21364021.116    21364027.4564
  23927811.795    -6094862.604 8  -4527608.83845  23927811.291    23927821.4734
 02  1 27  3 20 30.0000000  0 10 23 26 06 10 30 18 17 22 15 21
  20802760.064   -18582708.048 9 -14462276.82347  20802759.549    20802764.8024
  21686818.912   -20562127.641 8 -16008603.01347  21686818.968    21686824.3824
  20601734.415   -26434044.508 9 -20584624.77847  20601734.236    20601739.3814
  24710585.229    -5314339.769 7  -3337333.15545  24710584.498    24710592.5064
  24693124.163    -3797520.144 7  -2942738.64045  24693124.395    24693135.7404
  21114135.159   -24530702.300 9 -19100749.35847  21114134.729    21114139.7684
  21040694.704   -22534628.881 9 -17539879.81347  21040694.141    21040699.8504
  23479421.332    -9097546.427 8  -7075581.85345  23479420.545    23479429.3914
  21355418.331   -22789932.612 9 -17347357.23647  21355417.632    21355423.9504
  23912042.225    -6177731.139 8  -4592181.47545  23912041.748    23912051.8424
 02  1 27  3 21  0.0000000  0 10 23 26 06 10 30 18 17 22 15 21
  20809444.888   -18547578.841 9 -14434903.37547  20809444.372    20809449.6154
  21682724.400   -20583644.304 8 -16025369.18447  21682724.462    21682729.8684
  20609827.507   -26391514.941 9 -20551484.83747  20609827.323    20609832.4544
  24730433.655    -5210035.503 8  -3256057.10545  24730432.898    24730441.1014
  24712053.610    -3698046.297 7  -2865226.72545  24712053.840    24712064.9764
  21103409.865   -24587063.847 9 -19144667.36747  21103409.424    21103414.4384
  21036040.332   -22559087.504 9 -17558938.42047  21036039.783    21036045.4714
  23478817.931    -9100716.841 8  -7078052.19545  23478817.113    23478825.9664
  21346845.170   -22834984.497 9 -17382462.49447  21346844.467    21346850.7684
  23896312.669    -6260389.501 8  -4656590.33645  23896312.247    23896322.1744
 02  1 27  3 21 30.0000000  0  8 23 26 06 18 17 22 15 21
  20816202.019   -18512069.753 9 -14407233.92747  20816201.504    20816206.7434
  21678748.798   -20604535.968 8 -16041648.34347  21678748.845    21678754.2704
  20618013.821   -26348495.607 9 -20517963.26747  20618013.646    20618018.7684
  21092765.812   -24642998.416 9 -19188252.66947  21092765.362    21092770.3654
  21031416.390   -22583386.315 9 -17577872.50847  21031415.834    21031421.5294
  23478316.040    -9103354.073 8  -7080107.08446  23478315.191    23478324.0424
  21338304.036   -22879868.072 9 -17417436.60847  21338303.330    21338309.6184
  23880624.962    -6342827.530 8  -4720827.52645  23880624.548    23880634.3664
 02  1 27  3 22  0.0000000  0  8 23 26 06 18 17 22 15 21
  20823029.584   -18476190.396 9 -14379275.95147  20823029.057    20823034.3144
  21674890.887   -20624809.198 8 -16057445.60247  21674890.925    21674896.3474
  20626291.735   -26304995.049 9 -20484066.71247  20626291.546    20626296.6614
  21082201.602   -24698513.468 9 -19231511.07547  21082201.146    21082206.1164
  21026821.385   -22607533.010 9 -17596688.06247  21026820.835    21026826.5284
  23477913.957    -9105466.639 8  -7081753.14546  23477913.029    23477921.9074
  21329793.473   -22924590.933 9 -17452285.49047  21329792.772    21329799.0354
  23864977.856    -6425052.564 8  -4784898.74045  23864977.441    23864987.2544
 02  1 27  3 22 30.0000000  0  8 23 26 06 18 17 22 15 21
  20829926.362   -18439947.496 9 -14351034.70047  20829925.832    20829931.0804
  21671150.014   -20644467.222 8 -16072763.48647  21671150.065    21671155.4814
  20634660.230   -26261018.218 9 -20449799.03947  20634660.032    20634665.1544
  21071716.455   -24753613.016 9 -19274445.71247  21071715.995    21071720.9444
  21022254.472   -22631531.925 9 -17615388.46447  21022253.926    21022259.6264
  23477610.718    -9107059.681 8  -7082994.40246  23477609.829    23477618.6484
  21321312.606   -22969157.766 9 -17487012.80247  21321311.923    21321318.1494
  23849370.682    -6507067.921 8  -4848806.56945  23849370.225    23849380.0314
 02  1 27  3 23  0.0000000  0  8 23 26 06 18 17 22 15 21
  20836892.319   -18403341.049 9 -14322510.16047  20836891.800    20836897.0264
  21667526.755   -20663506.985 8 -16087599.60747  21667526.824    21667532.2384
  20643119.595   -26216563.848 9 -20415159.25547  20643119.396    20643124.5344
  21061310.847   -24808294.500 9 -19317054.58447  21061310.398    21061315.3284
  21017716.030   -22655381.430 9 -17633972.44347  21017715.489    21017721.1874
  23477406.557    -9108132.188 8  -7083830.03346  23477405.671    23477414.4554
  21312861.828   -23013566.473 9 -17521616.89647  21312861.153    21312867.3514
  23833803.886    -6588871.039 8  -4912549.02645  23833803.481    23833813.1044
